Date StartTime U_cm/s V_cm/s W_cm/s Ustd_cm/s Vstd_cm/s Wstd_cm/s Uvar_(cm/s)^2 Vvar_(cm/s)^2 Wvar_(cm/s)^2 KE_(m/s)^2 TurbulentKE_(m/s)^2 HorizWindSpeed_cm/s FrictionSpeec_cm/s DragCoef SpeedOfSound_m/s SonicTemperature_C Pressure_mb 
06/09/2013  00:00:00      -71.541      -59.055        3.654       43.623       34.564       20.098     1902.954     1194.639      403.918        0.606        0.175       92.767       21.399        0.053      347.060       25.757      860.385
06/09/2013  00:01:00     -102.667      -71.000        0.718       31.760       26.789       19.774     1008.681      717.638      391.030        0.885        0.106      124.826       19.083        0.023      347.090       25.808      860.387
06/09/2013  00:02:00      -90.937      -54.868        2.722       34.180       22.902       18.366     1168.261      524.498      337.294        0.666        0.102      106.208       17.043        0.026      347.093       25.812      860.398
06/09/2013  00:03:00     -107.519      -52.343       -7.727       22.426       16.359       13.051      502.946      267.612      170.332        0.765        0.047      119.584        9.097        0.006      347.203       26.002      860.396
06/09/2013  00:04:00      -98.451      -68.610       -6.884       25.386       20.326       15.076      644.455      413.155      227.301        0.787        0.064      120.000       10.561        0.008      347.140       25.893      860.386
06/09/2013  00:05:00     -109.242      -53.781       -4.118       27.081       23.815       18.659      733.401      567.156      348.171        0.825        0.082      121.763       15.757        0.017      347.093       25.813      860.385
06/09/2013  00:06:00     -136.540      -18.045      -11.093       25.505       23.325       14.236      650.492      544.038      202.650        1.024        0.070      137.727       10.102        0.005      347.055       25.748      860.379
06/09/2013  00:07:00     -129.588      -25.972      -12.528       40.961       24.899       21.368     1677.799      619.975      456.578        1.019        0.138      132.165       22.454        0.029      347.022       25.691      860.374
06/09/2013  00:08:00     -155.795      -34.116      -13.272       25.212       31.625       18.144      635.646     1000.165      329.215        1.379        0.098      159.486       12.424        0.006      347.149       25.908      860.379
06/09/2013  00:09:00     -143.079      -36.331       -9.325       29.418       33.744       22.439      865.406     1138.669      503.503        1.219        0.125      147.620       15.914        0.012      346.936       25.542      860.379
06/09/2013  00:10:00     -115.378      -14.353       -5.900       31.492       27.942       17.394      991.775      780.776      302.548        0.781        0.104      116.267       14.700        0.016      346.864       25.419      860.383
06/09/2013  00:11:00     -122.358      -33.366       -6.228       25.090       19.335       15.812      629.530      373.830      250.024        0.869        0.063      126.826       11.551        0.008      346.813       25.331      860.401
06/09/2013  00:12:00     -109.710      -40.377       -3.552       36.736       23.940       19.840     1349.522      573.136      393.620        0.800        0.116      116.904       21.790        0.035      346.932       25.536      860.409
06/09/2013  00:13:00      -56.537      -36.749        3.363       33.952       24.870       18.813     1152.708      618.527      353.941        0.334        0.106       67.430       16.895        0.063      346.823       25.348      860.409
06/09/2013  00:14:00      -88.154      -55.700       -2.761       29.372       16.742       14.599      862.726      280.300      213.136        0.612        0.068      104.277        6.607        0.004      346.846       25.388      860.414
06/09/2013  00:15:00      -81.371      -61.118       -0.735       43.937       22.453       19.069     1930.425      504.116      363.632        0.658        0.140      101.768       19.289        0.036      346.850       25.393      860.429
06/09/2013  00:16:00      -79.306      -64.282        2.614       45.220       28.836       20.945     2044.808      831.522      438.698        0.687        0.166      102.086       15.156        0.022      346.816       25.335      860.424
06/09/2013  00:17:00      -70.210      -61.102       -1.370       38.301       27.691       20.382     1466.974      766.773      415.415        0.566        0.132       93.074       19.717        0.045      346.797       25.303      860.427
06/09/2013  00:18:00      -65.312      -47.294        3.424       35.736       29.411       17.329     1277.058      865.013      300.303        0.448        0.122       80.637       18.028        0.050      346.795       25.302      860.434
06/09/2013  00:19:00      -62.281      -43.732        3.613       30.628       16.243       14.317      938.094      263.826      204.974        0.361        0.070       76.101       12.918        0.029      346.809       25.324      860.424
06/09/2013  00:20:00      -70.557      -36.837        2.062       29.313       15.623       14.605      859.236      244.084      213.304        0.383        0.066       79.594       15.022        0.036      346.824       25.350      860.420
06/09/2013  00:21:00      -52.339      -33.318        0.217       25.273       13.375       15.113      638.713      178.891      228.396        0.245        0.052       62.044       16.473        0.070      346.873       25.434      860.415
06/09/2013  00:22:00      -69.510      -47.076        1.079       30.716       19.169       12.763      943.442      367.467      162.885        0.426        0.074       83.951       15.857        0.036      346.763       25.245      860.416
06/09/2013  00:23:00      -90.454      -51.297       -6.644       17.725       14.103       11.179      314.176      198.904      124.970        0.575        0.032      103.987        6.960        0.004      346.737       25.199      860.405
06/09/2013  00:24:00      -87.835      -30.524       -5.987        9.524        9.298        6.354       90.712       86.461       40.368        0.445        0.011       92.988        3.934        0.002      346.730       25.186      860.401
06/09/2013  00:25:00      -98.428      -39.012       -8.749       19.543       10.795        7.534      381.913      116.522       56.764        0.592        0.028      105.877        6.007        0.003      346.669       25.080      860.402
06/09/2013  00:26:00      -97.624      -54.171      -10.218       16.658       15.418       12.981      277.488      237.701      168.494        0.663        0.034      111.646        2.800        0.001      346.624       25.004      860.389
06/09/2013  00:27:00      -58.147      -33.971        3.791       21.822       16.261       10.910      476.214      264.419      119.026        0.270        0.043       67.344       11.046        0.027      346.654       25.056      860.377
06/09/2013  00:28:00      -79.158      -51.454       -0.961       22.577       15.284       12.425      509.721      233.595      154.382        0.491        0.045       94.411        8.850        0.009      346.748       25.218      860.376
06/09/2013  00:29:00      -96.750      -18.998       -0.877       30.370       25.794       16.699      922.351      665.338      278.849        0.579        0.093       98.598       18.054        0.034      346.637       25.028      860.369
06/09/2013  00:30:00      -75.614      -19.265        3.481       41.371       23.386       19.856     1711.545      546.921      394.252        0.438        0.133       78.030       22.325        0.082      346.570       24.913      860.362
06/09/2013  00:31:00     -101.465      -28.649       -4.551       20.085       19.928       11.262      403.421      397.112      126.828        0.603        0.046      105.432       10.100        0.009      346.619       24.998      860.366
06/09/2013  00:32:00      -96.651      -17.505       -2.592       36.729       27.522       20.385     1349.053      757.471      415.542        0.609        0.126       98.224       20.053        0.042      346.506       24.802      860.355
06/09/2013  00:33:00      -65.582       -8.313       -0.892       31.437       21.826       15.876      988.290      476.368      252.038        0.304        0.086       66.107       13.708        0.043      346.365       24.559      860.348
06/09/2013  00:34:00      -91.268      -20.215       -3.070       22.604       19.493       14.632      510.934      379.971      214.082        0.493        0.055       93.480       12.941        0.019      346.394       24.610      860.347
06/09/2013  00:35:00      -91.626      -21.302       -1.118       32.792       21.949       12.243     1075.320      481.752      149.893        0.528        0.085       94.069       14.751        0.025      346.434       24.679      860.337
06/09/2013  00:36:00      -80.793      -15.469       -3.590       34.615       24.497       16.135     1198.221      600.086      260.323        0.442        0.103       82.261       18.379        0.050      346.366       24.562      860.325
06/09/2013  00:37:00      -90.213      -29.353       -0.982       20.719       12.892       11.225      429.272      166.209      125.998        0.486        0.036       94.869       11.373        0.014      346.432       24.677      860.319
06/09/2013  00:38:00      -76.779      -18.936       -1.890       24.427       16.743       11.244      596.676      280.334      126.417        0.363        0.050       79.080       12.040        0.023      346.328       24.496      860.313
06/09/2013  00:39:00      -70.091       -4.452       -1.773       34.038       18.223       16.090     1158.581      332.063      258.875        0.334        0.087       70.232       17.320        0.061      346.248       24.359      860.310
06/09/2013  00:40:00      -88.361      -24.332       -4.964       15.130       14.938        9.014      228.910      223.159       81.258        0.448        0.027       91.650        7.332        0.006      346.299       24.448      860.307
06/09/2013  00:41:00      -77.966      -24.386       -5.538       13.782       19.229       13.555      189.943      369.769      183.747        0.372        0.037       81.691       11.220        0.019      346.326       24.494      860.313
06/09/2013  00:42:00      -81.322      -53.763       -0.740       21.615       20.335       12.584      467.221      413.527      158.357        0.527        0.052       97.487       10.759        0.012      346.350       24.534      860.312
06/09/2013  00:43:00     -123.499      -52.159       -3.337       29.205       19.741       12.397      852.935      389.724      153.684        0.969        0.070      134.062        8.640        0.004      346.403       24.626      860.309
06/09/2013  00:44:00     -119.755      -47.594       -6.921       33.706       34.133       18.120     1136.108     1165.093      328.334        0.964        0.131      128.866       15.553        0.015      346.281       24.415      860.318
06/09/2013  00:45:00     -145.915      -51.052       -2.124       31.309       12.022       12.473      980.252      144.524      155.575        1.259        0.064      154.588       15.978        0.011      346.297       24.444      860.318
06/09/2013  00:46:00     -101.050      -29.286        2.645       37.213       27.810       18.361     1384.809      773.380      337.115        0.679        0.125      105.208       17.679        0.028      346.241       24.348      860.315
06/09/2013  00:47:00      -98.697      -21.058        0.507       36.821       24.706       20.790     1355.776      610.366      432.222        0.629        0.120      100.919       20.169        0.040      346.130       24.156      860.329
06/09/2013  00:48:00     -116.638      -19.984       -2.595       30.298       19.816       17.528      917.977      392.658      307.243        0.781        0.081      118.338       17.562        0.022      346.221       24.313      860.330
06/09/2013  00:49:00     -100.756      -24.439       -2.016       31.982       22.733       16.283     1022.843      516.793      265.120        0.628        0.090      103.677       15.713        0.023      346.190       24.258      860.327
06/09/2013  00:50:00     -102.497      -33.957        2.450       26.598       20.669       13.865      707.436      427.205      192.251        0.650        0.066      107.975       10.884        0.010      346.199       24.275      860.337
06/09/2013  00:51:00     -117.354      -50.756       -3.006       20.543       18.802       13.014      422.014      353.532      169.362        0.865        0.047      127.860       10.768        0.007      346.278       24.411      860.325
06/09/2013  00:52:00     -110.662      -24.214       -7.242       23.089       19.361       17.146      533.080      374.831      293.978        0.704        0.060      113.280       15.159        0.018      346.201       24.277      860.313
06/09/2013  00:53:00     -109.407      -36.313       -5.812       32.419       17.375       17.843     1051.009      301.882      318.385        0.750        0.084      115.276       19.400        0.028      346.227       24.323      860.313
06/09/2013  00:54:00     -118.904      -43.918       -1.145       18.872       26.217       13.182      356.160      687.322      173.757        0.864        0.061      126.756       11.565        0.008      346.222       24.313      860.299
06/09/2013  00:55:00     -116.516      -47.216       -0.027       28.025       18.093       12.585      785.384      327.361      158.370        0.854        0.064      125.719       11.557        0.008      346.208       24.291      860.297
06/09/2013  00:56:00     -136.646      -41.330       -4.551       20.403       17.011       14.354      416.299      289.368      206.035        1.066        0.046      142.759       10.643        0.006      346.250       24.362      860.292
06/09/2013  00:57:00     -154.299      -51.959      -10.675       15.951       14.683        7.625      254.449      215.582       58.136        1.357        0.026      162.812        4.706        0.001      346.371       24.572      860.291
06/09/2013  00:58:00     -123.197      -49.761       -9.007       19.442       26.558       18.953      377.977      705.345      359.217        0.959        0.072      132.867       15.035        0.013      346.229       24.328      860.291
06/09/2013  00:59:00     -116.260      -33.289      -12.189       12.247       16.586       13.178      149.986      275.086      173.660        0.769        0.030      120.932        8.055        0.004      346.149       24.188      860.289
06/09/2013  01:00:00      -99.419      -64.068       -4.482       29.681       24.619       20.280      880.954      606.119      411.286        0.795        0.095      118.274       16.034        0.018      346.127       24.151      860.286
06/09/2013  01:01:00     -118.106      -72.056       -1.919       31.458       23.723       17.958      989.603      562.791      322.506        1.051        0.094      138.351       14.711        0.011      346.132       24.161      860.297
06/09/2013  01:02:00     -114.559      -72.804       -1.931       27.962       22.617       16.721      781.856      511.534      279.604        1.000        0.079      135.736       12.164        0.008      346.101       24.106      860.287
06/09/2013  01:03:00     -143.074      -70.694       -2.809       19.356       23.264       15.728      374.645      541.229      247.366        1.332        0.058      159.586       12.322        0.006      346.075       24.061      860.284
06/09/2013  01:04:00     -148.360      -78.825       -8.739       21.266       20.162       14.921      452.253      406.524      222.645        1.469        0.054      168.000       12.336        0.005      346.063       24.041      860.286
06/09/2013  01:05:00     -155.969      -67.704       -3.512       29.834       32.615       17.873      890.043     1063.725      319.434        1.560        0.114      170.030       15.001        0.008      346.015       23.959      860.270
06/09/2013  01:06:00     -167.123      -38.875       -5.316       31.506       27.097       18.233      992.618      734.258      332.432        1.576        0.103      171.584       16.725        0.010      345.957       23.860      860.269
06/09/2013  01:07:00     -147.971      -53.505       -1.712       33.267       35.555       18.501     1106.685     1264.165      342.283        1.374        0.136      157.347       17.698        0.013      345.947       23.842      860.271
06/09/2013  01:08:00     -130.874      -56.271       -1.731       21.854       23.821       14.310      477.607      567.460      204.789        1.077        0.062      142.458       10.864        0.006      345.994       23.923      860.260
06/09/2013  01:09:00     -102.686      -62.849        7.134       37.436       23.633       21.074     1401.430      558.523      444.118        0.847        0.120      120.393       20.955        0.030      345.937       23.825      860.258
06/09/2013  01:10:00      -87.257      -59.890        2.715       31.682       28.061       23.101     1003.737      787.414      533.666        0.677        0.116      105.833       19.895        0.035      345.931       23.815      860.257
06/09/2013  01:11:00      -79.787      -70.807        3.728       34.369       29.633       23.189     1181.259      878.134      537.712        0.699        0.130      106.675       22.671        0.045      345.926       23.806      860.253
06/09/2013  01:12:00      -81.806      -69.827        3.122       27.557       28.558       19.698      759.394      815.543      388.005        0.677        0.098      107.555       17.751        0.027      345.936       23.823      860.259
06/09/2013  01:13:00      -66.940      -58.864        4.427       41.411       20.795       22.431     1714.840      432.440      503.158        0.531        0.133       89.140       23.599        0.070      345.874       23.717      860.257
06/09/2013  01:14:00      -48.861      -57.766        2.913       51.480       25.788       23.636     2650.239      665.023      558.638        0.480        0.194       75.659       20.111        0.071      345.873       23.715      860.259
06/09/2013  01:15:00      -32.933      -75.499        4.557       49.444       29.244       25.742     2444.695      855.182      662.666        0.538        0.198       82.369       25.896        0.099      345.907       23.774      860.279
06/09/2013  01:16:00      -50.536      -66.396       -0.975       40.107       43.970       25.671     1608.567     1933.398      658.978        0.558        0.210       83.441       21.256        0.065      345.894       23.752      860.286
06/09/2013  01:17:00      -31.650      -41.955       -1.981       34.682       28.021       20.628     1202.854      785.181      425.532        0.259        0.121       52.555       11.271        0.046      345.863       23.698      860.290
06/09/2013  01:18:00      -21.257     -107.698      -10.990       34.276       31.089       24.564     1174.863      966.514      603.410        0.746        0.137      109.776       19.772        0.032      345.874       23.716      860.305
06/09/2013  01:19:00      -28.170      -53.749        4.583       38.425       45.536       30.275     1476.451     2073.504      916.547        0.408        0.223       60.684       33.162        0.299      345.850       23.675      860.291
06/09/2013  01:20:00      -71.953      -24.709        8.742       52.853       36.969       23.006     2793.451     1366.726      529.253        0.528        0.234       76.077       15.214        0.040      345.804       23.595      860.284
06/09/2013  01:21:00      -74.784      -42.904        9.074       58.296       32.203       20.881     3398.448     1037.062      436.014        0.619        0.244       86.217       14.938        0.030      345.633       23.301      860.276
06/09/2013  01:22:00     -126.357      -74.179       -4.673       48.681       40.406       24.423     2369.808     1632.671      596.499        1.304        0.230      146.522       13.613        0.009      345.580       23.212      860.262
06/09/2013  01:23:00     -152.803     -103.993       -5.900       43.950       34.011       24.331     1931.619     1156.745      592.008        1.894        0.184      184.834       22.379        0.015      345.483       23.045      860.265
06/09/2013  01:24:00     -158.784     -118.204      -11.301       47.045       58.984       31.136     2213.257     3479.086      969.434        2.299        0.333      197.951       30.508        0.024      345.413       22.923      860.257
06/09/2013  01:25:00     -180.320     -153.196       -5.248       53.713       51.846       32.851     2885.130     2687.997     1079.217        3.133        0.333      236.610       26.895        0.013      345.394       22.888      860.257
06/09/2013  01:26:00     -200.806     -163.416       -7.105       72.736       58.225       40.393     5290.587     3390.184     1631.616        3.869        0.516      258.897       41.506        0.026      345.354       22.821      860.250
06/09/2013  01:27:00     -174.301     -137.892       -2.721       44.772       59.255       36.753     2004.513     3511.111     1350.817        2.813        0.343      222.250       24.061        0.012      345.341       22.799      860.248
06/09/2013  01:28:00     -129.924     -114.702       -2.013       57.140       61.273       40.620     3265.028     3754.405     1649.999        1.935        0.433      173.311       33.372        0.037      345.339       22.797      860.240
06/09/2013  01:29:00     -139.305     -103.800        0.548       49.818       58.233       34.413     2481.832     3391.096     1184.287        1.862        0.353      173.725       24.659        0.020      345.294       22.720      860.236
06/09/2013  01:30:00     -146.366      -95.772      -13.097       59.730       46.327       39.075     3567.714     2146.199     1526.883        1.900        0.362      174.916       27.628        0.025      345.268       22.676      860.233
06/09/2013  01:31:00      -99.249      -75.538       -0.651       93.654       55.405       31.507     8771.029     3069.664      992.666        1.419        0.642      124.725       28.264        0.051      345.225       22.603      860.222
06/09/2013  01:32:00     -130.012      -99.527       -7.431       63.872       56.224       29.250     4079.609     3161.124      855.556        1.748        0.405      163.734       35.647        0.047      345.219       22.592      860.240
06/09/2013  01:33:00     -138.116     -102.361       -9.807       27.642       38.582       26.697      764.055     1488.604      712.731        1.631        0.148      171.912        9.618        0.003      345.196       22.553      860.231
06/09/2013  01:34:00     -152.084      -54.805      -11.660       27.701       22.452       20.009      767.323      504.080      400.352        1.397        0.084      161.657       14.348        0.008      345.274       22.687      860.236
06/09/2013  01:35:00     -133.949      -68.564       -9.176       24.968       20.839       18.125      623.413      434.270      328.499        1.206        0.069      150.477       12.181        0.007      345.297       22.727      860.230
06/09/2013  01:36:00     -129.714      -10.170       -9.774       34.815       30.681       20.799     1212.106      941.294      432.592        0.980        0.129      130.112       19.182        0.022      345.325       22.774      860.229
06/09/2013  01:37:00     -104.204      -18.966       -3.303       40.634       31.250       20.191     1651.125      976.565      407.694        0.713        0.152      105.916       18.979        0.032      345.244       22.635      860.229
06/09/2013  01:38:00     -103.316      -12.270       -6.116       33.304       27.063       18.491     1109.183      732.402      341.906        0.652        0.109      104.042       18.174        0.031      345.148       22.472      860.228
06/09/2013  01:39:00     -112.327      -29.383       -2.680       18.413       26.167       15.199      339.036      684.714      231.003        0.737        0.063      116.107        8.286        0.005      345.130       22.442      860.232
06/09/2013  01:40:00     -111.569      -30.147       -2.343       31.064       24.584       15.956      964.953      604.352      254.598        0.759        0.091      115.570       16.314        0.020      345.073       22.343      860.227
06/09/2013  01:41:00     -120.338      -42.292       -4.579       25.437       30.145       17.405      647.053      908.698      302.918        0.907        0.093      127.553       12.493        0.010      345.116       22.417      860.223
06/09/2013  01:42:00     -141.782      -52.140      -11.889       21.836       25.197       17.951      476.804      634.882      322.228        1.220        0.072      151.066       11.599        0.006      345.124       22.430      860.215
06/09/2013  01:43:00     -139.051      -52.779       -2.403       26.516       24.027       17.473      703.087      577.320      305.316        1.186        0.079      148.731       14.267        0.009      345.077       22.350      860.211
06/09/2013  01:44:00     -101.069      -62.249       -1.347       24.979       24.574       19.041      623.938      603.878      362.576        0.784        0.080      118.701       14.790        0.016      345.098       22.385      860.209
06/09/2013  01:45:00      -91.690      -74.121       -2.143       30.556       20.093       20.432      933.677      403.743      417.483        0.783        0.088      117.902       16.271        0.019      345.122       22.428      860.206
06/09/2013  01:46:00      -79.961      -63.498        1.313       26.220       26.072       18.098      687.506      679.760      327.528        0.606        0.085      102.107       15.402        0.023      345.156       22.485      860.209
06/09/2013  01:47:00      -72.180      -62.208       -1.617       42.337       33.069       20.799     1792.461     1093.577      432.608        0.620        0.166       95.288       20.634        0.047      345.220       22.595      860.199
06/09/2013  01:48:00      -64.392      -54.541        7.522       41.924       32.886       22.486     1757.652     1081.515      505.605        0.526        0.167       84.387       24.991        0.088      345.145       22.468      860.201
06/09/2013  01:49:00      -44.065      -54.910       -4.052       39.584       35.816       19.107     1566.899     1282.763      365.064        0.409        0.161       70.405       12.383        0.031      345.167       22.503      860.204
06/09/2013  01:50:00      -29.898      -61.499        0.432       19.575       24.410       13.641      383.189      595.860      186.088        0.292        0.058       68.381       10.195        0.022      345.172       22.513      860.214
06/09/2013  01:51:00      -34.935      -40.554        9.006       27.121       43.213       19.620      735.547     1867.381      384.925        0.297        0.149       53.526       20.750        0.150      345.192       22.547      860.222
06/09/2013  01:52:00      -87.262      -52.304       -2.658       58.783       40.255       24.293     3455.407     1620.430      590.163        0.801        0.283      101.737       24.007        0.056      345.177       22.522      860.209
06/09/2013  01:53:00      -78.584      -74.273        2.853       60.545       37.312       26.982     3665.682     1392.216      728.030        0.874        0.289      108.129       25.904        0.057      345.155       22.484      860.208
06/09/2013  01:54:00      -75.489      -48.760       -0.953       42.483       32.498       22.789     1804.824     1056.096      519.346        0.573        0.169       89.867       19.553        0.047      345.113       22.411      860.205
06/09/2013  01:55:00      -57.887      -32.080        2.570       42.810       20.662       18.560     1832.684      426.936      344.476        0.349        0.130       66.182       23.210        0.123      345.049       22.303      860.219
06/09/2013  01:56:00      -85.798      -41.691        2.142       22.661       14.178       13.143      513.514      201.022      172.731        0.500        0.044       95.391       14.307        0.022      345.084       22.362      860.227
06/09/2013  01:57:00     -103.142      -53.642       -7.450       13.611       16.208        8.893      185.250      262.711       79.082        0.705        0.026      116.257        7.008        0.004      345.145       22.465      860.221
06/09/2013  01:58:00      -78.808      -37.485        3.946       33.612       24.606       18.485     1129.734      605.440      341.713        0.485        0.104       87.269       16.567        0.036      345.006       22.231      860.215
06/09/2013  01:59:00        3.860      -24.438       17.872       20.335       19.816       14.858      413.528      392.686      220.765        0.098        0.051       24.741       14.490        0.343      344.954       22.137      860.215
06/09/2013  02:00:00      -19.114      -60.518       -0.978       24.520       21.406       14.248      601.250      458.233      203.012        0.265        0.063       63.465        9.742        0.024      345.110       22.407      860.227
06/09/2013  02:01:00      -40.749      -89.791       -3.558       29.340       35.471       23.096      860.843     1258.216      533.412        0.619        0.133       98.605       19.405        0.039      345.136       22.451      860.240
06/09/2013  02:02:00      -61.355     -112.788       -4.411       65.792       54.745       33.403     4328.608     2997.023     1115.749        1.247        0.422      128.396       38.313        0.089      345.062       22.324      860.236
06/09/2013  02:03:00      -30.905      -55.647        7.743       42.533       39.115       25.358     1809.091     1529.957      643.021        0.405        0.199       63.653       22.812        0.128      345.025       22.261      860.237
06/09/2013  02:04:00      -32.357      -63.341      -10.748       42.494       38.637       26.727     1805.711     1492.848      714.333        0.459        0.201       71.127       20.867        0.086      345.015       22.244      860.251
06/09/2013  02:05:00      -41.239      -48.655       -2.743       67.094       35.113       27.491     4501.617     1232.890      755.780        0.528        0.325       63.781       11.509        0.033      344.968       22.164      860.252
06/09/2013  02:06:00       -9.058      -41.353        8.203       37.416       32.591       29.610     1399.985     1062.155      876.757        0.260        0.167       42.333       13.998        0.109      344.941       22.118      860.259
06/09/2013  02:07:00      -24.926      -45.845       21.066       49.323       37.359       28.042     2432.794     1395.659      786.376        0.389        0.231       52.183       24.177        0.215      344.873       22.001      860.259
06/09/2013  02:08:00      -84.164      -37.709        8.357       70.771       51.504       37.468     5008.522     2652.620     1403.860        0.882        0.453       92.225       36.819        0.159      344.811       21.896      860.243
06/09/2013  02:09:00     -184.020     -128.726       -5.540       73.149       52.538       32.133     5350.787     2760.207     1032.557        2.980        0.457      224.574       34.493        0.024      344.757       21.798      860.231
06/09/2013  02:10:00     -183.313     -143.759      -14.038       42.356       50.492       31.810     1794.060     2549.463     1011.870        2.991        0.268      232.960       21.505        0.009      344.756       21.795      860.221
06/09/2013  02:11:00     -106.172      -79.879        6.440       55.905       42.992       34.965     3125.354     1848.280     1222.522        1.194        0.310      132.866       35.923        0.073      344.718       21.735      860.230
06/09/2013  02:12:00     -149.262      -60.829       -7.570       48.310       35.930       27.259     2333.812     1290.952      743.073        1.520        0.218      161.181       26.871        0.028      344.811       21.894      860.231
06/09/2013  02:13:00     -183.821      -67.253      -14.958       30.579       37.440       21.359      935.104     1401.731      456.225        2.066        0.140      195.738       15.792        0.007      344.844       21.949      860.223
06/09/2013  02:14:00     -141.123      -74.765       -1.001       37.878       41.883       26.386     1434.710     1754.163      696.212        1.469        0.194      159.704       20.111        0.016      344.823       21.915      860.219
06/09/2013  02:15:00     -151.974      -45.216       -7.242       31.976       35.294       18.660     1022.471     1245.660      348.207        1.390        0.131      158.558       17.394        0.012      344.789       21.857      860.210
06/09/2013  02:16:00     -145.163      -36.199       -7.084       36.205       38.645       20.357     1310.832     1493.407      414.399        1.283        0.161      149.608       20.088        0.018      344.707       21.717      860.216
06/09/2013  02:17:00     -143.752      -26.296       -4.375       34.032       41.905       21.374     1158.201     1756.041      456.838        1.237        0.169      146.137       17.334        0.014      344.589       21.515      860.216
06/09/2013  02:18:00     -173.289      -10.946      -16.193       63.087       31.847       26.919     3980.017     1014.237      724.628        1.806        0.286      173.635       32.572        0.035      344.527       21.408      860.210
06/09/2013  02:19:00     -174.098      -77.049      -20.538       29.726       29.817       20.617      883.626      889.059      425.054        1.943        0.110      190.385       15.221        0.006      344.595       21.524      860.215
06/09/2013  02:20:00     -170.617      -43.193       -7.908       29.303       24.320       21.771      858.639      591.486      473.963        1.648        0.096      176.000       17.791        0.010      344.624       21.576      860.216
06/09/2013  02:21:00     -125.796      -45.507      -11.462       27.970       33.358       17.888      782.339     1112.730      319.988        1.012        0.111      133.775       13.949        0.011      344.629       21.586      860.227
06/09/2013  02:22:00     -101.229      -19.233      -11.613       30.767       19.436       17.377      946.638      377.769      301.971        0.619        0.081      103.040       18.709        0.033      344.680       21.671      860.244
06/09/2013  02:23:00     -105.277      -40.101      -11.923       23.667       26.502       11.809      560.107      702.341      139.459        0.712        0.070      112.656        6.580        0.003      344.676       21.665      860.238
06/09/2013  02:24:00     -150.858      -31.966      -22.525       23.653       17.069       19.316      559.475      291.363      373.106        1.276        0.061      154.208       14.704        0.009      344.732       21.757      860.225
06/09/2013  02:25:00     -137.233      -36.413      -11.577       28.641       23.887       19.972      820.325      570.590      398.864        1.104        0.089      141.982       15.748        0.012      344.584       21.507      860.212
06/09/2013  02:26:00     -109.869      -50.798      -13.290       35.905       27.848       18.872     1289.158      775.498      356.161        0.862        0.121      121.044       16.552        0.019      344.590       21.517      860.196
06/09/2013  02:27:00      -93.797      -18.103       -2.333       38.488       29.129       17.781     1481.304      848.498      316.158        0.589        0.132       95.527       18.345        0.037      344.671       21.654      860.197
06/09/2013  02:28:00      -87.177        2.020        0.419       42.029       32.357       26.551     1766.472     1046.945      704.979        0.556        0.176       87.200       25.791        0.087      344.834       21.934      860.194
06/09/2013  02:29:00     -114.326       12.214      -10.980       54.893       41.224       29.881     3013.240     1699.419      892.875        0.947        0.280      114.976       16.450        0.020      344.877       22.007      860.177
06/09/2013  02:30:00      -92.804       -9.217      -11.908       46.335       25.621       20.801     2146.889      656.421      432.672        0.604        0.162       93.260       18.729        0.040      344.800       21.874      860.174
06/09/2013  02:31:00     -106.965      -11.809       -6.727       30.270       37.558       22.886      916.261     1410.600      523.761        0.724        0.143      107.615       12.914        0.014      344.772       21.826      860.161
06/09/2013  02:32:00      -94.244      -19.902       -9.107       51.607       36.560       22.790     2663.265     1336.660      519.382        0.694        0.226       96.323       19.469        0.041      344.681       21.673      860.155
06/09/2013  02:33:00     -130.830      -28.124      -12.160       43.002       38.089       31.751     1849.199     1450.739     1008.113        1.118        0.215      133.819       23.395        0.031      344.692       21.689      860.154
06/09/2013  02:34:00      -64.488      -49.985       -6.344       82.090       45.832       26.688     6738.807     2100.605      712.231        0.812        0.478       81.592       32.833        0.162      344.599       21.531      860.160
06/09/2013  02:35:00      -56.884      -39.662       11.768       79.411       41.318       31.053     6306.161     1707.177      964.316        0.696        0.449       69.346       37.203        0.288      344.524       21.404      860.173
06/09/2013  02:36:00     -132.315      -40.469        2.309       29.953       37.552       27.149      897.154     1410.139      737.083        1.110        0.152      138.365       17.632        0.016      344.420       21.226      860.187
06/09/2013  02:37:00      -82.404      -31.973        1.392       47.406       22.299       14.695     2247.335      497.230      215.951        0.539        0.148       88.390       20.383        0.053      344.470       21.310      860.200
06/09/2013  02:38:00      -96.244      -45.761       -4.363       23.212       24.081       13.956      538.799      579.872      194.758        0.634        0.066      106.569       10.767        0.010      344.488       21.343      860.211
06/09/2013  02:39:00      -62.052      -29.529       -2.488       50.565       23.750       18.647     2556.806      564.058      347.697        0.410        0.173       68.720       15.077        0.048      344.517       21.391      860.210
06/09/2013  02:40:00      -78.370      -34.722       -2.280       40.587       32.021       18.697     1647.280     1025.333      349.590        0.519        0.151       85.717       17.045        0.040      344.598       21.530      860.213
06/09/2013  02:41:00      -77.984      -33.106       -5.351       16.161       17.372       15.529      261.180      301.780      241.148        0.400        0.040       84.720        8.263        0.010      344.584       21.509      860.215
06/09/2013  02:42:00      -86.979      -25.869       -4.162       16.158       16.628       14.930      261.083      276.497      222.902        0.451        0.038       90.745       10.890        0.014      344.541       21.434      860.209
06/09/2013  02:43:00     -106.872      -29.400       -5.232       24.458       19.244       13.057      598.208      370.346      170.472        0.673        0.057      110.842        8.552        0.006      344.553       21.454      860.216
06/09/2013  02:44:00     -121.717      -57.458      -12.419       24.824       19.946       15.445      616.215      397.846      238.562        0.976        0.063      134.597       14.215        0.011      344.562       21.470      860.209
06/09/2013  02:45:00      -64.684      -36.824       -0.925       38.588       21.140       17.115     1489.018      446.919      292.934        0.388        0.111       74.431       18.898        0.064      344.563       21.471      860.205
06/09/2013  02:46:00      -35.213      -25.490       10.435       35.950       24.119       20.665     1292.424      581.705      427.058        0.215        0.115       43.470       21.575        0.246      344.592       21.521      860.205
06/09/2013  02:47:00      -57.471      -44.499       -2.152       33.950       29.029       17.690     1152.580      842.683      312.946        0.380        0.115       72.685       19.673        0.073      344.668       21.650      860.199
06/09/2013  02:48:00      -60.962      -48.608       11.149       44.158       37.241       24.764     1949.945     1386.861      613.233        0.508        0.198       77.969       25.127        0.104      344.637       21.598      860.196
06/09/2013  02:49:00      -50.364      -64.602        5.651       46.224       26.137       23.000     2136.629      683.121      528.987        0.504        0.167       81.914       24.321        0.088      344.701       21.705      860.213
06/09/2013  02:50:00      -53.498      -42.523        6.257       35.644       25.588       22.857     1270.485      654.756      522.453        0.358        0.122       68.340       20.377        0.089      344.653       21.623      860.215
06/09/2013  02:51:00      -54.371      -35.750        1.237       32.400       16.432       14.409     1049.762      270.016      207.620        0.288        0.076       65.071       17.530        0.073      344.720       21.741      860.223
06/09/2013  02:52:00      -26.747      -19.557        6.118       27.917       20.964       12.422      779.356      439.480      154.305        0.125        0.069       33.135        8.184        0.061      344.733       21.763      860.231
06/09/2013  02:53:00       -8.194      -30.094        9.609       16.006       15.498       13.105      256.206      240.191      171.733        0.087        0.033       31.189       11.110        0.127      344.780       21.840      860.229
06/09/2013  02:54:00      -30.796      -26.582        2.871       26.169       19.373       17.041      684.826      375.299      290.381        0.151        0.068       40.682       13.625        0.112      344.749       21.788      860.222
06/09/2013  02:55:00      -66.333      -39.640       -9.109       17.968       10.730        9.028      322.835      115.136       81.499        0.329        0.026       77.275        7.692        0.010      344.827       21.922      860.228
06/09/2013  02:56:00      -68.837      -29.896       -1.414       27.375       15.413       12.022      749.372      237.559      144.527        0.338        0.057       75.048        9.868        0.017      344.742       21.775      860.224
06/09/2013  02:57:00      -35.713      -21.408        5.782       33.074       18.816       12.642     1093.871      354.059      159.831        0.169        0.080       41.638       12.943        0.097      344.656       21.629      860.225
06/09/2013  02:58:00      -17.120      -28.096        8.641       19.979       15.441       16.815      399.150      238.425      282.756        0.104        0.046       32.901       11.195        0.116      344.647       21.613      860.233
06/09/2013  02:59:00      -35.587      -24.865       -0.270       21.050       12.882       14.294      443.113      165.954      204.311        0.135        0.041       43.413       10.918        0.063      344.708       21.720      860.223
06/09/2013  03:00:00      -71.517      -41.606      -10.066       13.041       14.506       10.478      170.074      210.419      109.788        0.372        0.025       82.739        8.104        0.010      344.706       21.714      860.206
06/09/2013  03:01:00      -74.555      -40.399       -9.700        8.656       10.741        8.133       74.922      115.367       66.145        0.377        0.013       84.796        3.730        0.002      344.704       21.710      860.190
06/09/2013  03:02:00      -57.474      -30.546       -7.159       19.043       12.378       12.224      362.634      153.221      149.414        0.248        0.033       65.087       12.582        0.037      344.666       21.646      860.190
06/09/2013  03:03:00      -57.459      -36.933       -6.748       16.160        8.884       11.346      261.162       78.932      128.730        0.259        0.023       68.305       11.662        0.029      344.660       21.637      860.184
06/09/2013  03:04:00      -59.422      -49.877       -4.957       14.950       13.259       13.507      223.511      175.808      182.429        0.331        0.029       77.580        6.052        0.006      344.650       21.620      860.180
06/09/2013  03:05:00      -16.922      -31.800       11.035       39.208       23.885       16.541     1537.257      570.485      273.592        0.190        0.119       36.022       19.801        0.302      344.600       21.536      860.172
06/09/2013  03:06:00      -96.106      -52.745       -6.766       17.566       16.451       10.877      308.567      270.650      118.316        0.638        0.035      109.629        3.203        0.001      344.506       21.372      860.180
06/09/2013  03:07:00      -90.352      -52.972      -12.092       18.183       15.664       13.731      330.617      245.364      188.538        0.594        0.038      104.736        3.388        0.001      344.535       21.423      860.192
06/09/2013  03:08:00      -88.804      -61.853       -6.924       28.488       20.617       15.916      811.546      425.079      253.310        0.662        0.074      108.222       13.882        0.016      344.528       21.412      860.192
06/09/2013  03:09:00      -48.815      -57.383       -0.148       43.770       37.624       24.045     1915.837     1415.557      578.184        0.479        0.195       75.337       24.113        0.102      344.470       21.311      860.180
06/09/2013  03:10:00      -67.462      -95.022        5.906       32.861       33.652       24.869     1079.877     1132.480      618.482        0.822        0.142      116.534       14.898        0.016      344.510       21.379      860.188
06/09/2013  03:11:00      -52.552      -53.431        5.595       35.926       30.958       26.216     1290.663      958.414      687.288        0.429        0.147       74.944       22.593        0.091      344.524       21.404      860.201
06/09/2013  03:12:00      -64.746      -60.463       -0.193       51.606       28.482       19.270     2663.191      811.244      371.348        0.585        0.192       88.588       15.199        0.029      344.503       21.368      860.200
06/09/2013  03:13:00      -48.602      -46.201        5.626       42.653       40.419       29.410     1819.316     1633.706      864.946        0.442        0.216       67.057       20.946        0.098      344.416       21.219      860.186
06/09/2013  03:14:00     -102.036      -72.551       -1.299       33.700       34.038       21.831     1135.672     1158.601      476.600        0.922        0.139      125.199       17.142        0.019      344.419       21.225      860.171
06/09/2013  03:15:00      -97.494      -80.619       -2.617       30.934       36.193       24.411      956.935     1309.900      595.878        0.944        0.143      126.508       20.944        0.027      344.424       21.234      860.172
06/09/2013  03:16:00      -86.194      -73.736       -8.784       28.767       26.081       12.591      827.543      680.218      158.531        0.730        0.083      113.430        7.910        0.005      344.389       21.172      860.177
06/09/2013  03:17:00     -101.501      -67.602       -0.940       25.163       26.675       17.537      633.161      711.574      307.561        0.826        0.083      121.953       13.307        0.012      344.379       21.156      860.174
06/09/2013  03:18:00      -63.854      -37.130       -1.701       32.194       19.971       19.373     1036.478      398.824      375.309        0.363        0.091       73.865       19.457        0.069      344.301       21.025      860.162
06/09/2013  03:19:00      -82.044      -50.939       -7.728       21.368       18.947       16.763      456.605      358.971      281.014        0.524        0.055       96.571       14.431        0.022      344.291       21.008      860.149
06/09/2013  03:20:00      -55.109      -41.702        4.370       32.686       23.146       18.650     1068.388      535.746      347.837        0.337        0.098       69.109       19.552        0.080      344.280       20.988      860.153
06/09/2013  03:21:00      -46.622      -28.221        2.370       30.047       23.600       17.521      902.823      556.973      306.971        0.237        0.088       54.498       15.448        0.080      344.261       20.954      860.156
06/09/2013  03:22:00      -54.547      -42.689        6.842       38.987       28.552       19.048     1519.969      815.209      362.812        0.377        0.135       69.266       20.819        0.090      344.241       20.919      860.152
06/09/2013  03:23:00      -71.213      -57.062        8.239       42.517       27.648       23.000     1807.709      764.408      528.987        0.575        0.155       91.254       23.220        0.065      344.174       20.805      860.150
06/09/2013  03:24:00     -106.024      -59.999       -0.723       30.735       23.472       20.594      944.615      550.924      424.115        0.838        0.096      121.824       16.614        0.019      344.219       20.884      860.148
06/09/2013  03:25:00     -126.901      -67.779       -2.981       39.476       26.623       21.512     1558.362      708.785      462.767        1.172        0.136      143.867       21.382        0.022      344.272       20.974      860.144
06/09/2013  03:26:00      -95.497      -73.154        0.356       50.171       30.241       22.508     2517.101      914.540      506.625        0.920        0.197      120.297       27.169        0.051      344.182       20.819      860.127
06/09/2013  03:27:00      -80.116      -52.377        2.495       48.597       29.489       21.133     2361.631      869.622      446.611        0.642        0.184       95.718       21.245        0.049      344.121       20.713      860.116
06/09/2013  03:28:00      -88.472      -64.416       -3.346       34.182       26.708       21.953     1168.408      713.338      481.912        0.718        0.118      109.438       18.405        0.028      344.131       20.734      860.124
06/09/2013  03:29:00      -81.792      -65.365       -2.204       30.510       29.913       21.314      930.839      894.802      454.303        0.662        0.114      104.702       17.070        0.027      344.114       20.702      860.119
06/09/2013  03:30:00      -69.626      -63.930       -0.524       39.565       32.111       27.223     1565.384     1031.130      741.086        0.614        0.167       94.524       24.256        0.066      344.099       20.677      860.108
06/09/2013  03:31:00      -59.974      -70.451        4.394       51.870       41.490       25.650     2690.489     1721.413      657.940        0.682        0.253       92.521       28.938        0.098      344.025       20.551      860.106
06/09/2013  03:32:00      -71.649      -67.550        2.081       57.577       49.816       29.409     3315.054     2481.627      864.917        0.818        0.333       98.471       31.029        0.099      343.998       20.507      860.102
06/09/2013  03:33:00      -97.659      -88.051       -2.179       64.731       55.013       29.850     4190.165     3026.430      891.024        1.270        0.405      131.493       31.414        0.057      343.997       20.503      860.081
06/09/2013  03:34:00     -154.060      -91.384      -11.324       63.290       43.401       32.366     4005.663     1883.637     1047.580        1.957        0.347      179.124       35.287        0.039      343.890       20.318      860.067
06/09/2013  03:35:00     -141.925      -92.280        5.024       55.151       50.089       37.059     3041.649     2508.894     1373.381        1.780        0.346      169.288       33.589        0.039      343.857       20.262      860.067
06/09/2013  03:36:00     -113.442      -84.951       -1.943       39.215       37.364       27.083     1537.853     1396.068      733.506        1.188        0.183      141.724       24.498        0.030      343.925       20.380      860.058
06/09/2013  03:37:00      -96.388      -34.523        3.662       32.307       20.336       15.285     1043.716      413.549      233.646        0.609        0.085      102.384       16.128        0.025      343.951       20.425      860.054
06/09/2013  03:38:00      -73.915      -54.700        6.634       43.858       25.346       23.383     1923.553      642.443      546.772        0.581        0.156       91.954       24.634        0.072      343.918       20.368      860.052
06/09/2013  03:39:00      -65.001      -39.799        5.966       46.941       36.222       24.826     2203.468     1312.034      616.322        0.499        0.207       76.217       22.963        0.091      343.909       20.354      860.041
06/09/2013  03:40:00     -125.196      -76.361       -8.484       38.669       23.352       22.550     1495.283      545.322      508.521        1.206        0.127      146.646       17.505        0.014      343.928       20.386      860.029
06/09/2013  03:41:00     -112.679      -56.788       -1.258       51.677       34.638       17.980     2670.525     1199.800      323.270        1.006        0.210      126.180       19.235        0.023      343.911       20.356      860.031
06/09/2013  03:42:00     -134.872      -46.343       -2.131       35.583       27.501       22.696     1266.165      756.278      515.107        1.144        0.127      142.612       19.928        0.020      343.923       20.377      860.020
06/09/2013  03:43:00     -128.864      -58.776       -4.794       39.451       33.889       20.706     1556.363     1148.489      428.743        1.161        0.157      141.635       16.419        0.013      343.892       20.323      860.017
06/09/2013  03:44:00     -107.811      -27.883        2.065       47.001       24.849       21.802     2209.096      617.480      475.337        0.785        0.165      111.358       27.495        0.061      343.772       20.120      860.014
06/09/2013  03:45:00      -85.038      -13.199        3.474       33.168       28.521       20.823     1100.084      813.433      433.597        0.488        0.117       86.057       20.272        0.055      343.746       20.074      860.000
06/09/2013  03:46:00     -100.770      -14.841       -3.742       34.501       29.470       20.805     1190.300      868.483      432.830        0.644        0.125      101.857       19.854        0.038      343.645       19.900      859.999
06/09/2013  03:47:00     -114.016      -46.130        0.783       32.985       33.387       19.004     1088.031     1114.684      361.151        0.885        0.128      122.995       18.217        0.022      343.652       19.915      859.981
06/09/2013  03:48:00     -122.186      -60.578       -2.236       31.225       26.106       16.290      974.997      681.506      265.368        1.026        0.096      136.379        9.889        0.005      343.806       20.176      859.971
06/09/2013  03:49:00     -124.724      -51.355       -2.807       28.847       30.927       16.327      832.130      956.464      266.568        1.013        0.103      134.883       13.999        0.011      343.765       20.107      859.975
06/09/2013  03:50:00     -132.205      -33.716       -4.958       29.514       24.757       18.145      871.105      612.925      329.230        1.023        0.091      136.436       17.707        0.017      343.719       20.027      859.965
06/09/2013  03:51:00     -136.862      -62.304       -1.652       28.793       23.299       17.305      829.031      542.847      299.455        1.214        0.084      150.376       13.434        0.008      343.717       20.025      859.960
06/09/2013  03:52:00     -117.818      -52.689       -1.926       38.617       25.506       20.908     1491.255      650.579      437.164        0.962        0.129      129.063       19.757        0.023      343.709       20.010      859.953
06/09/2013  03:53:00      -80.703      -56.125        3.956       53.143       32.717       22.658     2824.175     1070.421      513.400        0.704        0.220       98.300       23.696        0.058      343.745       20.072      859.945
06/09/2013  03:54:00      -67.707      -58.169        4.306       56.848       34.113       25.286     3231.685     1163.702      639.395        0.651        0.252       89.263       29.904        0.112      343.769       20.115      859.955
06/09/2013  03:55:00      -80.214      -68.077        1.213       40.166       31.568       24.522     1613.316      996.563      601.347        0.714        0.161      105.209       22.621        0.046      343.782       20.136      859.958
06/09/2013  03:56:00      -74.287      -56.421        1.909       47.923       32.063       22.167     2296.579     1028.017      491.392        0.626        0.191       93.284       19.873        0.045      343.762       20.103      859.954
06/09/2013  03:57:00      -68.300      -53.024       -1.857       31.916       31.827       19.447     1018.631     1012.989      378.180        0.494        0.120       86.466       16.040        0.034      343.788       20.146      859.961
06/09/2013  03:58:00      -73.414      -48.658       -1.499       38.442       27.472       18.967     1477.795      754.707      359.750        0.518        0.130       88.075       18.123        0.042      343.727       20.043      859.969
06/09/2013  03:59:00      -88.731      -65.714       -1.158       38.365       30.230       20.984     1471.849      913.830      440.332        0.751        0.141      110.415       18.390        0.028      343.770       20.115      859.968
06/09/2013  04:00:00      -73.531      -53.283        3.848       35.122       35.491       21.863     1233.538     1259.630      478.002        0.562        0.149       90.806       17.314        0.036      343.705       20.004      859.971
06/09/2013  04:01:00      -76.519      -57.206       -2.323       44.528       28.155       23.006     1982.778      792.695      529.266        0.622        0.165       95.539       15.864        0.028      343.744       20.072      859.980
06/09/2013  04:02:00      -88.121      -55.291       -6.328       28.589       25.027       16.916      817.337      626.350      286.138        0.630        0.086      104.031       12.970        0.016      343.741       20.067      859.977
06/09/2013  04:03:00      -80.318      -35.117        2.248       38.466       28.475       17.415     1479.621      810.807      303.273        0.514        0.130       87.659       17.334        0.039      343.745       20.073      859.976
06/09/2013  04:04:00      -89.425      -62.299       -2.264       28.602       21.592       15.024      818.057      466.229      225.736        0.670        0.076      108.986       14.872        0.019      343.814       20.191      859.984
06/09/2013  04:05:00      -75.410      -27.248       -0.473       23.324       16.795       11.066      544.011      282.063      122.461        0.369        0.047       80.182       10.862        0.018      343.848       20.249      859.987
06/09/2013  04:06:00      -31.070      -22.585        8.029       30.241       16.972       17.650      914.511      288.053      311.535        0.153        0.076       38.411       15.749        0.168      343.761       20.099      859.981
06/09/2013  04:07:00       -4.840      -21.096       16.865       23.423       14.917       15.673      548.633      222.515      245.635        0.088        0.051       21.644       12.880        0.354      343.762       20.102      859.990
06/09/2013  04:08:00      -23.453      -40.578       14.192       26.862       25.910       14.228      721.547      671.340      202.446        0.200        0.080       46.868       16.607        0.126      343.792       20.153      859.988
06/09/2013  04:09:00      -32.014      -32.838       11.508       29.634       19.033       18.876      878.175      362.269      356.297        0.192        0.080       45.861       16.441        0.129      343.716       20.023      859.997
06/09/2013  04:10:00      -77.969      -61.173       -2.936       31.179       25.687       20.672      972.118      659.799      427.318        0.594        0.103       99.103       14.630        0.022      343.735       20.057      860.009
06/09/2013  04:11:00      -46.467      -46.097        6.559       37.660       29.104       22.953     1418.274      847.046      526.843        0.356        0.140       65.453       21.653        0.109      343.771       20.117      860.015
06/09/2013  04:12:00      -82.743      -76.433       -1.397       28.141       27.424       18.591      791.903      752.066      345.632        0.729        0.094      112.643       14.628        0.017      343.783       20.138      860.024
06/09/2013  04:13:00      -59.875      -62.021      -11.568       25.160       27.150       20.061      633.045      737.128      402.451        0.467        0.089       86.207        9.738        0.013      343.812       20.189      860.044
06/09/2013  04:14:00      -32.437      -44.102        5.018       27.487       22.797       18.785      755.550      519.696      352.891        0.232        0.081       54.746        9.903        0.033      343.734       20.053      860.059
06/09/2013  04:15:00      -21.702      -33.957        8.155       52.176       28.564       25.259     2722.321      815.875      638.030        0.293        0.209       40.300       19.922        0.244      343.674       19.952      860.060
06/09/2013  04:16:00      -43.615      -43.770       -1.150       42.926       34.649       24.787     1842.607     1200.546      614.417        0.374        0.183       61.791       13.048        0.045      343.651       19.912      860.061
06/09/2013  04:17:00      -50.948      -28.324       11.889       63.228       32.690       23.727     3997.770     1068.638      562.954        0.458        0.281       58.292       12.246        0.044      343.612       19.848      860.059
06/09/2013  04:18:00     -133.031      -79.364        4.028       46.515       38.855       29.220     2163.621     1509.740      853.803        1.427        0.226      154.906       29.178        0.035      343.525       19.699      860.049
06/09/2013  04:19:00     -128.741      -71.790        7.562       58.910       42.353       27.728     3470.371     1793.758      768.856        1.391        0.302      147.405       28.726        0.038      343.454       19.577      860.034
06/09/2013  04:20:00     -142.004     -102.984       -9.794       36.325       46.237       24.036     1319.511     2137.848      577.735        1.745        0.202      175.416       20.292        0.013      343.472       19.606      860.023
06/09/2013  04:21:00     -149.581     -120.502       -4.651       67.962       49.953       33.703     4618.825     2495.276     1135.859        2.258        0.412      192.081       35.220        0.034      343.459       19.584      860.020
06/09/2013  04:22:00     -123.072      -80.298        6.879       67.388       51.807       33.026     4541.099     2684.005     1090.701        1.498        0.416      146.951       33.277        0.051      343.481       19.622      860.015
06/09/2013  04:23:00     -120.294      -78.870       -0.346       42.505       43.373       26.343     1806.707     1881.252      693.936        1.254        0.219      143.844       21.996        0.023      343.559       19.756      860.002
06/09/2013  04:24:00     -100.339      -44.137        2.221       25.730       22.479       13.840      662.054      505.304      191.543        0.669        0.068      109.617       11.504        0.011      343.529       19.705      859.995
06/09/2013  04:25:00      -99.036      -35.342       -0.930       22.313       18.785       16.190      497.859      352.877      262.125        0.609        0.056      105.154       12.596        0.014      343.483       19.628      859.991
06/09/2013  04:26:00      -73.226      -24.966        1.795       43.620       25.374       15.540     1902.722      643.856      241.496        0.439        0.139       77.365       15.193        0.039      343.425       19.528      859.973
06/09/2013  04:27:00      -90.074      -40.249        3.793       28.853       28.569       18.232      832.480      816.199      332.390        0.586        0.099       98.657       15.997        0.026      343.427       19.532      859.966
06/09/2013  04:28:00      -83.486      -23.449        5.678       37.809       33.707       20.616     1429.543     1136.180      425.007        0.527        0.150       86.716       19.341        0.050      343.292       19.300      859.952
06/09/2013  04:29:00     -110.868      -13.515        2.732       43.860       33.859       25.799     1923.713     1146.403      665.581        0.811        0.187      111.689       24.542        0.048      343.200       19.144      859.933
06/09/2013  04:30:00     -115.078      -31.909       -0.673       35.786       32.911       21.069     1280.626     1083.157      443.884        0.853        0.140      119.420       18.856        0.025      343.244       19.220      859.921
06/09/2013  04:31:00     -124.022      -51.220       -8.736       21.864       29.306       19.676      478.054      858.870      387.137        0.990        0.086      134.183       12.395        0.009      343.295       19.306      859.930
06/09/2013  04:32:00     -114.085      -61.099       -9.305       40.395       29.936       20.765     1631.734      896.149      431.203        0.990        0.148      129.416       15.435        0.014      343.228       19.191      859.932
06/09/2013  04:33:00     -131.572      -23.460       -7.450       29.302       22.664       14.767      858.593      513.678      218.065        0.975        0.080      133.647       15.198        0.013      343.202       19.148      859.928
06/09/2013  04:34:00     -131.736      -37.597       -9.095       11.707       13.737        9.179      137.056      188.698       84.263        0.963        0.021      136.996        3.510        0.001      343.186       19.119      859.933
06/09/2013  04:35:00     -125.963      -27.756      -12.980       20.744       32.211       16.511      430.308     1037.541      272.616        0.927        0.087      128.984       10.436        0.007      343.181       19.112      859.918
06/09/2013  04:36:00     -138.307      -53.325       -4.983       31.321       33.659       19.858      981.004     1132.901      394.338        1.225        0.125      148.231       17.812        0.014      343.197       19.140      859.898
06/09/2013  04:37:00     -143.308      -58.442       -4.692       25.124       26.225       16.174      631.222      687.766      261.593        1.278        0.079      154.766       12.809        0.007      343.183       19.114      859.881
06/09/2013  04:38:00     -110.224      -62.428        3.620       55.315       38.066       26.269     3059.747     1449.012      690.082        1.063        0.260      126.675       26.167        0.043      343.216       19.171      859.881
06/09/2013  04:39:00      -26.403      -53.763        8.561       57.056       34.409       23.628     3255.438     1183.990      558.280        0.433        0.250       59.896       27.190        0.206      343.336       19.377      859.889
06/09/2013  04:40:00      -71.096      -99.498       -4.502       33.481       37.717       19.181     1120.953     1422.570      367.910        0.894        0.146      122.289       18.629        0.023      343.462       19.590      859.907
06/09/2013  04:41:00      -84.279      -77.085       -1.161       34.407       30.947       22.082     1183.849      957.736      487.627        0.784        0.131      114.215       18.554        0.026      343.567       19.769      859.923
06/09/2013  04:42:00     -110.236      -80.351       -4.955       65.818       29.798       21.489     4331.983      887.912      461.772        1.216        0.284      136.412       21.411        0.025      343.453       19.574      859.915
06/09/2013  04:43:00      -95.467      -65.379        9.544       46.125       37.197       26.579     2127.497     1383.594      706.456        0.885        0.211      115.708       24.494        0.045      343.319       19.346      859.905
06/09/2013  04:44:00      -98.895      -57.572       -8.765       50.006       39.280       26.260     2500.551     1542.947      689.593        0.895        0.237      114.433       14.618        0.016      343.283       19.287      859.911
06/09/2013  04:45:00      -98.501      -68.877      -13.534       39.778       25.475       24.292     1582.290      648.999      590.099        0.872        0.141      120.193       15.705        0.017      343.310       19.332      859.914
06/09/2013  04:46:00     -136.146      -89.209       -4.370       33.869       33.547       24.100     1147.083     1125.381      580.829        1.468        0.143      162.770       14.433        0.008      343.344       19.389      859.930
06/09/2013  04:47:00     -158.242      -93.583       -6.971       47.851       31.471       28.636     2289.692      990.394      819.992        1.897        0.205      183.843       24.938        0.018      343.254       19.236      859.929
06/09/2013  04:48:00     -147.588      -96.701       -0.109       56.519       40.897       30.542     3194.354     1672.569      932.810        1.847        0.290      176.447       24.716        0.020      343.232       19.198      859.920
06/09/2013  04:49:00     -130.847     -102.070       -2.841       49.482       42.756       32.303     2448.484     1828.036     1043.497        1.643        0.266      165.949       24.826        0.022      343.239       19.211      859.935
06/09/2013  04:50:00     -135.587     -113.117       -3.229       37.238       37.172       23.993     1386.670     1381.753      575.677        1.727        0.167      176.576       18.249        0.011      343.328       19.362      859.939
06/09/2013  04:51:00     -123.368      -94.215        2.284       48.643       36.418       27.531     2366.134     1326.307      757.982        1.428        0.223      155.230       26.539        0.029      343.263       19.250      859.939
06/09/2013  04:52:00     -113.816      -63.067        1.943       50.326       36.164       28.353     2532.728     1307.819      803.909        1.079        0.232      130.121       24.285        0.035      343.230       19.196      859.944
06/09/2013  04:53:00     -129.301      -86.719       -7.595       43.807       39.400       26.388     1919.065     1552.339      696.314        1.423        0.208      155.688       24.056        0.024      343.189       19.126      859.956
06/09/2013  04:54:00      -71.628      -50.718        3.305       66.254       38.229       25.683     4389.591     1461.471      659.629        0.711        0.326       87.766       17.121        0.038      343.171       19.096      859.960
06/09/2013  04:55:00      -97.511      -37.120      -14.262       44.326       32.458       28.770     1964.801     1053.530      827.692        0.747        0.192      104.337       11.053        0.011      343.291       19.299      859.961
06/09/2013  04:56:00      -74.540      -34.158        4.037       48.831       32.682       28.032     2384.460     1068.121      785.798        0.549        0.212       81.994       17.309        0.045      343.213       19.166      859.971
06/09/2013  04:57:00     -100.454      -52.467        9.417       59.602       43.485       26.622     3552.387     1890.913      708.731        0.954        0.308      113.330       22.378        0.039      343.223       19.183      859.968
06/09/2013  04:58:00     -130.651      -72.047       -2.569       50.699       41.356       28.055     2570.425     1710.352      787.079        1.367        0.253      149.199       29.450        0.039      343.143       19.048      859.961
06/09/2013  04:59:00     -131.529      -93.535       -0.093       59.527       44.251       31.377     3543.477     1958.177      984.543        1.627        0.324      161.396       30.027        0.035      343.071       18.923      859.952
06/09/2013  05:00:00     -122.172      -72.780        6.327       55.140       41.966       30.035     3040.410     1761.136      902.125        1.298        0.285      142.208       29.908        0.044      343.108       18.986      859.956
06/09/2013  05:01:00     -123.493      -51.835       -7.145       21.990       27.583       19.088      483.567      760.822      364.349        0.980        0.080      133.930       13.433        0.010      343.178       19.106      859.950
06/09/2013  05:02:00      -90.703      -55.908        1.391       36.741       26.519       17.489     1349.912      703.264      305.858        0.686        0.118      106.549       16.964        0.025      343.229       19.193      859.945
06/09/2013  05:03:00      -95.430      -36.757       -6.214       22.758       28.494       12.370      517.909      811.886      153.017        0.599        0.074      102.265        8.506        0.007      343.124       19.015      859.952
06/09/2013  05:04:00      -86.531      -57.474       -6.347       24.490       19.746       13.982      599.768      389.891      195.497        0.601        0.059      103.879        9.210        0.008      343.139       19.040      859.968
06/09/2013  05:05:00      -56.295      -47.381        2.010       37.356       28.504       15.692     1395.454      812.492      246.233        0.394        0.123       73.581       14.413        0.038      343.194       19.134      859.970
06/09/2013  05:06:00      -87.707      -69.281        4.952       46.860       34.128       24.038     2195.813     1164.693      577.847        0.823        0.197      111.769       23.172        0.043      343.161       19.078      859.963
06/09/2013  05:07:00     -121.627      -71.839       -5.080       59.129       40.961       28.398     3496.214     1677.786      806.471        1.298        0.299      141.259       27.561        0.038      343.168       19.091      859.963
06/09/2013  05:08:00      -56.994      -54.614        8.145       60.115       34.416       26.469     3613.865     1184.428      700.633        0.590        0.275       78.937       28.365        0.129      343.122       19.012      859.952
06/09/2013  05:09:00     -107.682      -74.906        1.788       43.637       30.267       21.395     1904.199      916.067      457.740        1.024        0.164      131.173       18.176        0.019      343.067       18.918      859.942
06/09/2013  05:10:00      -87.230      -44.061        7.345       47.114       35.386       19.991     2219.709     1252.167      399.630        0.674        0.194       97.726       24.076        0.061      343.041       18.874      859.936
06/09/2013  05:11:00      -85.138      -35.586       -0.731       52.168       26.384       21.856     2721.539      696.090      477.663        0.620        0.195       92.276       23.841        0.067      343.026       18.847      859.937
06/09/2013  05:12:00     -104.864      -24.059       -8.338       22.801       21.299       15.120      519.882      453.649      228.612        0.642        0.060      107.589       13.191        0.015      343.003       18.809      859.922
06/09/2013  05:13:00     -102.108       -7.928        0.716       45.599       26.566       21.816     2079.231      705.768      475.958        0.687        0.163      102.416       24.012        0.055      342.861       18.566      859.913
06/09/2013  05:14:00     -118.149      -12.706       -6.571       32.650       27.661       21.434     1066.034      765.105      459.408        0.823        0.115      118.830       20.823        0.031      342.758       18.391      859.900
06/09/2013  05:15:00     -123.101      -24.475       -5.124       31.179       33.692       21.573      972.101     1135.123      465.402        0.918        0.129      125.511       16.201        0.017      342.734       18.351      859.884
06/09/2013  05:16:00     -108.803      -62.228        1.856       44.849       29.008       20.595     2011.411      841.457      424.156        0.949        0.164      125.341       22.279        0.032      342.777       18.424      859.883
06/09/2013  05:17:00     -113.262      -49.231       -5.443       42.976       28.579       21.834     1846.959      816.766      476.716        0.921        0.157      123.499       18.259        0.022      342.831       18.516      859.887
06/09/2013  05:18:00      -90.137      -32.684        6.186       64.279       34.604       20.222     4131.852     1197.471      408.916        0.748        0.287       95.880       29.138        0.092      342.814       18.486      859.886
06/09/2013  05:19:00     -117.907      -35.421        1.641       20.292       18.390       14.910      411.770      338.201      222.296        0.807        0.049      123.113       10.639        0.007      342.756       18.388      859.893
06/09/2013  05:20:00      -58.976      -57.931       -1.655       32.014       25.382       19.731     1024.914      644.238      389.305        0.445        0.103       82.669       14.106        0.029      342.816       18.490      859.911
06/09/2013  05:21:00      -65.809      -54.288        1.326       38.248       30.660       20.012     1462.913      940.053      400.482        0.504        0.140       85.311       17.716        0.043      342.901       18.635      859.923
06/09/2013  05:22:00      -85.057      -62.015      -14.029       52.659       30.060       23.206     2772.947      903.588      538.528        0.775        0.211      105.265       22.413        0.045      342.849       18.545      859.922
06/09/2013  05:23:00      -89.273      -56.598        1.435       47.757       31.924       21.449     2280.718     1019.149      460.060        0.747        0.188      105.702       19.962        0.036      342.884       18.606      859.927
06/09/2013  05:24:00     -122.685      -67.344       -5.276       22.025       21.804       12.784      485.107      475.402      163.432        1.037        0.056      139.953       10.854        0.006      342.848       18.545      859.908
06/09/2013  05:25:00     -118.832      -48.635       -8.044       36.037       24.832       18.119     1298.650      616.615      328.289        0.940        0.112      128.399       21.840        0.029      342.858       18.561      859.892
06/09/2013  05:26:00     -142.947      -35.370       -4.176       30.218       26.183       16.272      913.100      685.552      264.774        1.178        0.093      147.258       12.996        0.008      342.842       18.535      859.883
06/09/2013  05:27:00      -91.187      -50.204       -3.436       36.813       24.643       19.192     1355.161      607.272      368.320        0.659        0.117      104.093       15.228        0.021      342.815       18.490      859.888
06/09/2013  05:28:00      -11.766      -22.393        9.393       35.000       25.627       16.876     1224.967      656.730      284.790        0.145        0.108       25.296        9.059        0.128      342.880       18.599      859.888
06/09/2013  05:29:00      -47.033      -50.969        2.293       34.511       23.413       16.345     1190.981      548.147      267.152        0.341        0.100       69.354       14.946        0.046      342.909       18.647      859.883
06/09/2013  05:30:00      -23.061      -22.679       16.258       33.353       16.982       15.010     1112.432      288.383      225.311        0.147        0.081       32.344       16.848        0.271      342.868       18.577      859.879
06/09/2013  05:31:00      -31.799      -38.073        1.800       34.503       21.218       15.142     1190.436      450.192      229.283        0.217        0.093       49.605       12.920        0.068      342.992       18.790      859.890
06/09/2013  05:32:00      -51.021      -50.761        2.226       22.626       19.289       13.974      511.926      372.067      195.263        0.313        0.054       71.971       11.818        0.027      343.036       18.866      859.898
06/09/2013  05:33:00      -52.320      -46.146       -3.866       26.032       20.640       14.403      677.657      426.021      207.457        0.310        0.066       69.763       11.110        0.025      343.060       18.907      859.893
06/09/2013  05:34:00      -52.382      -46.126        0.765       30.197       26.354       20.003      911.854      694.529      400.134        0.344        0.100       69.796       18.568        0.071      342.922       18.670      859.888
06/09/2013  05:35:00      -73.054      -50.046        1.158       36.961       28.151       16.999     1366.147      792.472      288.973        0.514        0.122       88.552       12.540        0.020      342.920       18.667      859.885
06/09/2013  05:36:00      -46.814      -40.981        6.233       28.084       30.027       18.723      788.735      901.624      350.537        0.297        0.102       62.218       15.972        0.066      342.876       18.591      859.902
06/09/2013  05:37:00      -43.183      -49.829       -6.067       22.636       16.916       12.412      512.405      286.162      154.069        0.267        0.048       65.937        9.919        0.023      343.035       18.863      859.902
06/09/2013  05:38:00      -35.794      -40.357        5.635       38.211       18.784       21.524     1460.097      352.821      463.262        0.261        0.114       53.943       19.089        0.125      342.912       18.652      859.900
06/09/2013  05:39:00      -44.767      -46.741        7.136       37.053       33.601       22.803     1372.890     1129.035      519.963        0.363        0.151       64.721       22.033        0.116      342.926       18.676      859.893
06/09/2013  05:40:00      -67.837      -60.108       -2.245       45.366       25.413       17.781     2058.085      645.843      316.165        0.562        0.151       90.636       11.352        0.016      342.949       18.716      859.896
06/09/2013  05:41:00      -64.955      -49.560        9.771       40.688       27.574       19.599     1655.550      760.332      384.130        0.478        0.140       81.703       23.181        0.080      342.937       18.694      859.899
06/09/2013  05:42:00      -34.011      -43.947       14.836       50.410       33.693       27.124     2541.120     1135.234      735.714        0.386        0.221       55.570       32.258        0.337      342.940       18.702      859.904
06/09/2013  05:43:00      -94.253      -70.022       10.814       61.489       40.551       32.950     3780.942     1644.402     1085.704        1.021        0.326      117.417       35.980        0.094      342.895       18.624      859.917
06/09/2013  05:44:00     -137.047      -80.286      -11.845       53.877       38.533       27.273     2902.752     1484.757      743.802        1.525        0.257      158.832       26.472        0.028      342.890       18.615      859.922
06/09/2013  05:45:00     -124.124      -75.047       -3.721       54.370       33.535       22.062     2956.113     1124.623      486.751        1.281        0.228      145.048       28.276        0.038      342.897       18.626      859.935
06/09/2013  05:46:00      -99.384      -78.110       -3.248       50.246       40.689       26.248     2524.620     1655.628      688.946        1.043        0.243      126.406       22.619        0.032      342.941       18.703      859.940
06/09/2013  05:47:00     -103.305      -91.520       -2.819       36.699       40.818       24.107     1346.796     1666.128      581.137        1.132        0.180      138.014       20.505        0.022      342.889       18.614      859.945
06/09/2013  05:48:00      -95.249      -75.069       -2.974       40.513       30.017       20.249     1641.343      901.036      410.019        0.883        0.148      121.276       13.006        0.012      342.929       18.682      859.953
06/09/2013  05:49:00      -78.296      -48.662        1.865       27.918       23.838       16.239      779.398      568.264      263.689        0.506        0.081       92.186       13.713        0.022      342.922       18.671      859.959
06/09/2013  05:50:00      -65.846      -43.858        4.084       32.408       34.472       20.289     1050.301     1188.321      411.658        0.446        0.133       79.115       17.984        0.052      342.933       18.690      859.958
06/09/2013  05:51:00      -62.695      -22.590        2.979       26.080       27.949       19.825      680.151      781.130      393.014        0.315        0.093       66.641       15.023        0.051      342.914       18.658      859.955
06/09/2013  05:52:00      -68.443      -32.968        4.052       35.776       23.211       16.965     1279.911      538.733      287.824        0.395        0.105       75.969       18.621        0.060      342.848       18.545      859.956
06/09/2013  05:53:00      -78.769      -22.326        2.425       26.737       18.534       13.127      714.892      343.507      172.314        0.397        0.062       81.872       12.370        0.023      342.802       18.466      859.956
06/09/2013  05:54:00      -98.432      -19.673       -7.191       29.999       17.525       18.270      899.963      307.122      333.791        0.583        0.077      100.379       18.716        0.035      342.774       18.418      859.953
06/09/2013  05:55:00     -133.502      -21.478      -12.025       32.040       20.429       15.854     1026.584      417.328      251.362        1.006        0.085      135.219       15.494        0.013      342.714       18.318      859.950
06/09/2013  05:56:00      -91.971      -17.996       -3.150       43.545       25.032       18.967     1896.128      626.621      359.738        0.584        0.144       93.715       18.161        0.038      342.707       18.305      859.944
06/09/2013  05:57:00      -82.727      -35.878       -0.443       35.000       29.964       21.049     1224.997      897.833      443.075        0.535        0.128       90.172       22.229        0.061      342.706       18.303      859.948
06/09/2013  05:58:00     -107.320      -25.115       -6.484       38.800       21.955       16.483     1505.419      482.040      271.693        0.722        0.113      110.220       18.274        0.027      342.715       18.319      859.955
06/09/2013  05:59:00     -107.115      -30.009       -2.563       42.241       27.375       18.428     1784.271      749.403      339.577        0.763        0.144      111.239       20.539        0.034      342.745       18.370      859.956
06/09/2013  06:00:00      -95.059      -26.991        2.523       41.604       32.428       21.340     1730.917     1051.593      455.386        0.650        0.162       98.816       20.532        0.043      342.760       18.393      859.956
06/09/2013  06:01:00      -97.976      -28.887       -2.920       24.560       26.922       14.487      603.193      724.771      209.871        0.599        0.077      102.146       12.095        0.014      342.775       18.422      859.954
06/09/2013  06:02:00     -115.444      -12.349      -11.567       22.411       17.291       14.858      502.245      298.982      220.747        0.732        0.051      116.103       13.340        0.013      342.726       18.337      859.960
06/09/2013  06:03:00     -104.519      -25.640       -2.108       29.152       20.689       18.293      849.836      428.022      334.627        0.660        0.081      107.618       16.029        0.022      342.713       18.316      859.967
06/09/2013  06:04:00     -109.141      -15.986       -5.251       33.895       27.012       18.609     1148.853      729.633      346.310        0.721        0.111      110.305       19.045        0.030      342.726       18.337      859.972
06/09/2013  06:05:00     -126.332      -11.575       -7.283       28.307       19.209       20.006      801.262      368.969      400.227        0.886        0.079      126.862       16.457        0.017      342.663       18.228      859.976
06/09/2013  06:06:00     -139.388      -10.805      -15.247       43.277       21.612       18.597     1872.865      467.072      345.831        1.123        0.134      139.806       20.950        0.022      342.639       18.190      859.983
06/09/2013  06:07:00     -128.093      -19.048      -11.894       44.434       28.823       21.730     1974.354      830.737      472.202        1.009        0.164      129.502       22.274        0.030      342.703       18.296      859.988
06/09/2013  06:08:00     -115.465       -7.006       -9.110       33.539       27.585       19.998     1124.844      760.908      399.908        0.787        0.114      115.678       18.044        0.024      342.735       18.353      859.992
06/09/2013  06:09:00      -88.090       10.560       -5.353       36.849       28.417       19.267     1357.835      807.526      371.222        0.522        0.127       88.721       16.814        0.036      342.753       18.384      860.002
06/09/2013  06:10:00      -79.600       -9.125       -1.259       32.472       21.961       17.483     1054.442      482.289      305.662        0.413        0.092       80.122       17.798        0.049      342.855       18.558      860.005
06/09/2013  06:11:00     -106.711      -11.162       -6.643       25.709       14.942       13.524      660.948      223.259      182.908        0.631        0.053      107.293       11.678        0.012      342.939       18.700      859.992
06/09/2013  06:12:00     -108.539      -16.159       -1.370       30.592       23.752       17.920      935.868      564.173      321.140        0.693        0.091      109.736       15.239        0.019      342.897       18.627      859.985
06/09/2013  06:13:00      -75.177       -9.829       -0.658       47.114       32.214       22.740     2219.683     1037.713      517.090        0.476        0.189       75.817       23.998        0.100      342.883       18.604      859.983
06/09/2013  06:14:00     -107.309       19.225       -5.597       36.693       37.746       24.002     1346.389     1424.732      576.082        0.763        0.167      109.018       19.602        0.032      342.932       18.688      859.983
06/09/2013  06:15:00      -94.394       15.889        0.750       37.073       24.295       25.244     1374.436      590.269      637.272        0.588        0.130       95.722       21.868        0.052      342.989       18.785      859.985
06/09/2013  06:16:00      -93.976       -2.748       -4.560       27.719       37.178       19.105      768.332     1382.181      365.017        0.569        0.126       94.016       14.380        0.023      342.993       18.792      859.975
06/09/2013  06:17:00      -93.328      -18.115       -5.471       38.013       27.334       18.568     1445.019      747.138      344.773        0.580        0.127       95.070       13.457        0.020      343.046       18.881      859.987
06/09/2013  06:18:00      -56.849        2.603        6.675       30.060       25.177       20.565      903.602      633.858      422.906        0.262        0.098       56.909       18.549        0.106      343.079       18.939      860.003
06/09/2013  06:19:00      -59.932      -21.161        4.813       21.644       22.619       13.367      468.480      511.629      178.671        0.261        0.058       63.558        6.900        0.012      343.167       19.089      860.011
06/09/2013  06:20:00      -33.851       -9.975        3.287       26.485       15.367       10.152      701.468      236.135      103.064        0.115        0.052       35.290       10.322        0.086      343.286       19.290      860.019
06/09/2013  06:21:00      -52.737      -26.546        5.036       24.916       17.100       12.920      620.831      292.416      166.931        0.230        0.054       59.041       15.041        0.065      343.371       19.434      860.023
06/09/2013  06:22:00      -43.439      -28.565        2.192       19.954       16.900       11.712      398.164      285.612      137.163        0.176        0.041       51.989        9.851        0.036      343.422       19.523      860.019
06/09/2013  06:23:00      -43.397      -24.491       -1.689       30.883       14.637       12.851      953.775      214.240      165.157        0.191        0.067       49.830        8.891        0.032      343.432       19.541      860.022
06/09/2013  06:24:00      -22.217      -21.627        2.481       21.316       15.579       13.356      454.378      242.698      178.394        0.092        0.044       31.005       12.899        0.173      343.511       19.673      860.020
06/09/2013  06:25:00      -32.671      -21.548        0.241       23.002       16.528       15.505      529.110      273.191      240.395        0.129        0.052       39.137       15.327        0.153      343.525       19.698      860.025
06/09/2013  06:26:00      -20.655      -12.944        4.864       18.150        9.409        8.962      329.437       88.530       80.313        0.056        0.025       24.375        9.946        0.167      343.529       19.706      860.019
06/09/2013  06:27:00      -39.248      -15.622       -1.756       11.916        9.260        5.706      141.980       85.754       32.557        0.102        0.013       42.242        4.919        0.014      343.515       19.680      860.010
06/09/2013  06:28:00      -49.543       -6.346       -4.465        9.846       14.246        9.576       96.953      202.953       91.706        0.145        0.020       49.948        8.639        0.030      343.483       19.628      860.012
06/09/2013  06:29:00      -29.636      -10.385       -2.075       15.820       10.771        7.637      250.264      116.010       58.328        0.071        0.021       31.402        5.929        0.036      343.491       19.641      860.009
06/09/2013  06:30:00       -0.708      -31.395       -2.451        6.714        9.347        6.150       45.083       87.363       37.825        0.058        0.009       31.403        5.383        0.029      343.614       19.851      860.019
06/09/2013  06:31:00       31.129      -22.468       -2.573       20.850       16.590       17.388      434.724      275.226      302.348        0.125        0.051       38.390       11.439        0.089      343.501       19.656      860.019
06/09/2013  06:32:00      -12.623      -11.100        8.347       19.826       12.207       16.739      393.065      149.002      280.192        0.059        0.041       16.809       13.337        0.629      343.925       20.380      860.019
06/09/2013  06:33:00      -65.092      -23.284       -4.198       11.929        7.895        6.712      142.303       62.339       45.049        0.252        0.012       69.131        3.445        0.002      343.685       19.972      860.006
06/09/2013  06:34:00      -50.856      -34.899       -0.240       30.844       15.407       12.487      951.346      237.386      155.918        0.257        0.067       61.679       12.044        0.038      343.659       19.926      860.008
06/09/2013  06:35:00      -25.744      -19.977        8.604       24.841       20.485       16.882      617.062      419.619      284.998        0.123        0.066       32.585       15.017        0.212      343.790       20.149      859.996
06/09/2013  06:36:00      -56.227      -49.522        3.006       26.799       14.775       13.409      718.167      218.293      179.801        0.337        0.056       74.926       12.555        0.028      343.545       19.731      860.000
06/09/2013  06:37:00      -49.898      -35.804       -2.340       34.950       18.579       13.497     1221.488      345.179      182.165        0.276        0.087       61.414       11.774        0.037      343.634       19.883      859.995
06/09/2013  06:38:00      -43.440      -28.581        4.246       28.480       15.668       11.818      811.112      245.480      139.667        0.196        0.060       51.999       13.456        0.067      343.618       19.856      859.998
06/09/2013  06:39:00      -19.181      -10.906        5.616       21.225       10.925       12.230      450.482      119.356      149.576        0.062        0.036       22.065        9.636        0.191      343.887       20.316      859.998
06/09/2013  06:40:00        1.240       -8.491       18.045       10.831       10.999       10.622      117.300      120.976      112.825        0.038        0.018        8.581        8.686        1.024      344.287       20.999      859.998
06/09/2013  06:41:00      -10.848       -5.732        9.557        9.775        7.524       10.980       95.560       56.617      120.552        0.026        0.014       12.270        7.850        0.409      344.224       20.891      859.996
06/09/2013  06:42:00      -25.797       -5.530       -2.370       12.703        7.631        4.921      161.369       58.231       24.212        0.047        0.012       26.384        5.300        0.040      343.816       20.194      860.004
06/09/2013  06:43:00      -21.744      -11.516        3.760       12.409       13.755       12.773      153.992      189.200      163.143        0.056        0.025       24.605       10.960        0.198      343.895       20.328      860.014
06/09/2013  06:44:00      -12.468      -22.546        0.408       16.917       15.045       10.105      286.191      226.349      102.110        0.064        0.031       25.764        9.086        0.124      343.964       20.447      860.021
06/09/2013  06:45:00      -42.505      -21.443       -2.726       16.762       11.483       10.456      280.979      131.870      109.332        0.140        0.026       47.608        5.530        0.013      343.866       20.281      860.024
06/09/2013  06:46:00      -49.795      -25.721       -2.029       10.962        7.335        9.047      120.164       53.806       81.841        0.170        0.013       56.045        2.964        0.003      343.863       20.273      860.006
06/09/2013  06:47:00      -49.467      -36.060        3.086       15.913       12.663       11.462      253.239      160.348      131.370        0.215        0.027       61.215        5.985        0.010      343.803       20.174      860.007
06/09/2013  06:48:00      -68.227      -40.882      -12.919       20.668       12.561       11.379      427.185      157.774      129.472        0.360        0.036       79.538        5.074        0.004      343.779       20.131      860.014
06/09/2013  06:49:00      -36.939      -27.872       -3.697       30.217       14.749       16.043      913.045      217.537      257.392        0.177        0.069       46.274       17.378        0.141      343.852       20.256      860.008
06/09/2013  06:50:00       -9.157      -20.906       13.407       25.589       21.082       15.470      654.807      444.450      239.322        0.102        0.067       22.823       10.319        0.204      344.002       20.512      860.012
06/09/2013  06:51:00      -14.453      -40.942        2.580       23.274       27.853       17.084      541.674      775.799      291.879        0.175        0.080       43.419       14.292        0.108      343.851       20.254      860.024
06/09/2013  06:52:00      -21.186      -29.461        2.205       16.345       36.839       12.848      267.147     1357.121      165.076        0.156        0.089       36.287       13.564        0.140      344.139       20.746      860.024
06/09/2013  06:53:00      -46.407      -25.310       -4.272       14.493       24.974       13.263      210.035      623.699      175.900        0.191        0.050       52.860        7.935        0.023      343.870       20.286      860.019
06/09/2013  06:54:00      -60.878      -22.083       -1.499       34.322       20.050       19.901     1178.006      402.008      396.043        0.309        0.099       64.759       18.229        0.079      343.859       20.268      860.023
06/09/2013  06:55:00      -18.498      -29.102        1.945       27.354       26.818       20.446      748.262      719.208      418.036        0.154        0.094       34.483       18.681        0.293      343.970       20.457      860.027
06/09/2013  06:56:00      -48.654      -51.730       -1.660       36.995       22.546       16.930     1368.603      508.315      286.641        0.360        0.108       71.016       11.964        0.028      343.858       20.267      860.020
06/09/2013  06:57:00      -49.635      -47.485        3.025       35.841       28.074       19.140     1284.564      788.164      366.359        0.358        0.122       68.691       22.676        0.109      343.980       20.476      860.017
06/09/2013  06:58:00      -52.250      -44.304        2.464       31.268       27.883       17.457      977.713      777.456      304.730        0.338        0.103       68.505       15.792        0.053      343.882       20.306      860.018
06/09/2013  06:59:00      -58.516      -37.984       -2.555       16.798       20.337       13.999      282.179      413.598      195.984        0.288        0.045       69.763        6.284        0.008      343.884       20.310      860.012
06/09/2013  07:00:00      -48.166      -25.206       -1.449       19.896       18.744       17.764      395.850      351.352      315.560        0.201        0.053       54.363       14.202        0.068      343.941       20.408      860.011
06/09/2013  07:01:00      -41.471      -41.451        1.005       26.511       23.256       11.742      702.856      540.824      137.870        0.241        0.069       58.635       13.442        0.053      344.013       20.531      860.015
06/09/2013  07:02:00      -70.371      -71.078       -9.481       22.854       19.182       14.411      522.302      367.953      207.683        0.560        0.055      100.020       10.929        0.012      343.980       20.474      860.021
06/09/2013  07:03:00      -68.031      -95.469       -3.035       31.054       29.832       18.128      964.360      889.960      328.619        0.797        0.109      117.228       19.141        0.027      343.968       20.453      860.029
06/09/2013  07:04:00      -71.378      -97.742       -7.352       17.733       29.159       12.340      314.460      850.245      152.271        0.801        0.066      121.030        5.368        0.002      343.955       20.431      860.038
06/09/2013  07:05:00      -36.441      -72.407      -11.154       32.526       24.289       17.209     1057.947      589.946      296.153        0.432        0.097       81.060        9.245        0.013      344.062       20.614      860.050
06/09/2013  07:06:00      -33.264      -52.675        9.358       34.259       40.569       24.691     1173.683     1645.815      609.638        0.370        0.171       62.299       22.956        0.136      344.084       20.651      860.065
06/09/2013  07:07:00      -24.892      -22.866        8.022       29.391       34.325       24.729      863.844     1178.173      611.528        0.193        0.133       33.800       21.977        0.423      344.395       21.185      860.068
06/09/2013  07:08:00      -44.463      -30.481       -2.121       26.461       25.436       16.572      700.199      646.977      274.615        0.227        0.081       53.908       14.692        0.074      344.111       20.698      860.058
06/09/2013  07:09:00      -11.140      -14.015       15.344       16.698       27.023       12.453      278.829      730.243      155.089        0.086        0.058       17.903        6.400        0.128      344.559       21.464      860.061
06/09/2013  07:10:00      -23.544      -20.185       10.686       18.713       24.913       19.110      350.161      620.640      365.185        0.121        0.067       31.012       17.833        0.331      344.557       21.461      860.067
06/09/2013  07:11:00      -17.222       -9.897        5.573       11.382       12.056        8.395      129.545      145.342       70.472        0.039        0.017       19.863        5.722        0.083      344.402       21.194      860.068
06/09/2013  07:12:00        0.185       -8.295       16.097       13.829       12.885       20.234      191.231      166.022      409.395        0.055        0.038        8.297       13.148        2.511      345.111       22.409      860.067
06/09/2013  07:13:00      -26.491       16.939       -1.062       13.828       14.720       16.675      191.224      216.669      278.063        0.084        0.034       31.443        8.601        0.075      344.391       21.176      860.071
06/09/2013  07:14:00      -26.381        2.811        3.017       24.342       14.638       14.977      592.514      214.264      224.316        0.087        0.052       26.530       14.209        0.287      344.595       21.526      860.068
06/09/2013  07:15:00      -19.060       14.409        3.961       24.222       23.514       24.958      586.697      552.911      622.909        0.117        0.088       23.894       14.002        0.343      344.737       21.769      860.057
06/09/2013  07:16:00       -3.212        1.789        4.046       30.285       15.473       16.418      917.174      239.416      269.540        0.073        0.071        3.677       10.901        8.788      344.522       21.401      860.046
06/09/2013  07:17:00      -38.436        0.451        3.242       20.958       12.693       11.016      439.217      161.108      121.358        0.110        0.036       38.438        8.494        0.049      344.454       21.284      860.041
06/09/2013  07:18:00      -36.689      -23.863        4.509       23.227       20.623       11.544      539.511      425.303      133.275        0.152        0.055       43.767       11.828        0.073      344.478       21.326      860.044
06/09/2013  07:19:00      -70.811      -51.018       -0.760        9.937       15.716        8.108       98.734      246.997       65.732        0.401        0.021       87.276        5.079        0.003      344.249       20.933      860.047
06/09/2013  07:20:00      -41.460      -65.615        0.156       18.989       10.499       10.115      360.595      110.232      102.318        0.330        0.029       77.616        6.103        0.006      344.278       20.983      860.058
06/09/2013  07:21:00      -23.531      -40.486        5.288       27.152       29.172       13.202      737.253      851.033      174.297        0.199        0.088       46.828        8.161        0.030      344.540       21.431      860.069
06/09/2013  07:22:00      -27.393      -11.114       16.885       29.401       17.888       14.010      864.411      319.966      196.282        0.127        0.069       29.562       13.104        0.196      344.759       21.806      860.069
06/09/2013  07:23:00      -14.753        0.637       11.869       19.941       14.712       15.923      397.655      216.444      253.557        0.061        0.043       14.767        9.213        0.389      345.069       22.337      860.062
06/09/2013  07:24:00      -27.956       -1.082       13.466       19.638       13.173       14.496      385.646      173.520      210.122        0.087        0.038       27.977       12.265        0.192      344.769       21.823      860.062
06/09/2013  07:25:00      -25.787      -20.047        0.050       18.856       18.043       14.103      355.530      325.550      198.895        0.097        0.044       32.662        6.919        0.045      344.624       21.575      860.063
06/09/2013  07:26:00      -29.004      -38.890        6.920       20.734       23.380       12.159      429.909      546.609      147.833        0.176        0.056       48.515       10.395        0.046      344.619       21.565      860.068
06/09/2013  07:27:00      -26.865      -64.082        3.413        8.533        8.563        9.721       72.817       73.318       94.496        0.254        0.012       69.486        5.088        0.005      344.338       21.090      860.084
06/09/2013  07:28:00      -31.234      -55.957        2.504       15.382       13.526       13.613      236.610      182.939      185.305        0.236        0.030       64.084       13.008        0.041      344.368       21.140      860.098
06/09/2013  07:29:00      -38.218      -36.149        1.382       13.481       23.060       11.375      181.741      531.745      129.391        0.181        0.042       52.605       10.646        0.041      344.506       21.374      860.107
06/09/2013  07:30:00      -26.885      -25.039        3.726       21.243       30.937       16.325      451.286      957.116      266.505        0.152        0.084       36.739       15.022        0.167      344.633       21.592      860.117
06/09/2013  07:31:00      -37.429      -41.549       -1.555       34.387       21.668       14.422     1182.474      469.502      207.999        0.249        0.093       55.922       17.284        0.096      344.642       21.606      860.115
06/09/2013  07:32:00      -53.610      -16.507        5.843       32.269       22.656       19.232     1041.284      513.279      369.862        0.255        0.096       56.093       20.297        0.131      344.834       21.934      860.110
06/09/2013  07:33:00      -58.621      -34.554        0.972       22.897       23.331       14.570      524.288      544.350      212.286        0.296        0.064       68.048       13.512        0.039      344.563       21.472      860.102
06/09/2013  07:34:00      -42.121      -60.877        3.720       25.683       22.769       16.011      659.622      518.429      256.350        0.346        0.072       74.028       15.122        0.042      344.643       21.607      860.102
06/09/2013  07:35:00      -44.428      -49.362       -2.995        7.819       13.670        8.209       61.132      186.867       67.384        0.237        0.016       66.411        6.523        0.010      344.523       21.402      860.088
06/09/2013  07:36:00      -25.535      -26.265        3.075       18.017       22.846       15.430      324.603      521.940      238.087        0.122        0.054       36.632       13.554        0.137      344.864       21.986      860.075
06/09/2013  07:37:00      -58.586      -18.182       -6.644       15.640       17.924       11.680      244.596      321.284      136.432        0.225        0.035       61.342        9.119        0.022      344.616       21.561      860.058
06/09/2013  07:38:00       -0.658       -6.317       18.876       13.015       10.072       19.877      169.383      101.447      395.110        0.053        0.033        6.351        9.869        2.414      345.577       23.208      860.034
06/09/2013  07:39:00       -2.765       -1.102       27.475       18.592       17.297       13.655      345.644      299.172      186.465        0.080        0.042        2.976        7.922        7.087      345.575       23.203      860.022
06/09/2013  07:40:00      -13.603        9.795       12.912       14.218       21.343       18.552      202.164      455.507      344.184        0.072        0.050       16.763       15.411        0.845      345.551       23.164      860.004
06/09/2013  07:41:00      -51.240       37.238       -3.576       16.010       17.820       14.531      256.311      317.556      211.161        0.240        0.039       63.342       10.853        0.029      344.819       21.908      859.996
06/09/2013  07:42:00      -23.278        7.024        9.931       15.048       12.626       15.697      226.444      159.427      246.392        0.066        0.032       24.314       10.981        0.204      345.290       22.716      859.991
06/09/2013  07:43:00       40.217       -3.783       25.244       38.343       23.912       25.830     1470.220      571.788      667.165        0.249        0.135       40.395       15.825        0.153      344.451       21.279      859.982
06/09/2013  07:44:00       37.688        1.737       12.730       25.157       19.575       17.408      632.892      383.168      303.051        0.145        0.066       37.728        7.420        0.039      344.479       21.328      859.971
06/09/2013  07:45:00       47.860        3.611       22.808       20.852       20.106       25.679      434.793      404.260      659.408        0.216        0.075       47.996        9.049        0.036      344.437       21.255      859.967
06/09/2013  07:46:00       42.212       21.500       12.297       18.206       14.422       22.859      331.470      208.002      522.539        0.173        0.053       47.372       13.525        0.082      344.500       21.362      859.951
06/09/2013  07:47:00        6.615        4.483       28.058       15.701       19.755       13.933      246.506      390.247      194.126        0.084        0.042        7.991        7.711        0.931      345.496       23.069      859.930
06/09/2013  07:48:00       16.322        2.152       36.203       21.752       12.772       11.854      473.135      163.127      140.510        0.118        0.039       16.463        7.337        0.199      345.459       23.007      859.918
06/09/2013  07:49:00       15.703       24.587       17.080       19.780       20.311       19.559      391.251      412.546      382.571        0.116        0.059       29.174       12.631        0.187      344.634       21.592      859.906
06/09/2013  07:50:00       64.020       15.980       21.034       22.966       22.883       18.283      527.418      523.624      334.277        0.309        0.069       65.984       10.990        0.028      344.828       21.924      859.895
06/09/2013  07:51:00       48.761       32.585       16.916       26.902       33.595       24.968      723.726     1128.599      623.424        0.310        0.124       58.647       19.750        0.113      344.845       21.953      859.889
06/09/2013  07:52:00       57.170       26.650       17.191       35.783       28.386       30.679     1280.411      805.745      941.231        0.365        0.151       63.077       19.327        0.094      344.917       22.078      859.883
06/09/2013  07:53:00       41.559       20.322        5.136       15.358       20.875       19.289      235.865      435.749      372.052        0.160        0.052       46.261        9.515        0.042      344.835       21.936      859.872
06/09/2013  07:54:00       25.313       13.639       28.330       29.878       22.974       23.107      892.683      527.822      533.954        0.179        0.098       28.754       10.423        0.131      344.726       21.750      859.867
06/09/2013  07:55:00       46.166       -0.710        5.339       21.489       28.486       21.844      461.797      811.436      477.168        0.195        0.088       46.171       15.526        0.113      344.634       21.592      859.863
06/09/2013  07:56:00        9.128       13.910       21.496       19.277       20.931       14.469      371.607      438.121      209.354        0.088        0.051       16.637       10.719        0.415      345.054       22.311      859.854
06/09/2013  07:57:00        9.388      -43.402        6.652       25.100       26.689       29.080      630.018      712.287      845.659        0.210        0.109       44.406       16.432        0.137      345.104       22.396      859.852
06/09/2013  07:58:00       36.758        7.082        4.566       15.480       32.762       24.541      239.643     1073.328      602.256        0.167        0.096       37.434        9.676        0.067      344.931       22.099      859.853
06/09/2013  07:59:00        4.811      -19.706        0.968       15.172       22.309       17.348      230.174      497.711      300.943        0.072        0.051       20.285        8.380        0.171      345.128       22.437      859.835
06/09/2013  08:00:00       29.896        4.168       17.770       11.548       21.263       20.759      133.358      452.127      430.925        0.112        0.051       30.185       12.155        0.162      345.001       22.220      859.836
06/09/2013  08:01:00       38.907      -20.820        5.415       26.072       28.255       23.376      679.730      798.365      546.450        0.200        0.101       44.127       19.748        0.200      344.737       21.767      859.824
06/09/2013  08:02:00       39.027      -19.324       16.915       27.184       34.584       28.648      738.961     1196.056      820.733        0.247        0.138       43.549       11.340        0.068      344.854       21.969      859.821
06/09/2013  08:03:00       21.145        2.739       16.675       23.726       28.397       22.823      562.907      806.379      520.871        0.131        0.095       21.321       19.674        0.851      345.019       22.250      859.819
06/09/2013  08:04:00       14.608      -22.621       20.033       39.594       25.797       18.628     1567.701      665.464      347.006        0.185        0.129       26.927        6.858        0.065      345.223       22.602      859.806
06/09/2013  08:05:00       13.014        4.267       16.516       21.128       21.238       18.176      446.405      451.060      330.372        0.084        0.061       13.696        3.947        0.083      345.315       22.759      859.800
06/09/2013  08:06:00       12.681       11.961       20.045       19.745       27.169       18.330      389.851      738.133      335.992        0.108        0.073       17.432       12.031        0.476      345.653       23.337      859.787
06/09/2013  08:07:00        2.213       20.602       38.575       12.705       17.001       10.145      161.414      289.034      102.931        0.124        0.028       20.721        8.825        0.181      346.256       24.374      859.782
06/09/2013  08:08:00        5.074       36.585       54.130       25.475       29.440       26.042      648.973      866.714      678.210        0.324        0.110       36.935       21.107        0.327      346.180       24.242      859.784
06/09/2013  08:09:00       16.465       26.055       28.323       21.719       24.360       16.371      471.719      593.408      268.003        0.154        0.067       30.822       14.134        0.210      346.126       24.150      859.795
06/09/2013  08:10:00        2.370       32.784       38.180       18.955       23.810       18.061      359.279      566.913      326.214        0.190        0.063       32.870       12.142        0.136      346.437       24.684      859.813
06/09/2013  08:11:00       -6.242       -2.592       46.799       22.089       45.011       27.325      487.944     2026.022      746.673        0.275        0.163        6.759       25.553       14.294      346.518       24.823      859.830
06/09/2013  08:12:00       32.261        1.423       42.948       29.295       52.488       39.924      858.170     2754.968     1593.939        0.405        0.260       32.292       36.749        1.295      346.326       24.493      859.849
06/09/2013  08:13:00       17.660       23.570       67.500       32.172       46.862       24.946     1035.049     2196.082      622.283        0.464        0.193       29.452       21.131        0.515      346.406       24.631      859.874
06/09/2013  08:14:00        3.790       50.222       90.502       37.010       40.059       21.180     1369.718     1604.740      448.579        0.707        0.171       50.364       16.121        0.102      346.292       24.436      859.897
06/09/2013  08:15:00       54.858       47.115       21.981       50.402       45.220       41.500     2540.395     2044.881     1722.222        0.601        0.315       72.313       33.403        0.213      345.647       23.326      859.896
06/09/2013  08:16:00       10.097      -14.941       41.874       25.883       36.399       21.085      669.920     1324.902      444.561        0.226        0.122       18.033        3.855        0.046      346.513       24.816      859.903
06/09/2013  08:17:00       15.066      -15.719       31.771       28.308       42.181       32.451      801.345     1779.241     1053.079        0.256        0.182       21.773       17.684        0.660      346.503       24.797      859.896
06/09/2013  08:18:00       22.632      -16.002       31.473       37.042       58.779       32.743     1372.084     3454.945     1072.110        0.383        0.295       27.718       37.187        1.800      346.340       24.517      859.876
06/09/2013  08:19:00       75.333       55.826       38.824       61.387       45.742       24.774     3768.404     2092.305      613.764        0.839        0.324       93.764       20.523        0.048      345.906       23.771      859.863
06/09/2013  08:20:00       34.125       41.356       46.210       34.461       26.988       23.941     1187.586      728.356      573.184        0.375        0.124       53.618       14.240        0.071      346.362       24.555      859.845
06/09/2013  08:21:00       30.622       31.743        8.467       37.234       39.015       30.051     1386.353     1522.152      903.071        0.291        0.191       44.106       12.799        0.084      346.365       24.561      859.835
06/09/2013  08:22:00       15.403      -30.705       20.085       19.736       27.652       27.921      389.520      764.636      779.568        0.176        0.097       34.352       14.692        0.183      346.263       24.386      859.829
06/09/2013  08:23:00      -12.814       -1.032       18.063       16.039       25.665       19.040      257.243      658.710      362.537        0.088        0.064       12.855       15.981        1.545      346.674       25.095      859.809
06/09/2013  08:24:00        5.571        6.195       -2.575       25.392       26.239       21.321      644.768      688.478      454.571        0.093        0.089        8.332       20.837        6.255      346.427       24.668      859.804
06/09/2013  08:25:00       -9.932       10.211       23.709       15.374       14.832       13.628      236.365      219.989      185.732        0.070        0.032       14.244        3.010        0.045      346.908       25.495      859.804
06/09/2013  08:26:00       -0.139       27.305       29.321       17.690       27.434       18.430      312.937      752.650      339.654        0.151        0.070       27.306       13.738        0.253      347.074       25.782      859.806
06/09/2013  08:27:00       16.640       35.387       19.698       29.863       34.137       26.041      891.796     1165.305      678.121        0.233        0.137       39.104       19.836        0.257      346.953       25.574      859.809
06/09/2013  08:28:00       37.411        1.931       12.589       28.381       28.168       30.311      805.499      793.428      918.784        0.204        0.126       37.461       16.664        0.198      346.831       25.364      859.813
06/09/2013  08:29:00       34.464        3.739       19.697       21.772       22.337       24.933      474.040      498.944      621.675        0.159        0.080       34.666       14.445        0.174      346.142       24.176      859.827
06/09/2013  08:30:00       21.740      -13.691       17.726       23.296       22.097       22.763      542.699      488.287      518.142        0.126        0.077       25.692        9.014        0.123      346.375       24.577      859.844
06/09/2013  08:31:00      -18.470        0.660       10.550       21.333       12.824       14.119      455.101      164.451      199.359        0.064        0.041       18.481       12.567        0.462      346.588       24.944      859.848
06/09/2013  08:32:00       30.685       36.233       52.491       33.169       38.491       24.096     1100.189     1481.543      580.614        0.409        0.158       47.481       17.417        0.135      346.794       25.299      859.848
06/09/2013  08:33:00       98.457       68.833       35.851       22.218       16.694       34.716      493.619      278.691     1205.206        0.885        0.099      120.132       15.177        0.016      345.972       23.883      859.850
06/09/2013  08:34:00       76.635       32.750       24.178       31.376       26.511       26.675      984.463      702.831      711.533        0.496        0.120       83.339       13.574        0.027      346.278       24.410      859.839
06/09/2013  08:35:00        0.075       30.295        6.326       34.249       21.885       30.109     1172.992      478.974      906.529        0.176        0.128       30.295       18.668        0.380      346.595       24.957      859.828
06/09/2013  08:36:00      -16.140        9.593       10.051       14.644       14.955       29.619      214.454      223.651      877.261        0.088        0.066       18.776       18.893        1.013      347.039       25.722      859.817
06/09/2013  08:37:00        7.303       15.834       24.474       21.002       23.119       23.305      441.085      534.477      543.114        0.121        0.076       17.437       17.001        0.951      346.894       25.472      859.805
06/09/2013  08:38:00       27.288       69.254       -1.333       33.152       35.405       30.564     1099.077     1253.481      934.186        0.441        0.164       74.436       24.564        0.109      346.734       25.196      859.804
06/09/2013  08:39:00       50.047       46.924        1.643       29.316       29.905       23.231      859.455      894.338      539.676        0.350        0.115       68.605       17.531        0.065      346.579       24.930      859.804
06/09/2013  08:40:00       26.033       37.739        0.882       20.450       29.308       24.620      418.210      858.985      606.156        0.199        0.094       45.847       13.033        0.081      346.867       25.425      859.801
06/09/2013  08:41:00       -2.417        9.095       22.226       24.847       22.219       17.888      617.377      493.704      319.976        0.101        0.072        9.410        9.098        0.935      347.372       26.294      859.796
06/09/2013  08:42:00       -5.042      117.841       -8.654       20.459       33.087       21.066      418.585     1094.750      443.756        0.797        0.098      117.949       13.665        0.013      346.428       24.669      859.801
06/09/2013  08:43:00       -6.109       67.699       12.800       15.929       40.494       24.206      253.744     1639.754      585.913        0.363        0.124       67.974       23.303        0.118      347.281       26.139      859.804
06/09/2013  08:44:00       10.496       43.503       18.615       28.897       39.010       27.312      835.045     1521.768      745.929        0.273        0.155       44.751       22.396        0.250      347.098       25.823      859.796
06/09/2013  08:45:00      -15.202       12.947       26.682       19.058       23.589       18.770      363.219      556.423      352.332        0.119        0.064       19.968       15.421        0.596      347.334       26.230      859.784
06/09/2013  08:46:00       20.400        2.191       24.243       20.172       13.544       17.241      406.919      183.432      297.251        0.095        0.044       20.518       11.533        0.316      347.283       26.141      859.776
06/09/2013  08:47:00       12.558       15.823       26.597       16.750       22.714       15.713      280.579      515.941      246.898        0.108        0.052       20.201       11.206        0.308      347.532       26.570      859.768
06/09/2013  08:48:00      -20.350       47.065        6.577       20.517       24.298       22.815      420.936      590.381      520.540        0.210        0.077       51.276       11.363        0.049      346.981       25.622      859.756
06/09/2013  08:49:00      -38.107       26.454      -10.153       25.248       18.186       16.005      637.443      330.726      256.158        0.174        0.061       46.389       11.945        0.066      346.528       24.841      859.738
06/09/2013  08:50:00      -38.403        4.282       -2.293       11.137       12.358        9.006      124.031      152.726       81.107        0.093        0.018       38.641        6.931        0.032      346.450       24.705      859.730
06/09/2013  08:51:00      -28.218       12.012       12.714       12.420       13.188       13.897      154.250      173.911      193.113        0.081        0.026       30.668        6.994        0.052      347.046       25.732      859.721
06/09/2013  08:52:00      -32.299       18.444       12.453       12.431       10.645       13.947      154.538      113.309      194.520        0.100        0.023       37.194        7.075        0.036      346.885       25.454      859.710
06/09/2013  08:53:00      -18.004       -0.957        5.632        8.985       12.912        9.898       80.723      166.708       97.964        0.035        0.017       18.029        4.165        0.053      346.870       25.430      859.710
06/09/2013  08:54:00       -7.812        1.377       22.430       14.554       16.620       13.178      211.808      276.212      173.655        0.061        0.033        7.932        9.095        1.315      347.786       27.008      859.702
06/09/2013  08:55:00      -32.846        8.184       -1.544       13.193       12.579        9.695      174.042      158.220       94.000        0.079        0.021       33.850        3.592        0.011      346.738       25.201      859.704
06/09/2013  08:56:00      -25.096       18.293       21.225       22.546       30.236       24.757      508.314      914.229      612.909        0.172        0.102       31.056       19.746        0.404      347.691       26.845      859.699
06/09/2013  08:57:00      -36.757       15.905        7.808       29.734       19.925       19.985      884.123      396.994      399.402        0.167        0.084       40.051       21.533        0.289      346.958       25.582      859.700
06/09/2013  08:58:00      -14.796        7.634       23.320       20.374       19.219       18.377      415.113      369.384      337.709        0.097        0.056       16.649       12.431        0.557      347.677       26.823      859.682
06/09/2013  08:59:00      -24.500       15.570       17.410       21.808       17.675       16.428      475.609      312.390      269.873        0.110        0.053       29.029       11.654        0.161      347.560       26.618      859.675
06/09/2013  09:00:00      -12.695        7.925       33.012       25.718       15.664       14.978      661.415      245.374      224.330        0.122        0.057       14.966       13.088        0.765      347.805       27.041      859.661
06/09/2013  09:01:00       12.340       25.767       28.773       36.031       22.924       21.999     1298.244      525.530      483.960        0.198        0.115       28.569       17.594        0.379      348.049       27.463      859.647
06/09/2013  09:02:00      -10.480       23.352       10.832       25.382       18.054       22.439      644.248      325.942      503.502        0.112        0.074       25.596       10.584        0.171      347.552       26.603      859.640
06/09/2013  09:03:00      -30.773       28.737       19.571       18.021       21.992       28.302      324.763      483.645      801.010        0.188        0.080       42.105       18.474        0.193      347.672       26.814      859.634
06/09/2013  09:04:00      -42.539        8.181      -14.452       13.335       23.764        8.897      177.833      564.714       79.165        0.145        0.041       43.318        9.802        0.051      346.896       25.473      859.635
06/09/2013  09:05:00      -39.849        0.103       -9.177       11.251       14.597       11.874      126.592      213.067      141.002        0.108        0.024       39.849        6.649        0.028      346.928       25.528      859.634
06/09/2013  09:06:00      -21.216        7.916       21.447       15.716       18.220       19.259      246.981      331.983      370.901        0.096        0.047       22.645       11.211        0.245      347.888       27.185      859.638
06/09/2013  09:07:00       -9.688      -31.972       11.411       17.425       27.703       24.328      303.642      767.446      591.850        0.145        0.083       33.408       21.487        0.414      347.273       26.124      859.636
06/09/2013  09:08:00       23.267       -3.844       22.708       30.043       46.967       27.966      902.611     2205.895      782.086        0.248        0.195       23.582       24.393        1.070      347.303       26.176      859.635
06/09/2013  09:09:00        0.036       13.700       21.323       24.578       28.397       22.590      604.073      806.397      510.311        0.128        0.096       13.700       14.917        1.186      347.465       26.455      859.627
06/09/2013  09:10:00        4.752       -1.974       21.119       41.713       21.820       30.262     1739.968      476.100      915.777        0.180        0.157        5.145       13.757        7.149      347.518       26.547      859.613
06/09/2013  09:11:00        9.397        5.996       45.141       31.165       38.963       27.275      971.237     1518.101      743.916        0.270        0.162       11.147       17.162        2.370      347.383       26.313      859.601
06/09/2013  09:12:00       27.341       -3.220       20.460       29.197       21.511       24.815      852.480      462.716      615.772        0.155        0.097       27.530       16.341        0.352      347.148       25.909      859.589
06/09/2013  09:13:00       74.689      -24.023        9.786       33.553       28.538       29.134     1125.782      814.406      848.809        0.452        0.139       78.457       21.829        0.077      346.336       24.512      859.572
06/09/2013  09:14:00       27.352       18.199       47.317       25.152       25.030       17.243      632.606      626.510      297.332        0.244        0.078       32.853       10.168        0.096      347.160       25.928      859.559
06/09/2013  09:15:00       23.759        6.694       25.527       19.050       21.175       19.463      362.916      448.375      378.803        0.123        0.060       24.684       15.234        0.381      347.200       25.998      859.547
06/09/2013  09:16:00      -10.877       25.152       39.083       15.895       24.425       21.611      252.636      596.563      467.050        0.180        0.066       27.403       17.003        0.385      347.779       26.996      859.525
06/09/2013  09:17:00       -6.237       30.369       43.929       24.555       27.746       23.995      602.970      769.834      575.774        0.242        0.097       31.003       15.470        0.249      347.147       25.907      859.513
06/09/2013  09:18:00       -7.588        6.287       42.870       17.739       30.770       18.052      314.671      946.788      325.888        0.176        0.079        9.854       13.969        2.010      347.427       26.389      859.505
06/09/2013  09:19:00      -15.480       28.498       43.012       13.287       19.610       16.074      176.531      384.570      258.383        0.186        0.041       32.430       11.848        0.133      347.523       26.554      859.497
06/09/2013  09:20:00       -9.640       20.398       45.217       17.933       25.163       19.626      321.599      633.193      385.169        0.195        0.067       22.561       13.217        0.343      347.672       26.812      859.499
06/09/2013  09:21:00       -6.783       -4.466       33.658       19.611       27.638       16.660      384.582      763.850      277.567        0.131        0.071        8.121        6.336        0.609      348.151       27.640      859.492
06/09/2013  09:22:00       51.947       30.889       30.540       36.185       25.171       36.262     1309.319      633.603     1314.900        0.392        0.163       60.437       19.456        0.104      347.308       26.185      859.493
06/09/2013  09:23:00       15.852       12.096       36.124       34.323       26.302       23.220     1178.061      691.798      539.185        0.206        0.120       19.940       19.422        0.949      347.336       26.231      859.495
06/09/2013  09:24:00       -4.623       14.278       25.100       25.701       25.382       30.874      660.544      644.269      953.206        0.156        0.113       15.007       22.311        2.210      347.775       26.989      859.486
06/09/2013  09:25:00      -32.984        4.955       -3.383       22.444        9.161       15.945      503.713       83.922      254.251        0.098        0.042       33.354       16.513        0.245      347.575       26.644      859.486
06/09/2013  09:26:00        3.021        6.473       11.874       19.841       19.528       22.778      393.646      381.358      518.815        0.074        0.065        7.143        9.856        1.904      348.067       27.495      859.484
06/09/2013  09:27:00       23.345       -3.162       16.713       26.491       22.267       20.738      701.792      495.829      430.062        0.123        0.081       23.558       13.935        0.350      347.514       26.540      859.481
06/09/2013  09:28:00       37.375        5.680      -10.511       26.650       23.016       23.851      710.211      529.751      568.887        0.167        0.090       37.804       17.022        0.203      346.967       25.596      859.477
06/09/2013  09:29:00       45.157        3.227       32.198       41.366       24.384       29.267     1711.184      594.558      856.559        0.312        0.158       45.272       23.504        0.270      346.969       25.599      859.477
06/09/2013  09:30:00       28.244        8.877       18.242       44.118       17.281       30.743     1946.432      298.643      945.123        0.220        0.160       29.607       21.804        0.542      347.096       25.819      859.468
06/09/2013  09:31:00       37.190        5.397       29.326       37.647       28.997       33.360     1417.317      840.852     1112.861        0.282        0.169       37.580       23.853        0.403      347.390       26.327      859.458
06/09/2013  09:32:00       77.893       12.269       30.720       47.737       27.367       43.676     2278.859      748.972     1907.568        0.605        0.247       78.853       32.077        0.165      347.072       25.778      859.448
06/09/2013  09:33:00       56.589       18.094       17.695       27.937       32.109       33.665      780.498     1031.000     1133.363        0.339        0.147       59.411        9.906        0.028      347.354       26.262      859.440
06/09/2013  09:34:00       58.080       44.199       -4.525       18.407       24.013       31.216      338.831      576.632      974.466        0.362        0.094       72.985       14.421        0.039      347.217       26.026      859.428
06/09/2013  09:35:00       52.662       11.680        5.642       15.105       17.611       21.084      228.157      310.130      444.524        0.196        0.049       53.941       11.994        0.049      347.470       26.464      859.410
06/09/2013  09:36:00       25.879       25.075       32.535       43.751       29.066       30.264     1914.111      844.816      915.884        0.302        0.184       36.034       20.686        0.330      347.137       25.888      859.389
06/09/2013  09:37:00       10.613       18.871       11.185       13.117       12.697       16.376      172.068      161.202      268.164        0.060        0.030       21.650        5.408        0.062      347.639       26.754      859.370
06/09/2013  09:38:00       -4.496       -0.759       -4.141        9.359       27.922       15.349       87.593      779.659      235.586        0.057        0.055        4.560        8.077        3.138      348.090       27.535      859.366
06/09/2013  09:39:00       10.084       -3.412       -8.228       15.315       17.552       17.434      234.557      308.060      303.948        0.051        0.042       10.646       12.006        1.272      348.128       27.600      859.353
06/09/2013  09:40:00       35.080       33.699       18.897       15.336       17.687       23.531      235.204      312.835      553.691        0.191        0.055       48.644       13.339        0.075      348.204       27.731      859.343
06/09/2013  09:41:00       25.061       35.268       33.771       15.495       20.014       13.965      240.097      400.579      195.010        0.192        0.042       43.265        8.156        0.036      348.186       27.699      859.344
06/09/2013  09:42:00       -4.958        2.218       23.608       18.671        9.491       11.037      348.624       90.084      121.826        0.057        0.028        5.431        8.072        2.209      349.076       29.240      859.339
06/09/2013  09:43:00      -52.194        7.876       -2.921       12.425       11.569        9.337      154.372      133.836       87.177        0.158        0.019       52.785        5.083        0.009      347.965       27.315      859.339
06/09/2013  09:44:00      -51.836       36.337        9.020       23.714       21.255       22.892      562.358      451.791      524.065        0.281        0.077       63.304       23.662        0.140      348.147       27.629      859.335
06/09/2013  09:45:00      -12.655       10.828       37.305       16.431       11.230        7.453      269.974      126.108       55.554        0.106        0.023       16.655        3.061        0.034      348.864       28.872      859.326
06/09/2013  09:46:00      -30.451       14.157       29.921       19.398       15.253        9.644      376.298      232.649       93.010        0.136        0.035       33.581        7.011        0.044      348.589       28.396      859.318
06/09/2013  09:47:00      -44.586       19.067        8.465       14.989       10.217       11.956      224.663      104.377      142.947        0.145        0.024       48.492        7.451        0.024      348.182       27.692      859.299
06/09/2013  09:48:00      -50.349       24.245        3.034       28.420       22.895       22.919      807.707      524.202      525.271        0.249        0.093       55.883       17.781        0.101      348.643       28.490      859.280
06/09/2013  09:49:00      -32.385       22.855       31.606       33.687       21.450       18.185     1134.783      460.095      330.681        0.225        0.096       39.638        9.773        0.061      349.203       29.459      859.259
06/09/2013  09:50:00      -52.473       17.909       10.037       41.956       17.334       17.898     1760.308      300.461      320.330        0.278        0.119       55.445       16.896        0.093      348.355       27.991      859.230
06/09/2013  09:51:00      -44.194       15.754        1.884       27.296       22.972       19.485      745.075      527.716      379.674        0.193        0.083       46.918       17.971        0.147      348.637       28.479      859.210
06/09/2013  09:52:00      -46.459       13.531        3.507       17.600       22.752       18.091      309.772      517.640      327.284        0.175        0.058       48.390       15.585        0.104      348.556       28.337      859.203
06/09/2013  09:53:00      -25.328      -20.098        6.749       24.145       17.418       15.617      582.988      303.393      243.896        0.111        0.057       32.334       12.161        0.141      348.668       28.533      859.185
06/09/2013  09:54:00      -48.656       -9.005       -2.081       16.482       21.914       13.742      271.645      480.206      188.844        0.170        0.047       49.482       11.993        0.059      348.578       28.377      859.180
06/09/2013  09:55:00      -14.378       -0.737       14.985       20.001       14.630       17.941      400.025      214.026      321.883        0.068        0.047       14.396       11.185        0.604      349.493       29.963      859.176
06/09/2013  09:56:00      -11.473       -3.412       21.168       23.203       16.421       21.092      538.402      269.648      444.873        0.092        0.063       11.969       14.643        1.497      349.281       29.596      859.166
06/09/2013  09:57:00        9.219        4.940       29.152       22.263       17.996       14.127      495.635      323.841      199.573        0.099        0.051       10.459       10.853        1.077      349.223       29.495      859.159
06/09/2013  09:58:00      -13.357       -9.638       18.968       21.100       22.279       23.585      445.230      496.333      556.247        0.106        0.075       16.471       12.524        0.578      349.260       29.557      859.155
06/09/2013  09:59:00       -1.670       -4.964       22.678       14.626       15.510       14.945      213.914      240.545      223.357        0.061        0.034        5.237        6.806        1.689      349.824       30.536      859.139
06/09/2013  10:00:00        0.304       18.997       27.853       17.485       24.511       17.199      305.726      600.800      295.794        0.117        0.060       18.999       13.668        0.518      349.766       30.435      859.127
06/09/2013  10:01:00       -9.965       31.046       22.107       23.492       29.176       24.507      551.895      851.217      600.608        0.178        0.100       32.606       13.040        0.160      349.545       30.052      859.114
06/09/2013  10:02:00      -11.083       20.957       24.977       27.763       15.916       18.414      770.808      253.307      339.064        0.127        0.068       23.707       13.284        0.314      349.583       30.117      859.107
06/09/2013  10:03:00      -33.414       30.235       16.660       16.626       20.375       20.439      276.429      415.151      417.770        0.171        0.055       45.062       13.191        0.086      349.105       29.291      859.092
06/09/2013  10:04:00      -10.264        9.107       25.844       17.213       11.187       14.198      296.276      125.157      201.570        0.074        0.031       13.722       10.548        0.591      349.643       30.223      859.089
06/09/2013  10:05:00        0.730       -1.094       33.567       19.964       14.416       14.701      398.542      207.823      216.126        0.098        0.041        1.315       12.394       88.838      349.830       30.547      859.092
06/09/2013  10:06:00        8.563        0.152       46.177       21.112       27.883       15.695      445.730      777.489      246.329        0.184        0.073        8.564        8.617        1.012      349.380       29.766      859.091
06/09/2013  10:07:00       -2.667       20.885       42.388       18.315       21.320       18.206      335.456      454.539      331.469        0.168        0.056       21.054       10.697        0.258      349.355       29.724      859.083
06/09/2013  10:08:00       -2.275       22.653       29.994       22.615       22.104       27.326      511.416      488.592      746.732        0.158        0.087       22.767       17.401        0.584      348.990       29.091      859.086
06/09/2013  10:09:00       -1.872       18.100       28.193       17.240       17.337       18.777      297.228      300.561      352.577        0.104        0.048       18.197       12.832        0.497      349.046       29.188      859.091
06/09/2013  10:10:00      -11.831       27.232       26.941       23.175       21.895       23.532      537.080      479.393      553.760        0.159        0.079       29.691        4.323        0.021      349.345       29.706      859.093
06/09/2013  10:11:00      -33.685       19.405        5.230       15.808       20.967       25.025      249.880      439.630      626.273        0.143        0.066       38.874       11.642        0.090      349.029       29.158      859.096
06/09/2013  10:12:00       -2.201       24.305       23.281       24.829       19.851       24.787      616.462      394.080      614.393        0.138        0.081       24.405       14.808        0.368      349.158       29.382      859.087
06/09/2013  10:13:00      -18.571       16.124       23.384       22.701       32.200       16.947      515.349     1036.868      287.216        0.150        0.092       24.594       15.823        0.414      349.311       29.646      859.069
06/09/2013  10:14:00       28.015       30.530       23.834       34.230       23.732       26.057     1171.700      563.199      678.949        0.235        0.121       41.435       22.761        0.302      348.856       28.859      859.068
06/09/2013  10:15:00       23.963       25.350       25.561       40.127       25.439       27.953     1610.183      647.118      781.360        0.245        0.152       34.883       21.846        0.392      348.909       28.951      859.057
06/09/2013  10:16:00      -18.110       42.449        5.093       28.335       33.810       28.751      802.870     1143.145      826.620        0.246        0.139       46.151       11.397        0.061      349.125       29.323      859.056
06/09/2013  10:17:00      -32.827        2.460      -24.615       31.818       24.506       15.279     1012.409      600.561      233.463        0.177        0.092       32.919       12.404        0.142      348.927       28.981      859.051
06/09/2013  10:18:00      -98.644      -51.449      -13.599       26.775       24.707       18.718      716.924      610.428      350.359        0.712        0.084      111.254        4.535        0.002      348.818       28.792      859.039
06/09/2013  10:19:00      -86.129       14.630      -26.665       37.514       48.279       24.072     1407.281     2330.867      579.477        0.633        0.216       87.362       21.671        0.062      348.802       28.765      859.027
06/09/2013  10:20:00      -12.176       31.913       12.641       19.809       30.613       30.730      392.389      937.171      944.311        0.180        0.114       34.157       25.493        0.557      350.120       31.051      859.030
06/09/2013  10:21:00        2.362       21.929       28.501       13.658       21.109       17.136      186.548      445.607      293.655        0.111        0.046       22.056        7.596        0.119      350.168       31.134      859.020
06/09/2013  10:22:00        4.889        2.856       35.757       17.695       13.931       11.382      313.125      194.081      129.548        0.097        0.032        5.662        6.448        1.297      350.570       31.833      859.007
06/09/2013  10:23:00       55.407       16.806       27.268       59.816       35.465       37.962     3577.970     1257.759     1441.151        0.519        0.314       57.900       27.656        0.228      349.767       30.439      859.005
06/09/2013  10:24:00      117.597       69.937       19.422       33.237       23.756       21.635     1104.681      564.343      468.095        1.062        0.107      136.823       16.251        0.014      348.949       29.019      858.991
06/09/2013  10:25:00       49.611       54.744       -2.500       49.256       35.686       39.379     2426.167     1273.482     1550.737        0.536        0.263       73.880       25.668        0.121      349.602       30.151      858.971
06/09/2013  10:26:00       20.126       85.947      -24.178       46.063       60.875       29.144     2121.821     3705.720      849.368        0.753        0.334       88.272       29.012        0.108      349.191       29.438      858.971
06/09/2013  10:27:00       49.116      -21.038       28.904       48.943       69.451       38.828     2395.378     4823.474     1507.597        0.621        0.436       53.432       41.778        0.611      349.367       29.743      858.960
06/09/2013  10:28:00      136.014       79.181       19.688       68.260       45.424       38.182     4659.363     2063.382     1457.902        1.667        0.409      157.383       21.315        0.018      349.311       29.645      858.958
06/09/2013  10:29:00      125.338       79.625       12.154       51.798       43.761       29.739     2683.019     1915.011      884.413        1.384        0.274      148.491       23.396        0.025      349.356       29.724      858.968
06/09/2013  10:30:00       13.148      -19.948       17.155       24.164       49.893       22.533      583.916     2489.330      507.755        0.222        0.179       23.891       21.522        0.812      349.694       30.311      858.969
06/09/2013  10:31:00        8.505       11.551       42.316       25.315       29.058       22.340      640.866      844.343      499.090        0.199        0.099       14.344       19.205        1.793      349.470       29.923      858.963
06/09/2013  10:32:00        4.994       36.184       22.896       26.244       24.393       22.274      688.761      595.026      496.144        0.182        0.089       36.527       15.266        0.175      350.086       30.993      858.962
06/09/2013  10:33:00        4.060       25.517       38.655       20.269       32.531       24.463      410.822     1058.251      598.425        0.211        0.103       25.838       24.130        0.872      349.955       30.766      858.949
06/09/2013  10:34:00        3.816      -16.175       26.147       16.274       37.726       23.813      264.829     1423.278      567.052        0.161        0.113       16.619       23.374        1.978      349.995       30.835      858.937
06/09/2013  10:35:00        8.113        9.005       34.831       26.146       33.465       21.775      683.629     1119.889      474.155        0.182        0.114       12.120       18.584        2.351      349.917       30.698      858.925
06/09/2013  10:36:00        0.342       -3.214       31.948       18.601       30.124       20.281      345.987      907.439      411.315        0.135        0.083        3.232       18.512       32.803      350.061       30.948      858.904
06/09/2013  10:37:00       30.463       64.124       69.398       41.866       45.933       34.510     1752.757     2109.801     1190.951        0.745        0.253       70.992       32.023        0.203      349.667       30.262      858.892
06/09/2013  10:38:00       -6.720       52.433       72.296       27.393       31.199       26.319      750.374      973.357      692.712        0.522        0.121       52.862       16.869        0.102      349.586       30.123      858.880
06/09/2013  10:39:00      -12.051       21.207       56.637       13.399       31.833       21.302      179.542     1013.348      453.779        0.272        0.082       24.392       22.250        0.832      350.032       30.897      858.882
06/09/2013  10:40:00       28.606       18.104       13.182       47.346       29.543       30.551     2241.598      872.784      933.352        0.268        0.202       33.853       24.198        0.511      349.375       29.758      858.877
06/09/2013  10:41:00       31.895       12.796       30.024       32.414       32.076       24.999     1050.670     1028.893      624.956        0.239        0.135       34.366       19.384        0.318      349.663       30.257      858.872
06/09/2013  10:42:00       36.962       36.627       35.652       55.395       42.562       39.847     3068.652     1811.494     1587.762        0.522        0.323       52.036       26.158        0.253      349.621       30.184      858.862
06/09/2013  10:43:00       35.775       31.959       49.940       51.570       41.812       39.437     2659.467     1748.257     1555.295        0.538        0.298       47.971       28.458        0.352      350.149       31.101      858.853
06/09/2013  10:44:00      139.545      103.767       12.671       68.451       48.149       35.455     4685.560     2318.330     1257.084        1.933        0.413      173.898       34.610        0.040      349.668       30.264      858.846
06/09/2013  10:45:00      121.896       90.663       11.256       62.424       45.924       40.986     3896.776     2109.026     1679.852        1.544        0.384      151.916       28.787        0.036      349.625       30.191      858.845
06/09/2013  10:46:00       18.344       96.896        4.262       48.323       58.748       47.306     2335.108     3451.305     2237.860        0.888        0.401       98.618       38.690        0.154      349.841       30.565      858.833
06/09/2013  10:47:00      -10.064      -19.155       30.853       50.849       76.499       51.234     2585.579     5852.172     2624.878        0.624        0.553       21.638       45.507        4.423      349.461       29.906      858.822
06/09/2013  10:48:00       50.588       53.100       62.220       66.225       55.453       54.341     4385.754     3075.062     2952.952        0.983        0.521       73.340       41.225        0.316      349.454       29.893      858.824
06/09/2013  10:49:00      136.808       -6.707       52.036       44.980       32.828       44.752     2023.179     1077.688     2002.733        1.329        0.255      136.973       25.195        0.034      349.465       29.913      858.845
06/09/2013  10:50:00        9.019        1.191       25.961       33.057       31.106       40.770     1092.766      967.576     1662.224        0.224        0.186        9.097       27.967        9.452      349.760       30.423      858.842
06/09/2013  10:51:00      -13.585       13.296      -16.297       20.344       28.700       16.283      413.876      823.677      265.134        0.106        0.075       19.009       14.713        0.599      349.574       30.102      858.828
06/09/2013  10:52:00      -24.906      -29.977       12.331       20.761       31.736       21.157      431.031     1007.196      447.632        0.178        0.094       38.973       22.291        0.327      350.106       31.028      858.798
06/09/2013  10:53:00      -13.635      -28.196        8.253       44.129       37.480       33.980     1947.345     1404.729     1154.621        0.278        0.225       31.320       32.449        1.073      349.963       30.779      858.782
06/09/2013  10:54:00     -126.723      -64.200        2.304       64.468       41.873       32.512     4156.079     1753.345     1057.058        1.357        0.348      142.058       32.422        0.052      349.726       30.366      858.761
06/09/2013  10:55:00      -58.162      -20.355        9.657       37.747       37.139       20.964     1424.802     1379.325      439.494        0.357        0.162       61.621       21.011        0.116      350.027       30.887      858.755
06/09/2013  10:56:00      -74.237        2.517       -4.598       35.765       26.746       22.777     1279.100      715.332      518.810        0.403        0.126       74.280       20.569        0.077      350.013       30.864      858.744
06/09/2013  10:57:00      -60.659        1.618        7.303       49.685       45.205       31.510     2468.647     2043.509      992.856        0.462        0.275       60.681       35.406        0.340      350.280       31.327      858.742
06/09/2013  10:58:00      -38.742       66.953       11.500       48.180       36.829       34.926     2321.301     1356.388     1219.801        0.551        0.245       77.354       32.407        0.176      350.516       31.740      858.728
06/09/2013  10:59:00     -119.430      132.326      -27.629       34.104       48.549       33.658     1163.050     2357.032     1132.856        1.859        0.233      178.252       28.338        0.025      349.617       30.175      858.723
06/09/2013  11:00:00      -93.359      102.241      -21.256       35.142       31.646       25.170     1234.972     1001.442      633.552        1.124        0.143      138.453       20.669        0.022      349.713       30.345      858.721
06/09/2013  11:01:00        4.796       19.417       32.467       33.785       26.187       29.771     1141.401      685.743      886.302        0.208        0.136       20.001       15.627        0.610      351.019       32.615      858.726
06/09/2013  11:02:00       80.197       45.218        5.623       53.444       38.429       29.824     2856.306     1476.755      889.462        0.686        0.261       92.066       21.848        0.056      350.354       31.456      858.735
06/09/2013  11:03:00       52.346       84.487      -12.149       56.386       34.990       30.842     3179.423     1224.282      951.254        0.769        0.268       99.389       17.444        0.031      350.004       30.849      858.721
06/09/2013  11:04:00       10.138       42.514       10.997       22.845       36.974       23.663      521.906     1367.110      559.955        0.224        0.122       43.706       25.077        0.329      350.942       32.481      858.717
06/09/2013  11:05:00       50.974       36.301       11.503       20.016       30.695       29.348      400.649      942.206      861.288        0.313        0.110       62.579       21.804        0.121      350.188       31.168      858.712
06/09/2013  11:06:00       79.837       37.088       20.894       43.854       35.338       33.489     1923.140     1248.740     1121.524        0.624        0.215       88.031       16.493        0.035      349.822       30.533      858.714
06/09/2013  11:07:00       45.923       29.016       12.266       37.750       33.907       36.982     1425.043     1149.714     1367.662        0.352        0.197       54.322       27.237        0.251      350.131       31.070      858.703
06/09/2013  11:08:00       34.793       43.045       13.750       23.295       35.553       33.056      542.649     1264.023     1092.702        0.308        0.145       55.349       25.671        0.215      350.292       31.348      858.700
06/09/2013  11:09:00       54.739       46.137        0.625       38.420       37.874       35.145     1476.095     1434.432     1235.199        0.463        0.207       71.588       25.084        0.123      350.195       31.180      858.689
06/09/2013  11:10:00       41.947       62.100        2.544       46.805       45.819       35.032     2190.700     2099.420     1227.223        0.557        0.276       74.939       41.447        0.306      350.624       31.926      858.677
06/09/2013  11:11:00       87.799       45.203       32.718       37.089       32.327       31.848     1375.589     1045.052     1014.281        0.713        0.172       98.752       17.199        0.030      350.283       31.334      858.660
06/09/2013  11:12:00       32.637       13.432       30.545       40.104       30.109       28.302     1608.366      906.556      800.982        0.275        0.166       35.293       13.591        0.148      349.700       30.322      858.651
06/09/2013  11:13:00       -4.324       41.950       11.456       28.487       36.769       26.279      811.533     1351.981      690.566        0.238        0.143       42.173       20.960        0.247      350.673       32.012      858.639
06/09/2013  11:14:00      -40.900       28.002       36.216       20.650       25.160       18.761      426.416      633.039      351.989        0.259        0.071       49.568       14.901        0.090      350.598       31.881      858.620
06/09/2013  11:15:00      -41.025      -20.320        2.603       25.218       31.372       18.398      635.971      984.177      338.481        0.203        0.098       45.781       19.527        0.182      350.069       30.960      858.609
06/09/2013  11:16:00      -51.625       -0.534        0.129       21.613       33.243       17.875      467.139     1105.105      319.528        0.228        0.095       51.627        9.384        0.033      350.347       31.444      858.589
06/09/2013  11:17:00      -44.722      -24.257       -3.388       23.738       39.831       19.442      563.497     1586.500      378.010        0.256        0.126       50.877       16.650        0.107      350.264       31.299      858.588
06/09/2013  11:18:00      -13.891      -79.044        0.077       17.996       18.807       12.975      323.873      353.698      168.348        0.364        0.042       80.256        6.560        0.007      349.905       30.677      858.568
06/09/2013  11:19:00      -38.729      -11.039       -9.585       22.061       18.143       17.377      486.671      329.175      301.976        0.142        0.056       40.271        6.562        0.027      350.172       31.138      858.555
06/09/2013  11:20:00       13.051      -15.298       12.627       18.374       33.888       41.826      337.590     1148.373     1749.417        0.190        0.162       20.109       33.304        2.743      350.589       31.868      858.543
06/09/2013  11:21:00       48.451       50.331        4.424       41.713       26.179       39.471     1740.012      685.347     1557.975        0.444        0.199       69.862       33.761        0.234      350.121       31.053      858.530
06/09/2013  11:22:00       34.015       32.007       -1.681       29.825       21.632       30.371      889.516      467.951      922.405        0.223        0.114       46.706       15.463        0.110      350.147       31.097      858.525
06/09/2013  11:23:00       16.432       15.133       13.487       34.370       26.727       24.879     1181.318      714.350      618.963        0.160        0.126       22.339       16.403        0.539      349.935       30.728      858.512
06/09/2013  11:24:00       47.498       68.833       24.024       20.556       23.964       25.479      422.551      574.286      649.200        0.461        0.082       83.631       13.647        0.027      349.561       30.080      858.501
06/09/2013  11:25:00       13.041       -0.071       10.565       21.587       22.518       24.467      466.012      507.048      598.610        0.093        0.079       13.041       12.732        0.953      350.594       31.876      858.506
06/09/2013  11:26:00       10.474       30.852       29.812       19.559       19.573       21.124      382.563      383.091      446.234        0.158        0.061       32.581       11.794        0.131      350.115       31.043      858.492
06/09/2013  11:27:00       -8.360       24.220       24.303       23.308       26.455       21.684      543.255      699.877      470.198        0.148        0.086       25.622        7.859        0.094      350.320       31.398      858.483
06/09/2013  11:28:00      -15.552       30.713       22.872       17.808       24.538       18.484      317.112      602.112      341.644        0.148        0.063       34.426        5.380        0.024      350.870       32.355      858.467
06/09/2013  11:29:00       26.993       12.001       -6.633       28.051       27.820       27.104      786.834      773.925      734.600        0.161        0.115       29.540       20.569        0.485      350.558       31.813      858.468
06/09/2013  11:30:00       41.995       21.986       11.126       24.704       22.209       18.532      610.308      493.242      343.438        0.191        0.072       47.402       13.855        0.085      350.230       31.241      858.458
06/09/2013  11:31:00        0.969       36.050       45.125       14.536       28.772       16.822      211.286      827.804      282.979        0.233        0.066       36.063       15.959        0.196      350.232       31.244      858.439
06/09/2013  11:32:00       89.230       73.281       46.291       64.506       35.433       31.938     4161.025     1255.513     1020.055        1.095        0.322      115.465       24.489        0.045      349.711       30.341      858.424
06/09/2013  11:33:00       97.126       77.583       17.948       46.409       41.274       32.215     2153.808     1703.558     1037.821        1.033        0.245      124.309       22.910        0.034      350.364       31.474      858.399
06/09/2013  11:34:00       35.971       41.434       21.597       41.649       39.034       28.514     1734.640     1523.640      813.065        0.377        0.204       54.870       21.360        0.152      351.116       32.785      858.381
06/09/2013  11:35:00       38.710        4.864       24.798       47.172       27.345       18.871     2225.153      747.725      356.104        0.273        0.166       39.014       13.835        0.126      350.790       32.215      858.383
06/09/2013  11:36:00        8.370       28.184       20.172       55.699       37.900       33.327     3102.349     1436.390     1110.699        0.346        0.282       29.401       24.265        0.681      350.395       31.529      858.375
06/09/2013  11:37:00        2.651       28.857       30.369       42.906       33.146       24.645     1840.924     1098.627      607.360        0.265        0.177       28.979       22.857        0.622      350.625       31.928      858.362
06/09/2013  11:38:00       -9.230       12.124       38.138       25.957       31.552       18.561      673.786      995.546      344.522        0.185        0.101       15.238       17.934        1.385      351.122       32.794      858.355
06/09/2013  11:39:00       63.748      -18.441       10.517       51.397       31.286       38.600     2641.648      978.785     1489.942        0.481        0.256       66.362       32.441        0.239      350.283       31.335      858.336
06/09/2013  11:40:00       99.818       12.629       65.213      120.660       76.849       65.948    14558.932     5905.845     4349.095        1.959        1.241      100.613       69.985        0.484      350.641       31.955      858.306
06/09/2013  11:41:00        9.383       49.150       59.692       51.284       49.320       52.598     2630.081     2432.439     2766.518        0.695        0.391       50.037       41.467        0.687      350.558       31.812      858.312
06/09/2013  11:42:00       38.782       42.609        8.082       35.123       44.696       27.124     1233.629     1997.760      735.735        0.368        0.198       57.616       27.312        0.225      350.739       32.126      858.288
06/09/2013  11:43:00       90.037       -8.796       16.766       74.755       60.614       35.093     5588.377     3674.065     1231.487        0.948        0.525       90.466       34.061        0.142      350.704       32.067      858.281
06/09/2013  11:44:00       51.394      -15.898       20.821       40.392       36.629       35.933     1631.512     1341.657     1291.211        0.380        0.213       53.797       29.536        0.301      350.242       31.262      858.274
06/09/2013  11:45:00       94.773       63.613       54.520       55.083       36.882       45.560     3034.176     1360.258     2075.757        1.123        0.324      114.143       31.282        0.075      349.877       30.629      858.278
06/09/2013  11:46:00       48.294       49.349       45.007       30.903       37.301       40.394      954.983     1391.397     1631.704        0.538        0.199       69.048       24.099        0.122      350.146       31.095      858.270
06/09/2013  11:47:00       24.362        6.654       11.009       34.934       39.907       31.609     1220.395     1592.551      999.107        0.228        0.191       25.255       17.125        0.460      350.683       32.028      858.269
06/09/2013  11:48:00      -70.510       61.062       -1.754       45.347       40.882       23.039     2056.394     1671.369      530.814        0.648        0.213       93.275       18.351        0.039      350.774       32.188      858.252
06/09/2013  11:49:00      -37.985       32.164       17.000       32.092       34.441       34.632     1029.904     1186.205     1199.388        0.309        0.171       49.773       22.864        0.211      351.391       33.264      858.236
06/09/2013  11:50:00      -79.324      -43.514      -26.147       18.405       30.519       19.045      338.727      931.420      362.722        0.525        0.082       90.475       10.065        0.012      350.551       31.798      858.230
06/09/2013  11:51:00      -68.172      -13.643      -11.215       19.507       22.401       18.876      380.530      501.819      356.294        0.310        0.062       69.524       14.261        0.042      350.597       31.880      858.206
06/09/2013  11:52:00      -67.716       20.276       -0.885       28.659       39.209       25.046      821.313     1537.371      627.297        0.399        0.149       70.686       15.446        0.048      350.852       32.322      858.195
06/09/2013  11:53:00       -2.764       29.543       38.629       30.621       33.906       22.121      937.616     1149.607      489.336        0.247        0.129       29.672       18.489        0.388      352.089       34.482      858.175
06/09/2013  11:54:00        6.361       22.499       32.509       30.133       33.013       30.354      907.968     1089.863      921.355        0.226        0.146       23.381       18.962        0.658      351.367       33.223      858.167
06/09/2013  11:55:00       19.853       24.536       20.969       26.757       21.559       23.540      715.948      464.770      554.117        0.159        0.087       31.562       11.708        0.138      350.197       31.184      858.161
06/09/2013  11:56:00      -28.214       32.783       31.974       26.520       18.721       23.793      703.317      350.465      566.128        0.226        0.081       43.252       14.882        0.118      351.079       32.719      858.155
06/09/2013  11:57:00     -121.220       20.953      -11.156       50.767       35.852       22.151     2577.272     1285.360      490.647        0.980        0.218      123.018       18.487        0.023      350.855       32.329      858.121
06/09/2013  11:58:00      -36.014      -14.975       15.549       52.399       38.320       27.314     2745.649     1468.405      746.051        0.336        0.248       39.004       24.033        0.380      351.090       32.738      858.113
06/09/2013  11:59:00      -75.196      -47.753        7.184       52.620       48.883       30.968     2768.820     2389.576      959.001        0.705        0.306       89.078       34.535        0.150      351.256       33.027      858.098
06/09/2013  12:00:00     -105.384      -66.325      -13.699       82.854       52.102       36.646     6864.760     2714.591     1342.941        1.331        0.546      124.518       42.934        0.119      351.022       32.619      858.090
06/09/2013  12:01:00       21.730      -79.640       26.763       62.923       80.815       41.494     3959.272     6531.041     1721.749        0.987        0.611       82.551       42.558        0.266      351.515       33.478      858.077
06/09/2013  12:02:00      -18.712      -75.579       24.371       84.969       90.070       51.423     7219.756     8112.553     2644.333        1.231        0.899       77.861       63.957        0.675      351.199       32.928      858.082
06/09/2013  12:03:00      -10.528      -99.516       12.122       47.349       95.025       43.721     2241.950     9029.656     1911.521        1.167        0.659      100.072       49.149        0.241      351.316       33.132      858.058
06/09/2013  12:04:00       35.632       32.742       15.449       24.354       21.306       29.920      593.116      453.936      895.218        0.226        0.097       48.391        8.763        0.033      350.754       32.153      858.046
06/09/2013  12:05:00       20.677        9.842        9.784       40.014       28.648       33.340     1601.111      820.694     1111.532        0.208        0.177       22.900        8.163        0.127      351.093       32.743      858.029
06/09/2013  12:06:00       -0.093      -20.974       11.483       12.918       34.256       23.104      166.862     1173.479      533.784        0.122        0.094       20.975        7.313        0.122      351.590       33.610      858.019
06/09/2013  12:07:00       21.251       20.131       46.038       31.745       43.101       21.500     1007.769     1857.660      462.267        0.315        0.166       29.272       21.156        0.522      351.051       32.671      858.003
06/09/2013  12:08:00       25.731        5.854       21.992       41.592       47.271       35.810     1729.885     2234.553     1282.386        0.321        0.262       26.388       31.447        1.420      350.264       31.300      857.992
06/09/2013  12:09:00       54.086       41.199       41.285       54.737       43.930       43.938     2996.089     1929.878     1930.529        0.659        0.343       67.990       35.615        0.274      350.944       32.484      857.992
06/09/2013  12:10:00       15.467      -24.899       -2.750       38.630       52.309       25.928     1492.278     2736.255      672.237        0.288        0.245       29.312       11.879        0.164      350.457       31.636      857.975
06/09/2013  12:11:00        7.417      -25.163        7.884       44.600       46.600       40.040     1989.139     2171.519     1603.223        0.326        0.288       26.233       30.452        1.347      350.750       32.146      857.963
06/09/2013  12:12:00       31.135       18.674       13.825       33.060       32.332       39.377     1092.995     1045.385     1550.513        0.260        0.184       36.306       26.325        0.526      351.370       33.227      857.956
06/09/2013  12:13:00       55.507       24.562       13.609       52.749       44.862       30.638     2782.493     2012.597      938.709        0.480        0.287       60.699       28.488        0.220      351.399       33.275      857.938
06/09/2013  12:14:00       53.288       79.893        2.612       50.375       57.630       46.160     2537.634     3321.188     2130.772        0.861        0.399       96.034       40.348        0.177      351.676       33.760      857.914
06/09/2013  12:15:00       24.919       64.379        0.252       49.442       60.656       39.347     2444.476     3679.180     1548.157        0.622        0.384       69.034       31.193        0.204      351.670       33.750      857.903
06/09/2013  12:16:00      -13.378      101.378        2.802       30.168       55.935       38.456      910.111     3128.695     1478.848        0.799        0.276      102.257       34.097        0.111      351.534       33.511      857.880
06/09/2013  12:17:00      -36.807      103.388       -7.408       33.605       46.289       27.961     1129.286     2142.658      781.793        0.808        0.203      109.744       30.044        0.075      351.638       33.694      857.857
06/09/2013  12:18:00      -71.390      124.274       -6.589       40.810       56.605       34.163     1665.483     3204.146     1167.116        1.331        0.302      143.320       30.132        0.044      351.714       33.827      857.836
06/09/2013  12:19:00      -42.835       57.156        2.098       37.869       38.835       34.284     1434.075     1508.185     1175.397        0.461        0.206       71.426       27.072        0.144      352.020       34.360      857.828
06/09/2013  12:20:00        9.013       17.037       32.977       20.236       24.956       16.182      409.490      622.778      261.843        0.138        0.065       19.274        7.881        0.167      352.702       35.555      857.814
06/09/2013  12:21:00      -19.806       27.443       25.728       23.969       24.528       25.964      574.517      601.640      674.106        0.183        0.093       33.844       15.172        0.201      351.856       34.075      857.808
06/09/2013  12:22:00      -35.209       23.959       18.467       31.329       17.205       19.187      981.536      296.000      368.153        0.190        0.082       42.588       17.267        0.164      351.808       33.990      857.804
06/09/2013  12:23:00      -27.898       17.337       25.067       25.853       22.933       24.980      668.372      525.919      623.997        0.176        0.091       32.847       20.561        0.392      352.011       34.346      857.786
06/09/2013  12:24:00       20.737       -5.425       35.099       37.811       17.328       14.680     1429.637      300.252      215.506        0.182        0.097       21.435        7.769        0.131      351.866       34.096      857.775
06/09/2013  12:25:00       36.243       53.672       10.259       25.469       24.304       25.170      648.654      590.679      633.542        0.309        0.094       64.763       12.621        0.038      351.546       33.533      857.765
06/09/2013  12:26:00       67.861       62.000       52.162       51.323       49.819       50.719     2634.035     2481.945     2572.387        0.943        0.384       91.919       28.339        0.095      351.828       34.025      857.730
06/09/2013  12:27:00       58.743       74.375       73.672       62.493       40.842       30.697     3905.348     1668.097      942.305        1.046        0.326       94.775       26.475        0.078      351.939       34.218      857.718
06/09/2013  12:28:00       40.827       87.264       74.953       62.005       54.465       40.171     3844.596     2966.483     1613.745        1.166        0.421       96.342       35.737        0.138      351.671       33.751      857.697
06/09/2013  12:29:00      106.586       73.696       43.596       87.223       50.139       49.737     7607.789     2513.870     2473.726        1.564        0.630      129.583       25.620        0.039      351.776       33.933      857.683
06/09/2013  12:30:00      131.442      109.788       30.739       86.752       64.817       67.089     7525.904     4201.287     4500.946        2.325        0.811      171.262       44.919        0.069      351.772       33.923      857.651
06/09/2013  12:31:00      110.299       82.817       19.076       78.584       67.888       46.828     6175.391     4608.837     2192.864        1.618        0.649      137.929       18.806        0.019      352.045       34.402      857.638
06/09/2013  12:32:00       48.242       72.631       12.797       64.304       58.392       49.978     4135.017     3409.622     2497.833        0.890        0.502       87.193       36.978        0.180      351.903       34.156      857.631
06/09/2013  12:33:00       24.656      113.710       -6.688       57.380       68.099       44.029     3292.443     4637.485     1938.520        1.172        0.493      116.353       44.243        0.145      351.903       34.156      857.619
06/09/2013  12:34:00       21.627       81.739      -15.054       65.337       41.283       35.652     4268.988     1704.303     1271.070        0.731        0.362       84.552       21.589        0.065      351.699       33.800      857.619
06/09/2013  12:35:00        6.872       52.495       -0.647       38.761       43.102       24.132     1502.396     1857.774      582.377        0.337        0.197       52.942       19.743        0.139      352.077       34.460      857.614
06/09/2013  12:36:00      -29.308       47.593        5.006       26.954       38.756       27.935      726.493     1501.999      780.358        0.308        0.150       55.894       25.270        0.204      352.154       34.596      857.597
06/09/2013  12:37:00      -24.191       91.337        2.721       48.018       57.214       33.982     2305.722     3273.456     1154.790        0.783        0.337       94.486       36.649        0.150      352.166       34.616      857.579
06/09/2013  12:38:00      -19.985       27.488       24.479       22.424       32.756       25.536      502.852     1072.943      652.099        0.199        0.111       33.985       13.691        0.162      352.849       35.811      857.566
06/09/2013  12:39:00       14.888        7.384       36.325       22.438       22.926       16.791      503.458      525.619      281.936        0.145        0.066       16.618        5.561        0.112      352.932       35.957      857.554
06/09/2013  12:40:00      -27.853        0.253        4.029       44.239       34.975       26.740     1957.102     1223.268      715.016        0.234        0.195       27.854       16.891        0.368      352.562       35.308      857.549
06/09/2013  12:41:00      -13.817      -15.312       32.120       51.649       46.356       35.465     2667.583     2148.868     1257.738        0.376        0.304       20.624       33.791        2.684      352.456       35.122      857.529
06/09/2013  12:42:00      -20.607       33.836       19.534       28.018       53.214       38.240      785.003     2831.766     1462.296        0.351        0.254       39.618       31.197        0.620      352.637       35.439      857.530
06/09/2013  12:43:00      -31.789       76.324        3.866       25.570       49.459       33.343      653.847     2446.234     1111.784        0.553        0.211       82.680       18.322        0.049      352.499       35.199      857.519
06/09/2013  12:44:00       36.493       45.660       17.751       53.823       41.875       30.365     2896.869     1753.498      922.062        0.465        0.279       58.451       26.851        0.211      352.683       35.521      857.509
06/09/2013  12:45:00       94.923       70.462       19.848       35.560       23.987       26.257     1264.547      575.355      689.414        0.845        0.126      118.217       13.367        0.013      351.909       34.168      857.491
06/09/2013  12:46:00       42.632       31.214       17.131       28.892       30.718       29.228      834.724      943.583      854.257        0.286        0.132       52.838       17.355        0.108      352.080       34.465      857.482
06/09/2013  12:47:00       -1.340        6.056       25.647       17.756       31.954       20.312      315.269     1021.043      412.588        0.122        0.087        6.203       17.357        7.831      352.290       34.833      857.462
06/09/2013  12:48:00      -36.059       72.067       17.659       59.779       52.698       42.338     3573.505     2777.052     1792.528        0.747        0.407       80.584       21.792        0.073      352.386       35.000      857.449
06/09/2013  12:49:00      -83.348      113.612      -12.010       99.822       73.653       47.647     9964.425     5424.746     2270.255        1.883        0.883      140.906       36.682        0.068      352.021       34.361      857.434
06/09/2013  12:50:00        4.330      130.268       17.234      110.955      120.902       78.465    12311.080    14617.377     6156.810        2.518        1.654      130.340       43.507        0.111      352.337       34.914      857.378
06/09/2013  12:51:00       83.206       70.509      126.794       96.801      150.340       73.320     9370.395    22602.224     5375.796        3.265        1.867      109.063       84.844        0.605      351.942       34.222      857.362
06/09/2013  12:52:00      103.139       49.282       29.814       77.877       49.448       40.939     6064.758     2445.134     1676.036        1.207        0.509      114.309       42.583        0.139      351.359       33.206      857.373
06/09/2013  12:53:00       34.482       11.339       48.714       57.976       54.290       29.374     3361.204     2947.352      862.842        0.543        0.359       36.298       33.212        0.837      351.977       34.284      857.358
06/09/2013  12:54:00       99.684       49.982       37.418       51.981       67.632       52.262     2702.059     4574.153     2731.362        1.192        0.500      111.513       34.423        0.095      351.660       33.731      857.336
06/09/2013  12:55:00       68.010       43.282       55.989       81.095       75.745       44.742     6576.448     5737.306     2001.833        1.197        0.716       80.615       33.217        0.170      351.344       33.180      857.331
06/09/2013  12:56:00       43.431      -33.951        5.222       43.975       54.529       32.150     1933.813     2973.401     1033.613        0.450        0.297       55.126       18.522        0.113      351.627       33.676      857.325
06/09/2013  12:57:00       46.751       16.932       29.565       59.570       61.528       35.137     3548.540     3785.677     1234.589        0.596        0.428       49.722       30.902        0.386      351.913       34.172      857.317
06/09/2013  12:58:00       16.684       73.631       86.344       59.292       63.012       58.598     3515.534     3970.532     3433.728        1.204        0.546       75.497       53.517        0.502      351.737       33.866      857.300
06/09/2013  12:59:00       54.156       27.432       41.963       51.136       59.595       51.440     2614.915     3551.606     2646.055        0.713        0.441       60.707       46.823        0.595      351.655       33.723      857.307
06/09/2013  13:00:00        9.817      -44.329       17.359       43.045       59.628       34.624     1852.886     3555.479     1198.836        0.448        0.330       45.403       14.394        0.101      351.932       34.206      857.274
06/09/2013  13:01:00       26.477      -78.623       17.280       48.590       62.269       41.583     2360.952     3877.382     1729.108        0.757        0.398       82.962       24.118        0.085      351.841       34.047      857.261
06/09/2013  13:02:00       -4.076     -118.806      -13.329       50.670       40.047       30.438     2567.477     1603.786      926.471        0.970        0.255      118.876       12.699        0.011      351.527       33.503      857.256
06/09/2013  13:03:00      -38.977      -74.056       -4.637       44.650       31.992       34.624     1993.639     1023.485     1198.831        0.562        0.211       83.687       20.992        0.063      351.611       33.648      857.234
06/09/2013  13:04:00        0.717        2.505       11.762       40.851       31.658       30.111     1668.821     1002.250      906.682        0.186        0.179        2.606       25.298       94.272      351.999       34.324      857.203
06/09/2013  13:05:00        7.664        7.789       25.623       35.588       34.505       27.917     1266.524     1190.569      779.354        0.201        0.162       10.927       24.083        4.857      351.412       33.301      857.207
06/09/2013  13:06:00       -0.783       11.401       28.496       28.118       28.012       16.588      790.609      784.657      275.168        0.140        0.093       11.427        9.584        0.703      351.732       33.857      857.203
06/09/2013  13:07:00       14.550       -9.366       18.511       49.008       47.895       31.502     2401.787     2293.910      992.380        0.316        0.284       17.304       32.136        3.449      351.367       33.221      857.183
06/09/2013  13:08:00      -31.709      -20.203       14.395       45.201       31.109       24.316     2043.168      967.778      591.284        0.261        0.180       37.599       13.615        0.131      352.081       34.466      857.181
06/09/2013  13:09:00      -50.871      -18.663        7.905       42.592       35.095       24.733     1814.080     1231.662      611.734        0.333        0.183       54.186       18.865        0.121      352.000       34.325      857.173
06/09/2013  13:10:00        5.167       19.640       31.023       27.732       27.204       20.656      769.045      740.082      426.654        0.165        0.097       20.308        9.499        0.219      351.492       33.438      857.169
06/09/2013  13:11:00       28.192       19.657       16.393       36.038       31.740       27.799     1298.703     1007.412      772.764        0.226        0.154       34.368       17.468        0.258      351.177       32.890      857.177
06/09/2013  13:12:00       10.213        4.313       30.207       27.609       28.935       16.827      762.253      837.259      283.139        0.146        0.094       11.086        8.974        0.655      351.751       33.891      857.170
06/09/2013  13:13:00       51.620        0.794        5.270       53.300       23.890       24.837     2840.933      570.739      616.865        0.336        0.201       51.626       12.640        0.060      351.096       32.748      857.160
06/09/2013  13:14:00      -24.322       16.562        9.919       40.165       29.901       24.073     1613.204      894.098      579.515        0.202        0.154       29.425       13.434        0.208      351.187       32.907      857.151
06/09/2013  13:15:00      -26.284       -4.534        0.175       27.931       23.027       20.770      780.155      530.262      431.389        0.123        0.087       26.673       17.077        0.410      352.116       34.528      857.148
06/09/2013  13:16:00       -5.032      -62.542        5.521       32.377       42.090       26.034     1048.239     1771.589      677.786        0.373        0.175       62.745       23.449        0.140      352.082       34.467      857.144
06/09/2013  13:17:00      -20.932      -26.950       27.549       74.101       43.073       28.689     5491.009     1855.323      823.038        0.504        0.408       34.124       37.319        1.196      352.136       34.563      857.134
06/09/2013  13:18:00       -2.157       -6.106        8.585       63.821       30.676       27.018     4073.097      940.986      729.999        0.293        0.287        6.476       13.987        4.665      351.786       33.951      857.124
06/09/2013  13:19:00       -1.886      -12.117       11.181       27.180       29.694       25.252      738.754      881.747      637.658        0.127        0.113       12.263        8.732        0.507      351.595       33.618      857.114
06/09/2013  13:20:00       -5.294       12.525       34.143       28.490       44.017       20.742      811.693     1937.496      430.233        0.226        0.159       13.597       12.893        0.899      351.600       33.628      857.094
06/09/2013  13:21:00      -22.238      -27.051       17.468       35.003       31.579       29.747     1225.202      997.206      884.864        0.232        0.155       35.018       29.393        0.705      351.999       34.324      857.082
06/09/2013  13:22:00       10.340       23.299       64.319       38.035       39.883       24.706     1446.649     1590.618      610.364        0.422        0.182       25.490       21.454        0.708      351.895       34.142      857.081
06/09/2013  13:23:00      -37.436     -106.058       -3.156       37.584       62.344       22.810     1412.560     3886.822      520.285        0.924        0.291      112.471       27.517        0.060      351.598       33.623      857.088
06/09/2013  13:24:00      -12.115      -31.404       -3.877       21.678       40.030       25.764      469.957     1602.427      663.765        0.194        0.137       33.660       18.372        0.298      351.889       34.132      857.063
06/09/2013  13:25:00       53.717       -7.641       12.040       39.633       18.868       27.906     1570.736      356.010      778.730        0.290        0.135       54.258       25.017        0.213      350.813       32.256      857.047
06/09/2013  13:26:00       40.812       27.715       38.637       33.087       27.023       17.534     1094.770      730.248      307.451        0.303        0.107       49.333        7.953        0.026      350.873       32.360      857.033
06/09/2013  13:27:00       50.822       -2.672       34.686       43.560       33.652       28.074     1897.445     1132.476      788.157        0.380        0.191       50.892       30.456        0.358      351.584       33.599      857.016
06/09/2013  13:28:00      -10.850      -59.094       -7.530       11.399       12.679       10.706      129.934      160.746      114.615        0.204        0.020       60.082        3.516        0.003      351.704       33.814      857.002
06/09/2013  13:29:00       31.563      -50.358       -3.418       27.715       39.325       27.028      768.115     1546.445      730.503        0.329        0.152       59.432       18.883        0.101      351.550       33.540      856.983
06/09/2013  13:30:00       52.156       49.828       26.131       43.197       37.889       32.375     1865.983     1435.598     1048.171        0.512        0.217       72.132       25.569        0.126      351.731       33.856      856.965
06/09/2013  13:31:00       84.179       40.992       12.743       61.336       47.197       33.695     3762.103     2227.553     1135.339        0.803        0.356       93.629       16.183        0.030      351.764       33.913      856.933
06/09/2013  13:32:00      121.836       83.670       44.450       43.389       40.448       42.987     1882.616     1636.071     1847.872        1.459        0.268      147.799       23.508        0.025      351.683       33.772      856.914
06/09/2013  13:33:00       61.539       45.500       14.315       53.556       43.636       33.165     2868.255     1904.095     1099.940        0.597        0.294       76.532       14.971        0.038      352.178       34.637      856.893
06/09/2013  13:34:00       65.321       30.496       19.262       60.945       44.020       27.599     3714.351     1937.782      761.708        0.599        0.321       72.089       19.015        0.070      352.050       34.413      856.865
06/09/2013  13:35:00       67.366        7.811       28.035       50.786       55.350       35.346     2579.243     3063.676     1249.334        0.614        0.345       67.817       26.159        0.149      352.069       34.447      856.837
06/09/2013  13:36:00      116.146       95.733       58.488       62.838       57.989       49.629     3948.616     3362.687     2463.067        1.792        0.489      150.515       26.065        0.030      352.038       34.390      856.817
06/09/2013  13:37:00      219.646      119.729       33.457       74.410       59.057       57.584     5536.895     3487.676     3315.935        3.802        0.617      250.159       42.065        0.028      351.877       34.106      856.796
06/09/2013  13:38:00      198.786      135.366       46.679       79.954       67.561       56.748     6392.611     4564.546     3220.367        3.710        0.709      240.499       55.464        0.053      351.838       34.038      856.773
06/09/2013  13:39:00      165.049       88.343        1.309       72.206       60.744       50.037     5213.774     3689.777     2503.656        2.322        0.570      187.205       29.057        0.024      352.034       34.381      856.754
06/09/2013  13:40:00      152.500      117.008        0.756       75.910       58.425       49.436     5762.279     3413.522     2443.921        2.428        0.581      192.216       36.919        0.037      352.182       34.640      856.751
06/09/2013  13:41:00       70.371       60.308       10.283       36.201       35.059       49.805     1310.541     1229.119     2480.556        0.686        0.251       92.678       26.875        0.084      352.040       34.394      856.751
06/09/2013  13:42:00       68.984       67.322       21.418       47.954       40.753       39.317     2299.542     1660.828     1545.815        0.763        0.275       96.390       26.332        0.075      351.560       33.557      856.726
06/09/2013  13:43:00      -20.513      -14.156       13.585       37.309       25.469       17.456     1391.939      648.664      304.698        0.158        0.117       24.923       12.988        0.272      351.916       34.180      856.706
06/09/2013  13:44:00       -8.395       72.685       18.555       37.177       51.393       31.156     1382.098     2641.244      970.678        0.534        0.250       73.168       33.322        0.207      352.272       34.801      856.684
06/09/2013  13:45:00      -23.560      166.281       -8.837       38.697       66.123       25.990     1497.483     4372.253      675.478        1.741        0.327      167.942       26.820        0.026      351.997       34.320      856.651
06/09/2013  13:46:00      -25.030      251.575      -19.147       44.483       67.341       29.397     1978.703     4534.752      864.211        3.583        0.369      252.817       28.685        0.013      351.959       34.248      856.629
06/09/2013  13:47:00        6.627      225.531      -17.870       48.183       64.122       51.504     2321.632     4111.612     2652.657        3.015        0.454      225.629       45.684        0.041      352.146       34.578      856.609
06/09/2013  13:48:00      -67.944      173.808      -17.422       51.181       49.408       32.995     2619.522     2441.134     1088.645        2.064        0.307      186.616       32.094        0.030      351.957       34.248      856.599
06/09/2013  13:49:00      -98.937       79.646       -9.883       50.739       54.434       33.387     2574.398     2963.030     1114.709        1.144        0.333      127.012       34.639        0.074      351.897       34.145      856.576
06/09/2013  13:50:00     -117.162       81.791      -24.137       31.179       47.057       24.483      972.116     2214.408      599.433        1.239        0.189      142.887       21.867        0.023      351.842       34.051      856.539
06/09/2013  13:51:00      -68.287      101.425      -10.929       31.069       53.560       28.570      965.291     2868.667      816.222        0.986        0.233      122.271       26.304        0.046      351.953       34.244      856.523
06/09/2013  13:52:00       28.379       29.969       10.502       21.886       21.654       25.058      478.983      468.903      627.889        0.169        0.079       41.273       15.672        0.144      352.196       34.668      856.503
06/09/2013  13:53:00       47.994       35.668       13.580       30.224       26.955       23.871      913.493      726.577      569.812        0.298        0.110       59.797       11.485        0.037      352.135       34.561      856.486
06/09/2013  13:54:00       33.696       61.313       12.727       71.079       48.964       34.447     5052.175     2397.428     1186.612        0.684        0.432       69.962       28.450        0.165      352.109       34.516      856.469
06/09/2013  13:55:00       52.768       18.568       27.651       58.370       34.430       32.960     3407.063     1185.427     1086.366        0.479        0.284       55.940       14.435        0.067      351.868       34.095      856.463
06/09/2013  13:56:00       56.831        6.500       22.956       44.809       57.224       27.762     2007.842     3274.602      770.753        0.492        0.303       57.201       18.616        0.106      351.542       33.526      856.447
06/09/2013  13:57:00      165.909       68.821       28.864      120.144       84.706       40.186    14434.492     7175.117     1614.916        2.816        1.161      179.617       31.130        0.030      351.635       33.685      856.443
06/09/2013  13:58:00      203.137      131.470       19.664       79.869       57.870       50.190     6379.065     3348.947     2519.033        3.559        0.612      241.970       30.273        0.016      351.957       34.246      856.442
06/09/2013  13:59:00      134.705       90.364       24.361       54.977       42.240       46.267     3022.434     1784.230     2140.608        1.692        0.347      162.207       23.420        0.021      352.052       34.414      856.430
06/09/2013  14:00:00      161.071      107.501       25.200       55.166       52.883       43.052     3043.313     2796.573     1853.504        2.291        0.385      193.650       32.558        0.028      352.159       34.599      856.428
06/09/2013  14:01:00       67.145       31.678       25.676       73.939       42.579       31.894     5466.957     1812.938     1017.233        0.723        0.415       74.243       19.744        0.071      352.145       34.580      856.421
06/09/2013  14:02:00      101.062       64.023        7.990       62.346       46.259       31.436     3886.971     2139.924      988.195        1.069        0.351      119.634       28.529        0.057      351.922       34.189      856.414
06/09/2013  14:03:00       11.129        4.888       33.945       29.605       28.912       17.816      876.448      835.897      317.405        0.166        0.101       12.155       16.152        1.766      351.841       34.048      856.404
06/09/2013  14:04:00       12.461       11.367       35.997       28.833       29.118       19.348      831.352      847.871      374.360        0.182        0.103       16.867       15.235        0.816      351.344       33.180      856.398
06/09/2013  14:05:00        0.694       10.822       29.082       38.898       34.884       24.139     1513.059     1216.868      582.709        0.214        0.166       10.845       23.345        4.634      351.165       32.869      856.390
06/09/2013  14:06:00       35.938      -45.573        6.831       45.372       56.429       29.114     2058.636     3184.285      847.612        0.475        0.305       58.038       39.739        0.469      351.792       33.962      856.373
06/09/2013  14:07:00       24.335      -61.782       -1.146       34.008       48.420       32.077     1156.555     2344.450     1028.958        0.447        0.226       66.401       33.504        0.255      352.052       34.417      856.366
06/09/2013  14:08:00       -9.144       22.080       47.366       13.036       17.809       12.350      169.931      317.165      152.516        0.173        0.032       23.899        9.333        0.153      351.981       34.292      856.355
06/09/2013  14:09:00        6.356       26.547       39.421       30.553       30.235       26.360      933.482      914.148      694.862        0.242        0.127       27.298       27.646        1.026      351.172       32.883      856.350
06/09/2013  14:10:00       45.732      -45.478       36.292       40.380       50.495       28.806     1630.533     2549.793      829.767        0.524        0.251       64.496       21.317        0.109      351.430       33.332      856.337
06/09/2013  14:11:00       16.957      -22.379       27.127       25.882       35.872       27.095      669.875     1286.831      734.145        0.211        0.135       28.078       19.688        0.492      351.865       34.090      856.324
06/09/2013  14:12:00        7.651        6.835       29.071       30.867       27.843       21.189      952.794      775.217      448.967        0.156        0.109       10.259       19.744        3.704      351.417       33.310      856.306
06/09/2013  14:13:00       32.281       42.289       56.397       55.308       45.937       44.473     3058.938     2110.235     1977.808        0.658        0.357       53.202       43.283        0.662      351.090       32.739      856.292
06/09/2013  14:14:00       35.955       23.423       50.791       40.506       49.994       37.194     1640.752     2499.364     1383.394        0.497        0.276       42.911       36.225        0.713      351.191       32.914      856.282
06/09/2013  14:15:00       32.137       16.464       29.268       23.283       21.972       16.875      542.097      482.769      284.769        0.173        0.065       36.109       10.172        0.079      351.334       33.164      856.275
06/09/2013  14:16:00      -23.309      -19.582        4.063       39.145       26.178       22.995     1532.329      685.275      528.781        0.184        0.137       30.443       11.497        0.143      351.805       33.984      856.252
06/09/2013  14:17:00       -1.000       -1.482       11.485       30.403       13.499       15.881      924.346      182.233      252.218        0.075        0.068        1.788       10.261       32.937      351.751       33.891      856.237
06/09/2013  14:18:00       30.757        2.810       25.537       26.476       24.930       26.513      700.981      621.518      702.919        0.182        0.101       30.885       23.593        0.584      351.331       33.159      856.226
06/09/2013  14:19:00       31.733       17.995       21.760       23.198       16.479       23.546      538.170      271.568      554.432        0.158        0.068       36.481        9.313        0.065      351.249       33.016      856.221
06/09/2013  14:20:00       30.773       19.802       12.704       32.872       14.372       13.914     1080.539      206.565      193.591        0.149        0.074       36.594        8.872        0.059      351.536       33.516      856.222
06/09/2013  14:21:00       21.445       -3.654       14.422       27.831       29.983       22.113      774.557      898.970      488.993        0.142        0.108       21.755       12.218        0.315      351.460       33.382      856.224
06/09/2013  14:22:00       20.458      -15.352       -0.398       22.367       25.296       18.074      500.301      639.880      326.655        0.106        0.073       25.578       13.835        0.293      351.230       32.982      856.225
06/09/2013  14:23:00       49.085        1.424       10.894       38.285       21.964       23.116     1465.742      482.409      534.336        0.251        0.124       49.105        5.316        0.012      351.028       32.630      856.222
06/09/2013  14:24:00       -4.843       15.712       13.135       18.119       51.956       30.256      328.305     2699.394      915.428        0.219        0.197       16.442       30.766        3.501      351.761       33.908      856.212
06/09/2013  14:25:00       18.814       22.025       11.154       19.868       21.589       21.172      394.730      466.074      448.253        0.114        0.065       28.967       15.382        0.282      351.474       33.406      856.227
06/09/2013  14:26:00      -36.098       30.756        1.486       17.647       16.514       14.679      311.409      272.724      215.467        0.153        0.040       47.423        8.326        0.031      351.867       34.093      856.232
06/09/2013  14:27:00      -10.454       23.520       15.188       16.503       15.689       15.302      272.365      246.155      234.153        0.082        0.038       25.738        7.862        0.093      351.945       34.231      856.237
06/09/2013  14:28:00      -17.256       61.762        4.711       14.872       23.045       16.057      221.165      531.078      257.837        0.257        0.051       64.127        5.687        0.008      351.791       33.961      856.235
06/09/2013  14:29:00      -31.709       46.887       -8.136       26.930       31.782       20.024      725.223     1010.115      400.965        0.270        0.107       56.602       21.511        0.144      351.865       34.090      856.235
06/09/2013  14:30:00        3.839        5.750       11.374       27.292       23.832       13.039      744.848      567.954      170.004        0.083        0.074        6.914       10.937        2.503      351.850       34.064      856.241
06/09/2013  14:31:00       -0.317       -4.522        3.322       24.361       33.381       17.502      593.482     1114.310      306.319        0.102        0.101        4.533       18.374       16.427      351.124       32.798      856.249
06/09/2013  14:32:00      -74.067      -82.573       -0.578       44.957       55.385       25.204     2021.151     3067.533      635.261        0.901        0.286      110.925       24.699        0.050      351.764       33.913      856.262
06/09/2013  14:33:00      -74.114      -89.522       10.304       58.361       47.375       28.635     3405.953     2244.423      819.948        1.004        0.324      116.220       29.498        0.064      351.862       34.084      856.264
06/09/2013  14:34:00     -114.100      -88.396       -9.781       35.037       70.650       22.075     1227.604     4991.491      487.287        1.382        0.335      144.335       25.435        0.031      351.877       34.109      856.267
06/09/2013  14:35:00     -118.558      -96.060        6.085      104.920       77.566       38.937    11008.294     6016.550     1516.127        2.093        0.927      152.590       46.139        0.091      351.917       34.177      856.272
06/09/2013  14:36:00     -245.256     -103.218       -2.671       65.071       63.002       37.563     4234.224     3969.296     1410.971        4.021        0.481      266.091       29.087        0.012      351.899       34.141      856.269
06/09/2013  14:37:00     -242.531     -119.418       -3.593       47.265       51.069       29.931     2233.968     2608.082      895.887        3.942        0.287      270.336       23.143        0.007      351.901       34.146      856.282
06/09/2013  14:38:00     -131.024      -66.291        1.053       79.025       59.203       28.743     6244.893     3504.981      826.172        1.607        0.529      146.840       31.943        0.047      351.871       34.097      856.299
06/09/2013  14:39:00      -75.386     -128.453        5.045       47.951       62.920       31.373     2299.291     3958.950      984.295        1.472        0.362      148.940       27.425        0.034      351.885       34.123      856.298
06/09/2013  14:40:00     -150.950      -85.942       -4.730       72.261       47.959       29.695     5221.704     2300.071      881.767        1.930        0.420      173.700       28.190        0.026      351.888       34.126      856.299
06/09/2013  14:41:00      -47.619      -60.692        2.846       42.491       50.791       30.359     1805.467     2579.691      921.675        0.563        0.265       77.144       21.546        0.078      351.881       34.116      856.309
06/09/2013  14:42:00       -5.692        8.385       29.162       18.874       23.302       16.840      356.233      542.969      283.583        0.107        0.059       10.134       15.933        2.472      351.664       33.739      856.302
06/09/2013  14:43:00      -28.598      -62.347        3.225       43.834       60.189       23.567     1921.381     3622.686      555.414        0.541        0.305       68.593       23.282        0.115      351.463       33.387      856.291
06/09/2013  14:44:00     -111.001     -102.860        5.929       69.479       63.690       36.623     4827.329     4056.363     1341.218        1.658        0.511      151.332       31.286        0.043      351.887       34.127      856.277
06/09/2013  14:45:00      -93.695     -137.289        5.149       54.584       62.183       28.260     2979.385     3866.692      798.635        1.765        0.382      166.214       15.709        0.009      351.873       34.099      856.281
06/09/2013  14:46:00      -23.033      -21.796       21.073       36.740       43.158       16.589     1349.831     1862.644      275.193        0.247        0.174       31.711       16.666        0.276      351.852       34.065      856.272
06/09/2013  14:47:00       -3.675      -73.892        2.354       33.156       62.382       29.120     1099.322     3891.464      847.999        0.566        0.292       73.984       26.614        0.129      351.734       33.862      856.265
06/09/2013  14:48:00      -54.347      -97.893        8.934       43.278       61.423       28.549     1873.024     3772.734      815.062        0.954        0.323      111.967       26.360        0.055      351.780       33.940      856.258
06/09/2013  14:49:00      -10.978      -27.388       24.130       76.293       46.823       29.470     5820.585     2192.405      868.459        0.517        0.444       29.506       35.817        1.474      351.695       33.792      856.254
06/09/2013  14:50:00       38.422      -62.512       34.304       42.631       79.234       35.925     1817.376     6278.080     1290.639        0.797        0.469       73.375       41.083        0.313      351.516       33.480      856.239
06/09/2013  14:51:00       32.133      -68.848       11.659       47.227       85.284       42.368     2230.385     7273.286     1795.009        0.860        0.565       75.977       39.699        0.273      351.447       33.361      856.223
06/09/2013  14:52:00       45.074      -96.645        1.876       51.988       51.326       32.689     2702.739     2634.325     1068.567        0.889        0.320      106.639       20.035        0.035      351.537       33.518      856.206
06/09/2013  14:53:00       24.354      -85.610        4.797       57.861       47.230       34.545     3347.924     2230.701     1193.362        0.736        0.339       89.007       33.549        0.142      351.589       33.609      856.187
06/09/2013  14:54:00       14.395      -44.391       22.035       48.742       44.984       23.142     2375.825     2023.559      535.563        0.380        0.247       46.667       18.554        0.158      351.646       33.707      856.191
06/09/2013  14:55:00       22.274      -39.977       12.264       31.755       42.618       26.399     1008.408     1816.279      696.889        0.288        0.176       45.764       16.312        0.127      351.491       33.436      856.178
06/09/2013  14:56:00      -22.442      -71.334       -2.260       52.169       51.179       25.761     2721.588     2619.341      663.640        0.580        0.300       74.781       20.615        0.076      351.395       33.270      856.168
06/09/2013  14:57:00      -35.195      -66.001       10.988       54.675       77.882       28.575     2989.350     6065.646      816.550        0.779        0.494       74.799       35.329        0.223      351.635       33.689      856.156
06/09/2013  14:58:00       16.775      -68.752        5.103       47.889       40.087       27.379     2293.361     1606.964      749.627        0.484        0.232       70.769       19.387        0.075      351.554       33.547      856.152
06/09/2013  14:59:00        5.766      -38.740       31.381       35.839       48.536       20.139     1284.462     2355.730      405.569        0.328        0.202       39.167       18.085        0.213      351.400       33.279      856.141
06/09/2013  15:00:00       28.025      -54.829       36.015       36.981       50.014       29.252     1367.598     2501.399      855.684        0.491        0.236       61.577       20.640        0.112      351.600       33.629      856.143
06/09/2013  15:01:00       52.566     -109.484       10.180       72.441       91.974       51.262     5247.738     8459.254     2627.832        1.559        0.817      121.449       57.140        0.221      351.488       33.429      856.147
06/09/2013  15:02:00       -2.106     -136.616       -5.079       52.879       40.496       35.113     2796.166     1639.957     1232.919        1.218        0.283      136.632       19.703        0.021      351.471       33.402      856.169
06/09/2013  15:03:00      -10.565      -95.474       -8.287       40.997       43.603       33.382     1680.772     1901.191     1114.380        0.699        0.235       96.056       29.838        0.096      351.474       33.408      856.201
06/09/2013  15:04:00      -15.970      -57.684       -5.142       38.385       43.043       33.968     1473.378     1852.700     1153.797        0.404        0.224       59.854       26.603        0.198      351.430       33.330      856.219
06/09/2013  15:05:00      -66.315      -62.682       -0.837       55.392       38.821       24.078     3068.280     1507.091      579.756        0.674        0.258       91.251       22.472        0.061      351.465       33.393      856.252
06/09/2013  15:06:00     -202.669     -177.660       -7.897      112.987       95.539       56.706    12766.084     9127.782     3215.598        4.890        1.255      269.514       61.204        0.052      351.656       33.724      856.286
06/09/2013  15:07:00     -205.094     -206.914       -0.351      162.217      167.828       70.298    26314.433    28166.168     4941.870        7.214        2.971      291.337       76.536        0.069      351.477       33.408      856.313
06/09/2013  15:08:00     -304.042     -210.549       -7.712      132.607       98.321       66.855    17584.691     9667.030     4469.562        8.427        1.586      369.828       69.335        0.035      351.295       33.092      856.316
06/09/2013  15:09:00     -257.805     -192.570       10.436      145.660      109.086       73.455    21216.779    11899.741     5395.703        7.108        1.926      321.786       75.550        0.055      351.206       32.936      856.330
06/09/2013  15:10:00     -211.605     -157.141      -14.396      152.441       75.663       39.655    23238.370     5724.814     1572.545        5.010        1.527      263.572       45.441        0.030      351.177       32.885      856.317
06/09/2013  15:11:00     -285.443     -229.822      -18.591      136.950       97.188       60.889    18755.392     9445.580     3707.440        8.327        1.595      366.464       61.016        0.028      351.165       32.863      856.295
06/09/2013  15:12:00     -203.255     -211.097        6.457      134.874      137.778       73.080    18191.103    18982.787     5340.690        6.421        2.126      293.043       66.429        0.051      351.188       32.904      856.297
06/09/2013  15:13:00     -302.390     -235.652       -2.345      222.845      145.279       96.517    49659.756    21106.084     9315.574       11.351        4.004      383.368      115.826        0.091      351.215       32.952      856.338
06/09/2013  15:14:00     -290.501     -122.347      -11.122      200.453      136.396       90.564    40181.559    18603.970     8201.818        8.322        3.349      315.214       94.866        0.091      351.208       32.939      856.383
06/09/2013  15:15:00     -608.079     -137.070      -38.043      213.735      188.108       91.682    45682.671    35384.438     8405.654       23.972        4.474      623.337       87.078        0.020      351.167       32.867      856.438
06/09/2013  15:16:00     -360.243      -70.801        1.906      268.685      137.503      102.854    72191.397    18907.152    10578.860       11.821        5.084      367.135      101.955        0.077      351.091       32.735      856.489
06/09/2013  15:17:00     -531.747      -18.563      -22.571      256.584      194.239      102.880    65835.359    37728.649    10584.270       19.886        5.707      532.071      116.701        0.048      350.996       32.569      856.542
06/09/2013  15:18:00     -246.619      -88.121       10.913      222.829      150.813       73.382    49652.932    22744.527     5384.846        7.323        3.889      261.890      100.110        0.146      350.954       32.497      856.551
06/09/2013  15:19:00     -406.779     -161.856       -5.158      240.543      219.595      101.108    57860.775    48221.844    10222.865       15.398        5.815      437.798      107.508        0.060      350.935       32.466      856.540
06/09/2013  15:20:00     -382.957     -106.965       -6.796      263.057      146.578       92.462    69198.995    21484.974     8549.131       12.867        4.962      397.615      121.521        0.093      350.913       32.428      856.568
06/09/2013  15:21:00     -294.872     -118.604       12.510      194.150      142.537       74.887    37694.241    20316.741     5608.036        8.238        3.181      317.831       82.574        0.067      350.928       32.454      856.589
06/09/2013  15:22:00     -292.980      -58.592      -18.087      174.991      128.567       73.326    30621.958    16529.420     5376.740        7.105        2.626      298.782       70.340        0.055      350.938       32.470      856.623
06/09/2013  15:23:00     -408.682      -73.795      -12.264      250.923      150.091      100.004    62962.434    22527.296    10000.722       13.403        4.775      415.291       99.782        0.058      350.928       32.454      856.651
06/09/2013  15:24:00     -271.982      -38.112       -0.381      232.590      114.463       82.902    54098.226    13101.751     6872.696        7.474        3.704      274.640       83.769        0.093      350.923       32.444      856.665
06/09/2013  15:25:00     -279.202      -93.288       -3.442      124.448       96.858       67.149    15487.193     9381.453     4508.994        5.802        1.469      294.374       69.427        0.056      350.902       32.408      856.730
06/09/2013  15:26:00     -292.193     -171.740       -5.377      127.672      115.879       68.000    16300.018    13427.991     4624.027        7.462        1.718      338.926       60.601        0.032      350.893       32.393      856.835
06/09/2013  15:27:00     -285.976     -111.342       18.648      198.200      148.336       82.268    39283.233    22003.659     6768.065        8.128        3.403      306.886       89.509        0.085      350.899       32.402      856.910
06/09/2013  15:28:00     -559.277     -297.844      -14.354      340.762      232.738      117.701   116118.580    54167.093    13853.577       29.289        9.207      633.641      138.895        0.048      350.666       31.997      857.084
06/09/2013  15:29:00     -671.223     -478.336      -19.866      394.883      296.299      144.388   155932.699    87792.916    20847.844       47.210       13.229      824.224      164.381        0.040      350.361       31.464      857.090
06/09/2013  15:30:00     -385.357     -428.330       -7.044      232.423      237.775      118.124    54020.424    56537.092    13953.291       22.824        6.226      576.166      109.530        0.036      350.282       31.328      857.173
06/09/2013  15:31:00     -545.705     -387.282      -12.840      284.928      241.422      120.683    81183.952    58284.470    14564.437       30.096        7.702      669.165      125.326        0.035      350.307       31.372      857.258
06/09/2013  15:32:00     -666.036     -507.129      -13.849      353.903      302.172      161.429   125247.453    91308.078    26059.410       47.175       12.131      837.128      179.537        0.046      350.241       31.257      857.355
06/09/2013  15:33:00     -554.465     -368.362      -16.181      306.574      258.815      147.905    93987.836    66985.227    21875.983       31.308        9.142      665.675      150.821        0.051      350.112       31.034      857.436
06/09/2013  15:34:00     -535.398     -273.283      -12.049      254.478      210.555      117.684    64758.954    44333.446    13849.433       24.219        6.147      601.111      133.286        0.049      350.045       30.915      857.528
06/09/2013  15:35:00     -713.201     -496.478      -19.702      273.996      258.843      148.689    75073.881    66999.631    22108.530       45.983        8.209      868.991      157.949        0.033      349.866       30.607      857.510
06/09/2013  15:36:00     -599.246     -443.885       -4.696      253.128      203.890      125.956    64073.723    41571.238    15864.845       33.881        6.075      745.741      129.150        0.030      349.857       30.590      857.533
06/09/2013  15:37:00     -425.726     -340.160      -11.684      241.709      193.931      126.673    58423.297    37609.223    16046.101       20.456        5.604      544.933      130.999        0.058      349.736       30.378      857.643
06/09/2013  15:38:00     -360.582     -289.744        0.117      228.928      165.577      103.509    52407.981    27415.753    10714.063       15.224        4.527      462.569      109.138        0.056      349.675       30.273      857.827
06/09/2013  15:39:00     -251.094     -317.348       -7.927      190.170      173.200      101.462    36164.623    29998.196    10294.634       12.012        3.823      404.671      101.787        0.063      349.602       30.146      858.063
06/09/2013  15:40:00     -224.573     -292.156       -1.155      163.647      189.256       70.825    26780.420    35817.818     5016.239       10.169        3.381      368.494       71.558        0.038      349.487       29.946      858.304
06/09/2013  15:41:00     -103.041     -260.924      -11.760      151.729      123.308       62.463    23021.621    15204.912     3901.638        6.047        2.106      280.533       44.839        0.026      349.105       29.285      858.437
06/09/2013  15:42:00      -34.501     -330.705      -20.058      119.928      239.680       76.314    14382.773    57446.591     5823.896        9.429        3.883      332.500       89.699        0.073      348.651       28.502      858.582
06/09/2013  15:43:00       61.742     -287.327       11.970      164.380      209.753      102.738    27020.881    43996.509    10555.142        8.403        4.079      293.886       84.994        0.084      347.738       26.923      858.553
06/09/2013  15:44:00      122.103     -223.452        3.701      199.583      121.746       85.925    39833.200    14821.993     7383.047        6.343        3.102      254.637       83.342        0.107      347.760       26.960      858.536
06/09/2013  15:45:00       58.760     -146.782       23.995      118.188       98.978       58.199    13968.355     9796.716     3387.121        2.636        1.358      158.107       47.668        0.091      347.628       26.734      858.543
06/09/2013  15:46:00       57.437     -181.554       11.884      152.089      102.836       58.222    23131.105    10575.278     3389.841        3.674        1.855      190.423       39.779        0.044      347.208       26.007      858.490
06/09/2013  15:47:00      -67.526       36.162       -4.962       36.854       53.522       25.204     1358.202     2864.631      635.240        0.537        0.243       76.599       32.013        0.175      346.557       24.891      858.437
06/09/2013  15:48:00     -206.393       59.879      -29.732       54.721       49.674       28.625     2994.433     2467.535      819.416        2.667        0.314      214.904       17.033        0.006      346.833       25.362      858.339
06/09/2013  15:49:00     -162.899       77.537       -9.257       72.284       54.462       34.500     5224.985     2966.086     1190.268        2.101        0.469      180.410       26.624        0.022      346.932       25.534      858.311
06/09/2013  15:50:00     -215.965      112.901      -23.796       85.730       69.794       53.864     7349.569     4871.164     2901.328        3.753        0.756      243.696       43.976        0.033      347.102       25.826      858.257
06/09/2013  15:51:00     -276.889      111.465      -40.110       79.264       79.920       52.129     6282.859     6387.267     2717.424        5.304        0.769      298.483       46.306        0.024      346.655       25.055      858.156
06/09/2013  15:52:00     -304.082       78.604      -21.060       95.914       65.570       41.779     9199.531     4299.423     1745.508        5.716        0.762      314.077       32.265        0.011      346.710       25.149      858.082
06/09/2013  15:53:00     -252.484      108.830      -20.443       94.686       62.786       42.389     8965.417     3942.029     1796.846        4.535        0.735      274.940       40.453        0.022      347.026       25.695      858.025
06/09/2013  15:54:00     -201.493      160.585      -48.148       54.348       55.316       35.589     2953.699     3059.841     1266.552        3.799        0.364      257.657       30.047        0.014      348.008       27.388      858.016
06/09/2013  15:55:00     -130.875       73.452      -21.461       51.290       30.548       28.854     2630.647      933.162      832.559        1.369        0.220      150.078       30.667        0.042      347.946       27.284      857.986
06/09/2013  15:56:00     -173.942       41.125      -18.123       52.300       34.634       28.416     2735.253     1199.542      807.469        1.851        0.237      178.737       19.275        0.012      347.628       26.734      857.981
06/09/2013  15:57:00     -188.373       74.576      -26.955       60.417       47.032       32.218     3650.271     2212.019     1037.993        2.433        0.345      202.597       31.782        0.025      347.518       26.544      857.992
06/09/2013  15:58:00     -134.933       34.780      -20.132       53.150       44.664       25.639     2824.881     1994.878      657.359        1.265        0.274      139.344       26.374        0.036      347.280       26.134      858.002
06/09/2013  15:59:00     -138.206        5.132      -14.257       31.126       44.016       23.648      968.829     1937.404      559.214        1.140        0.173      138.302       17.091        0.015      347.280       26.134      858.017
06/09/2013  16:00:00     -149.906       10.212      -23.036       37.682       52.688       29.014     1419.935     2775.980      841.816        1.407        0.252      150.254       20.762        0.019      347.182       25.965      858.031
06/09/2013  16:01:00     -166.466       12.977      -22.853       33.628       37.795       23.169     1130.814     1428.431      536.821        1.575        0.155      166.971       14.990        0.008      346.671       25.086      858.052
06/09/2013  16:02:00     -195.792       41.004      -13.291       56.170       48.060       27.725     3155.059     2309.766      768.674        2.321        0.312      200.040       18.575        0.009      346.825       25.348      858.069
06/09/2013  16:03:00     -301.878       83.676      -20.569       49.782       36.219       33.492     2478.218     1311.837     1121.746        5.173        0.246      313.261       29.295        0.009      347.121       25.858      858.092
06/09/2013  16:04:00     -234.157       61.443      -23.180       42.548       41.138       25.658     1810.298     1692.337      658.344        3.165        0.208      242.084       21.369        0.008      346.828       25.351      858.086
06/09/2013  16:05:00     -176.029       36.288       -7.399       55.810       47.508       27.333     3114.741     2256.994      747.090        1.924        0.306      179.730       26.720        0.022      346.719       25.166      858.081
06/09/2013  16:06:00     -160.286       84.115      -15.074       69.755       38.146       30.396     4865.772     1455.119      923.938        2.012        0.362      181.017       30.100        0.028      346.970       25.600      858.056
06/09/2013  16:07:00     -182.135       49.949      -18.543       63.186       58.100       31.337     3992.498     3375.641      982.011        2.218        0.418      188.860       27.374        0.021      346.913       25.501      857.977
06/09/2013  16:08:00     -204.220      246.215      -49.121       69.490       80.321       51.563     4828.820     6451.537     2658.726        5.934        0.697      319.887       36.351        0.013      346.969       25.596      857.851
06/09/2013  16:09:00     -190.281      224.380      -39.892       55.553      100.569       37.218     3086.140    10114.052     1385.154        5.136        0.729      294.199       43.826        0.022      347.252       26.083      857.788
06/09/2013  16:10:00     -106.265       76.371        1.968       70.666       75.841       46.841     4993.693     5751.870     2194.101        1.503        0.647      130.861       50.586        0.149      347.626       26.731      857.812
06/09/2013  16:11:00      -74.458      -86.400       -7.844       74.554       73.803       37.218     5558.359     5446.854     1385.215        1.273        0.620      114.056       31.197        0.075      347.339       26.236      857.897
06/09/2013  16:12:00     -194.629     -164.669        9.157      119.785       70.171       50.456    14348.532     4924.013     2545.770        4.344        1.091      254.944       58.848        0.053      347.649       26.768      857.964
06/09/2013  16:13:00     -330.598     -213.597        6.102      162.493      114.237       70.797    26403.830    13050.200     5012.179        9.970        2.223      393.597       71.770        0.033      347.392       26.323      857.993
06/09/2013  16:14:00     -204.021      -80.872        0.079      113.183       96.871       52.177    12810.423     9383.977     2722.401        3.654        1.246      219.465       51.087        0.054      347.310       26.182      858.008
06/09/2013  16:15:00     -211.669      -67.443       -8.535      134.544       81.304       49.426    18102.037     6610.289     2442.963        3.828        1.358      222.154       64.355        0.084      347.430       26.393      858.014
06/09/2013  16:16:00     -261.544     -140.867       -1.054      107.047       72.038       50.356    11459.120     5189.466     2535.736        5.371        0.959      297.067       49.261        0.027      347.501       26.511      858.033
06/09/2013  16:17:00     -223.785      -97.600       -6.828      111.861       81.134       40.301    12512.987     6582.730     1624.189        4.018        1.036      244.142       47.621        0.038      347.441       26.410      858.047
06/09/2013  16:18:00     -267.764      -48.814       -8.267       79.761       67.651       43.044     6361.891     4576.624     1852.794        4.347        0.640      272.177       41.304        0.023      347.578       26.645      858.020
06/09/2013  16:19:00     -220.000       55.393      -11.680       62.644       52.739       34.959     3924.266     2781.362     1222.157        2.976        0.396      226.866       29.826        0.017      347.467       26.453      857.968
06/09/2013  16:20:00     -171.439      159.937      -33.250       60.554       77.243       37.749     3666.795     5966.450     1424.955        3.357        0.553      234.459       32.844        0.020      347.486       26.487      857.914
06/09/2013  16:21:00     -206.059      221.068      -40.280       78.162       89.777       47.171     6109.286     8059.838     2225.062        5.467        0.820      302.210       46.569        0.024      347.643       26.759      857.878
06/09/2013  16:22:00     -167.401      182.436      -35.079       64.949       68.496       45.462     4218.352     4691.748     2066.824        3.675        0.549      247.600       42.071        0.029      347.759       26.957      857.879
06/09/2013  16:23:00      -86.697       73.134       -5.842       64.970       53.700       33.545     4221.069     2883.723     1125.298        1.056        0.412      113.424       31.124        0.075      347.703       26.864      857.907
06/09/2013  16:24:00        7.764        6.332        1.333       24.331       29.567       20.178      592.015      874.206      407.151        0.099        0.094       10.019       12.973        1.677      347.583       26.659      857.914
06/09/2013  16:25:00     -104.684      -60.080       -7.946       29.792       29.069       23.126      887.584      845.011      534.801        0.845        0.113      120.700       18.182        0.023      347.349       26.254      857.926
06/09/2013  16:26:00      -85.665       -2.300        0.909       74.562       49.960       29.952     5559.426     2495.955      897.095        0.815        0.448       85.696       29.933        0.122      347.222       26.035      857.952
06/09/2013  16:27:00     -141.172        7.185      -19.466       64.821       54.345       31.125     4201.720     2953.396      968.747        1.424        0.406      141.355       27.477        0.038      347.286       26.143      857.978
06/09/2013  16:28:00     -149.748      -42.084      -13.756       63.143       60.251       33.497     3987.016     3630.176     1122.072        1.656        0.437      155.549       23.202        0.022      347.338       26.232      857.989
06/09/2013  16:29:00     -146.707      -11.282       -9.241       55.699       39.759       29.570     3102.357     1580.815      874.391        1.365        0.278      147.141       21.753        0.022      347.517       26.542      858.035
06/09/2013  16:30:00     -159.962        8.952      -18.369       63.594       48.958       27.239     4044.232     2396.912      741.957        1.659        0.359      160.212       29.681        0.034      347.418       26.371      858.070
06/09/2013  16:31:00     -114.954       -2.298       -8.652       56.025       53.681       27.156     3138.771     2881.689      737.465        1.002        0.338      114.977       21.635        0.035      347.563       26.624      858.113
06/09/2013  16:32:00     -186.216      -28.137      -20.105       68.991       63.149       33.436     4759.689     3987.827     1117.965        2.287        0.493      188.330       30.047        0.025      347.697       26.853      858.161
06/09/2013  16:33:00     -109.507       49.175      -12.127       56.690       67.904       34.637     3213.717     4610.905     1199.753        1.179        0.451      120.041       19.575        0.027      347.814       27.055      858.193
06/09/2013  16:34:00     -229.139       -6.038      -19.343       68.399       71.032       33.287     4678.387     5045.517     1108.040        3.187        0.542      229.218       27.177        0.014      347.849       27.112      858.207
06/09/2013  16:35:00     -212.254       11.581      -18.845       77.965       54.183       38.605     6078.605     2935.782     1490.374        2.802        0.525      212.570       41.845        0.039      347.786       27.004      858.210
06/09/2013  16:36:00     -238.579       -3.681      -20.815       63.646       49.798       37.412     4050.836     2479.834     1399.694        3.265        0.397      238.607       31.469        0.017      347.892       27.185      858.215
06/09/2013  16:37:00      -99.099       15.159       -3.193       62.463       57.080       33.182     3901.618     3258.089     1101.030        0.916        0.413      100.252       33.730        0.113      347.917       27.234      858.208
06/09/2013  16:38:00      -55.456       36.786       -3.355       33.879       23.559       23.857     1147.791      555.025      569.135        0.336        0.114       66.547       19.792        0.088      347.880       27.169      858.186
06/09/2013  16:39:00     -136.208      117.697      -26.639       53.147       52.371       37.727     2824.645     2742.767     1423.344        2.005        0.350      180.014       29.556        0.027      348.260       27.823      858.154
06/09/2013  16:40:00     -153.150      151.245      -35.551       52.580       59.928       35.785     2764.627     3591.365     1280.594        2.761        0.382      215.244       38.375        0.032      348.543       28.313      858.114
06/09/2013  16:41:00     -144.607      119.802      -25.540       54.796       53.597       37.432     3002.548     2872.685     1401.167        2.159        0.364      187.786       36.894        0.039      348.631       28.467      858.079
06/09/2013  16:42:00     -153.071      156.311      -37.670       63.421       62.196       37.776     4022.192     3868.383     1427.043        2.930        0.466      218.778       34.693        0.025      348.690       28.566      858.055
06/09/2013  16:43:00      -70.973      157.426      -18.327       44.244       66.224       24.429     1957.561     4385.627      596.788        1.855        0.347      172.685       18.124        0.011      348.609       28.429      858.030
06/09/2013  16:44:00      -39.018      206.538      -20.577       41.610       56.590       30.591     1731.412     3202.441      935.839        2.524        0.293      210.191       26.775        0.016      348.592       28.399      857.995
06/09/2013  16:45:00      -72.618      154.119      -18.741       42.114       77.395       37.557     1773.617     5989.940     1410.555        1.927        0.459      170.370       30.584        0.032      348.460       28.171      857.987
06/09/2013  16:46:00      -69.794       59.829       -6.952       31.843       30.696       24.062     1013.972      942.237      578.969        0.552        0.127       91.928       17.994        0.038      348.451       28.156      857.979
06/09/2013  16:47:00      -69.243      102.792      -11.414       43.191       52.637       34.494     1865.476     2770.699     1189.845        1.066        0.291      123.939       28.888        0.054      348.579       28.377      857.964
06/09/2013  16:48:00      -67.575      106.567      -10.035       41.153       54.230       30.893     1693.556     2940.942      954.382        1.081        0.279      126.186       31.420        0.062      348.532       28.297      857.954
06/09/2013  16:49:00      -50.358      151.856      -15.082       35.025       42.394       18.014     1226.773     1797.242      324.509        1.459        0.167      159.988       20.735        0.017      348.646       28.493      857.937
06/09/2013  16:50:00      -44.327      194.006      -22.164       24.610       39.980       18.932      605.656     1598.402      358.422        2.133        0.128      199.005       18.378        0.009      348.679       28.548      857.929
06/09/2013  16:51:00       15.766      148.812      -10.729       43.461       48.718       36.657     1888.893     2373.457     1343.706        1.406        0.280      149.645       31.465        0.044      348.673       28.541      857.900
06/09/2013  16:52:00       28.203      111.298       -5.194       41.455       60.892       40.667     1718.486     3707.844     1653.807        1.014        0.354      114.816       37.951        0.109      348.663       28.523      857.871
06/09/2013  16:53:00        4.551      146.764      -16.194       25.759       45.978       31.726      663.528     2113.974     1006.545        1.280        0.189      146.835       31.403        0.046      348.552       28.331      857.866
06/09/2013  16:54:00      -32.391      130.862      -16.224       20.194       35.539       17.867      407.787     1263.051      319.230        1.021        0.100      134.811       18.961        0.020      348.783       28.729      857.863
06/09/2013  16:55:00      -21.896      135.597      -17.746       27.713       28.078       13.326      768.013      788.356      177.580        1.046        0.087      137.354        9.687        0.005      348.667       28.530      857.850
06/09/2013  16:56:00      -98.957      138.857      -27.550       31.683       44.031       22.852     1003.792     1938.721      522.206        1.665        0.173      170.511       18.309        0.012      348.928       28.981      857.852
06/09/2013  16:57:00      -88.663      128.594      -25.819       56.563       47.606       32.062     3199.371     2266.312     1027.992        1.578        0.325      156.197       28.621        0.034      349.064       29.216      857.863
06/09/2013  16:58:00     -113.685      137.425      -24.736       61.708       92.957       43.680     3807.840     8641.060     1907.966        2.339        0.718      178.354       52.780        0.088      348.929       28.983      857.861
06/09/2013  16:59:00     -133.871      139.794      -30.431       62.601       68.830       37.611     3918.913     4737.620     1414.564        2.423        0.504      193.556       34.442        0.032      348.844       28.834      857.854
06/09/2013  17:00:00     -123.984      106.245        4.741      115.393       82.812       51.471    13315.511     6857.837     2649.238        2.475        1.141      163.279       55.198        0.114      348.787       28.736      857.888
06/09/2013  17:01:00      -28.744      132.887        3.262       45.301       99.139       52.079     2052.159     9828.516     2712.232        1.654        0.730      135.960       55.413        0.166      348.807       28.771      857.924
06/09/2013  17:02:00      -86.890      234.209      -22.205       73.494      101.357       48.090     5401.384    10273.303     2312.639        4.044        0.899      249.807       44.052        0.031      348.751       28.673      857.959
06/09/2013  17:03:00     -140.246      102.614      -22.018       51.779       63.631       42.548     2681.099     4048.912     1810.344        1.961        0.427      173.777       33.586        0.037      348.771       28.708      858.003
06/09/2013  17:04:00      -92.086       91.422      -25.922       52.942       73.173       26.748     2802.818     5354.265      715.429        1.319        0.444      129.761       34.410        0.070      348.807       28.771      858.031
06/09/2013  17:05:00     -148.510        1.968      -13.115       44.419       55.854       24.093     1973.027     3119.689      580.495        1.395        0.284      148.523       21.423        0.021      348.710       28.604      858.061
06/09/2013  17:06:00     -137.925      -50.589       -9.310       49.179       68.719       30.979     2418.606     4722.296      959.709        1.488        0.405      146.910       24.767        0.028      348.660       28.516      858.098
06/09/2013  17:07:00     -152.474        2.245      -12.237       58.910       32.720       23.379     3470.411     1070.600      546.583        1.424        0.254      152.491       24.442        0.026      348.583       28.385      858.134
06/09/2013  17:08:00      -96.790      -34.775        5.649       46.868       32.727       22.537     2196.584     1071.053      507.897        0.719        0.189      102.848       21.770        0.045      348.499       28.239      858.157
06/09/2013  17:09:00      -63.126      -63.818        8.688       66.444       55.715       37.322     4414.743     3104.112     1392.940        0.852        0.446       89.764       34.081        0.144      348.362       28.003      858.201
06/09/2013  17:10:00     -120.177     -102.359       -1.566       88.926       55.636       45.547     7907.867     3095.364     2074.495        1.900        0.654      157.861       40.109        0.065      348.248       27.804      858.247
06/09/2013  17:11:00      -94.607      -66.882       13.583       74.210       61.727       42.068     5507.113     3810.164     1769.733        1.235        0.554      115.860       46.560        0.161      348.161       27.653      858.311
06/09/2013  17:12:00      -95.834     -114.498       -3.671       65.171       64.712       34.674     4247.255     4187.653     1202.253        1.597        0.482      149.312       30.245        0.041      348.160       27.653      858.403
06/09/2013  17:13:00      -45.778     -202.390       -3.610       59.602       64.227       35.170     3552.356     4125.095     1236.953        2.599        0.446      207.503       20.007        0.009      348.188       27.699      858.501
06/09/2013  17:14:00      -32.528     -181.246       -6.701       46.564       46.445       27.149     2168.234     2157.137      737.048        1.951        0.253      184.142       22.476        0.015      348.003       27.380      858.595
06/09/2013  17:15:00       28.900     -135.776      -17.903       60.432       47.937       38.646     3652.031     2297.961     1493.532        1.352        0.372      138.818       34.307        0.061      348.000       27.376      858.681
06/09/2013  17:16:00      104.142     -181.158      -32.543       59.065       60.805       36.165     3488.642     3697.208     1307.942        2.661        0.425      208.958       26.256        0.016      348.188       27.698      858.751
06/09/2013  17:17:00      143.727     -173.930      -20.749       51.382       49.591       33.362     2640.074     2459.284     1112.997        2.877        0.311      225.631       28.311        0.016      348.240       27.788      858.835
06/09/2013  17:18:00       82.414     -122.531       -7.995       49.289       53.097       27.821     2429.380     2819.283      774.008        1.394        0.301      147.668       26.745        0.033      348.265       27.833      858.911
06/09/2013  17:19:00       72.587     -112.007        0.851       42.821       41.904       29.661     1833.625     1755.957      879.791        1.114        0.223      133.470       29.605        0.049      348.216       27.750      858.968
06/09/2013  17:20:00       96.019     -164.003      -22.385       72.037       78.093       40.815     5189.362     6098.441     1665.859        2.478        0.648      190.044       38.327        0.041      348.261       27.825      859.014
06/09/2013  17:21:00      151.314     -223.036      -33.892       91.949      117.840       53.415     8454.593    13886.152     2853.123        4.949        1.260      269.519       44.589        0.027      348.372       28.015      859.001
06/09/2013  17:22:00       88.856      -71.323       22.969       60.704      108.792       58.834     3684.973    11835.603     3461.449        1.624        0.949      113.940       70.164        0.379      348.305       27.903      859.002
06/09/2013  17:23:00       22.668       44.133      105.159       61.804       70.496       54.430     3819.743     4969.661     2962.608        1.263        0.588       49.614       46.418        0.875      348.340       27.964      858.997
06/09/2013  17:24:00       79.564      -28.453       67.933       72.868      101.469       66.004     5309.732    10295.900     4356.474        1.585        0.998       84.498       76.907        0.828      348.363       28.004      859.016
06/09/2013  17:25:00       79.207       25.286       79.701       64.094       96.846       76.651     4108.066     9379.165     5875.386        1.631        0.968       83.145       74.944        0.812      348.374       28.023      859.022
06/09/2013  17:26:00       28.759       82.264      124.466       68.456       86.439       53.861     4686.264     7471.638     2901.022        1.907        0.753       87.146       57.138        0.430      348.339       27.962      859.042
06/09/2013  17:27:00       88.152       36.927       75.854       81.061       88.722       64.733     6570.880     7871.634     4190.326        1.676        0.932       95.574       67.354        0.497      348.315       27.920      859.028
06/09/2013  17:28:00       65.720       80.046      113.697       79.817       86.035       65.276     6370.705     7401.938     4261.001        2.084        0.902      103.569       70.292        0.461      348.369       28.014      859.033
06/09/2013  17:29:00       95.390       67.235      126.651      100.004      115.056       83.310    10000.727    13237.899     6940.532        2.991        1.509      116.703       91.566        0.616      348.490       28.223      859.029
06/09/2013  17:30:00      190.576      -84.065       54.855      128.619      147.672       88.417    16542.861    21806.934     7817.647        4.627        2.308      208.294      102.543        0.242      348.600       28.411      859.038
06/09/2013  17:31:00      148.275       27.255      121.927      145.577      130.833       93.609    21192.684    17117.217     8762.583        4.232        2.354      150.759       99.229        0.433      348.678       28.547      859.016
06/09/2013  17:32:00      132.798       44.609       93.500      117.287      116.564       88.068    13756.311    13587.082     7756.060        3.173        1.755      140.090       95.375        0.463      348.775       28.715      859.012
06/09/2013  17:33:00      151.257        2.789      114.775      128.959      149.946      105.472    16630.465    22483.712    11124.286        4.314        2.512      151.283      102.192        0.456      348.943       29.004      858.967
06/09/2013  17:34:00      131.091       47.045      154.914      159.769      188.295      131.054    25525.998    35455.042    17175.109        6.076        3.908      139.277      140.945        1.024      349.183       29.420      858.938
06/09/2013  17:35:00      163.543       29.641      167.251      185.444      223.933      137.282    34389.351    50145.990    18846.309        7.947        5.169      166.208      155.869        0.879      349.241       29.521      858.927
06/09/2013  17:36:00      203.839      -32.990      135.367      198.444      318.123      160.178    39380.185   101202.159    25657.020       11.357        8.312      206.492      215.708        1.091      349.298       29.620      858.906
06/09/2013  17:37:00      101.670      -12.227      160.863      195.365      227.773      159.090    38167.649    51880.459    25309.697        7.584        5.768      102.402      167.096        2.663      349.358       29.725      858.864
06/09/2013  17:38:00      261.349     -257.644        1.538      128.567      143.687       89.001    16529.494    20645.954     7921.109        8.988        2.255      366.993       94.988        0.067      349.308       29.639      858.862
06/09/2013  17:39:00      191.127     -220.048       11.119      197.729      188.049      114.931    39096.806    35362.348    13209.160        8.635        4.383      291.463      127.423        0.191      349.256       29.549      858.786
06/09/2013  17:40:00       96.522      -40.623       82.653      143.045      165.448       94.328    20461.903    27372.892     8897.767        3.725        2.837      104.722      107.245        1.049      349.222       29.489      858.758
06/09/2013  17:41:00       79.851        5.969      100.489      101.556      154.976       89.714    10313.553    24017.480     8048.679        2.944        2.119       80.074      108.300        1.829      349.146       29.355      858.700
06/09/2013  17:42:00      123.563      -63.321       92.329      145.346      180.395      136.313    21125.601    32542.302    18581.125        5.001        3.612      138.843      142.598        1.055      349.147       29.360      858.551
06/09/2013  17:43:00      141.382     -158.501       31.886      141.605      167.094       85.723    20052.004    27920.447     7348.501        5.071        2.766      212.394       99.742        0.221      349.083       29.247      858.501
06/09/2013  17:44:00      143.187      -89.193       44.880      118.491      184.952       94.779    14040.064    34207.274     8983.055        4.384        2.862      168.694      124.802        0.547      349.093       29.265      858.424
06/09/2013  17:45:00      197.932     -147.140       -7.339      121.426      137.037       79.981    14744.337    18779.022     6396.983        5.039        1.996      246.632       85.727        0.121      349.040       29.172      858.388
06/09/2013  17:46:00       96.535      -33.257       74.452      111.858      158.531       84.438    12512.165    25132.078     7129.837        3.036        2.239      102.103      102.114        1.000      349.025       29.149      858.366
06/09/2013  17:47:00       53.700       16.319       89.468      108.231      169.503       95.761    11713.898    28731.399     9170.199        3.037        2.481       56.125      119.818        4.558      349.024       29.147      858.344
06/09/2013  17:48:00      128.122      -28.190       98.777      124.699      231.376      131.051    15549.765    53534.925    17174.368        5.660        4.313      131.187      156.542        1.424      348.968       29.048      858.289
06/09/2013  17:49:00       84.561       98.977      162.822      112.730      192.977      118.004    12707.951    37240.012    13924.878        5.365        3.194      130.181      125.176        0.925      348.932       28.985      858.267
06/09/2013  17:50:00      129.602       14.218      127.440      129.939      159.392       92.546    16884.241    25405.963     8564.765        4.204        2.543      130.379       99.781        0.586      348.894       28.920      858.253
06/09/2013  17:51:00      200.452     -203.526      -12.761      116.014      133.004       92.839    13459.303    17689.950     8619.142        6.076        1.988      285.664       96.833        0.115      348.874       28.884      858.233
06/09/2013  17:52:00      175.263     -119.031       39.045      149.436      230.393      128.489    22331.021    53081.071    16509.496        6.915        4.596      211.862      143.332        0.458      348.865       28.870      858.246
06/09/2013  17:53:00      328.664     -259.407       22.693      196.718      258.960      141.402    38698.108    67060.042    19994.665       15.076        6.288      418.703      190.397        0.207      348.785       28.732      858.198
06/09/2013  17:54:00      128.773        6.283      112.516      111.336      118.438       86.284    12395.791    14027.491     7444.980        3.157        1.693      128.926       88.262        0.469      348.785       28.732      858.207
06/09/2013  17:55:00      118.282     -137.176        0.546      103.028      165.854       84.565    10614.679    27507.693     7151.304        3.903        2.264      181.129      110.322        0.371      348.716       28.614      858.202
06/09/2013  17:56:00      119.229      -45.240       55.645      127.419      127.479       94.602    16235.477    16250.787     8949.466        3.039        2.072      127.524       90.841        0.507      348.730       28.638      858.148
06/09/2013  17:57:00      123.943     -140.318       29.832      138.271      171.287      107.044    19118.932    29339.321    11458.366        4.792        2.996      187.220      126.856        0.459      348.725       28.628      858.071
06/09/2013  17:58:00       16.036       64.309      126.849       56.666      122.495       75.185     3211.023    15004.953     5652.711        2.217        1.193       66.278       89.925        1.841      348.689       28.566      857.989
06/09/2013  17:59:00       43.711      -38.259       52.387       60.544      128.756       64.612     3665.636    16578.234     4174.714        1.526        1.221       58.090       83.038        2.043      348.682       28.555      857.921
06/09/2013  18:00:00        7.494       22.602       84.715       42.037       92.440       51.326     1767.095     8545.235     2634.396        1.034        0.647       23.812       62.635        6.919      348.713       28.609      857.869
06/09/2013  18:01:00       92.597      -45.659       19.282       65.351       58.937       43.216     4270.717     3473.557     1867.610        1.032        0.481      103.242       44.716        0.188      348.648       28.496      857.838
06/09/2013  18:02:00      103.070      -61.875       17.633       54.302       78.969       36.268     2948.712     6236.085     1315.356        1.263        0.525      120.216       43.735        0.132      348.655       28.508      857.807
06/09/2013  18:03:00       34.105       74.374       80.154       42.860       42.095       33.298     1837.016     1772.023     1108.745        0.892        0.236       81.821       29.896        0.134      348.581       28.381      857.766
06/09/2013  18:04:00       54.214       52.268       56.061       56.782       57.469       43.369     3224.187     3302.640     1880.841        0.861        0.420       75.306       36.288        0.232      348.569       28.360      857.720
06/09/2013  18:05:00       77.757       74.818       67.370       75.710       58.944       45.735     5731.933     3474.445     2091.712        1.374        0.565      107.907       32.123        0.089      348.568       28.357      857.646
06/09/2013  18:06:00      122.369       71.520       48.389       97.564       73.921       61.994     9518.789     5464.342     3843.301        2.062        0.941      141.736       42.989        0.092      348.526       28.284      857.588
06/09/2013  18:07:00      164.474       50.926       10.487       79.618       60.343       54.494     6338.950     3641.307     2969.598        2.135        0.647      172.178       44.264        0.066      348.424       28.107      857.554
06/09/2013  18:08:00      146.496       76.977       14.030       54.455       48.502       40.961     2965.347     2352.467     1677.816        1.729        0.350      165.489       29.962        0.033      348.332       27.949      857.540
06/09/2013  18:09:00      110.577       54.381       12.550       61.086       49.139       38.971     3731.511     2414.595     1518.761        1.150        0.383      123.226       25.722        0.044      348.357       27.995      857.576
06/09/2013  18:10:00       67.884      -20.560       -4.524       52.683       45.372       30.967     2775.533     2058.584      958.973        0.542        0.290       70.929       16.476        0.054      348.445       28.144      857.601
06/09/2013  18:11:00      -58.156      -35.590       -0.266       76.708       39.344       20.132     5884.078     1547.924      405.298        0.624        0.392       68.181       20.166        0.087      348.335       27.957      857.628
06/09/2013  18:12:00      -73.145      -89.383       -1.365       58.835       42.375       27.621     3461.560     1795.621      762.896        0.968        0.301      115.497       31.349        0.074      348.272       27.846      857.716
06/09/2013  18:13:00     -117.826     -117.349       -4.183       68.173       57.137       34.227     4647.572     3264.616     1171.516        1.838        0.454      166.294       39.587        0.057      348.343       27.968      857.775
06/09/2013  18:14:00     -181.025      -91.964       -7.369       60.128       62.844       35.624     3615.435     3949.370     1269.058        2.506        0.442      203.046       33.529        0.027      348.449       28.150      857.756
06/09/2013  18:15:00     -157.298      -20.485       -4.632       47.743       43.594       27.470     2279.406     1900.463      754.587        1.506        0.247      158.626       25.734        0.026      348.438       28.133      857.742
06/09/2013  18:16:00     -263.284       59.692      -20.813       40.637       35.019       17.708     1651.383     1226.303      313.559        3.825        0.160      269.966       13.013        0.002      348.389       28.043      857.701
06/09/2013  18:17:00     -314.000       63.136      -25.793       51.685       48.196       25.105     2671.331     2322.822      630.248        5.443        0.281      320.285       24.033        0.006      348.295       27.883      857.592
06/09/2013  18:18:00      -94.479      -36.625      -10.507       67.814       53.778       27.153     4598.699     2892.021      737.309        0.930        0.411      101.329       25.027        0.061      348.361       28.001      857.617
06/09/2013  18:19:00        8.304      -29.512       27.595       54.311       35.071       41.987     2949.738     1229.940     1762.939        0.382        0.297       30.658       37.920        1.530      348.359       27.999      857.567
06/09/2013  18:20:00      -41.364       35.695       -4.608       35.773       33.945       23.527     1279.729     1152.285      553.540        0.300        0.149       54.636       18.917        0.120      348.343       27.970      857.389
06/09/2013  18:21:00     -117.240      186.928      -29.059       89.870      114.661       40.591     8076.700    13147.050     1647.665        3.620        1.144      220.652       58.138        0.069      348.293       27.881      857.086
06/09/2013  18:22:00     -125.127      349.435      -40.702       84.641       88.711       46.483     7164.084     7869.654     2160.682        7.830        0.860      371.163       44.058        0.014      348.388       28.042      856.725
06/09/2013  18:23:00      -73.129      348.384      -45.645       95.790      168.189       50.813     9175.802    28287.391     2581.913        8.442        2.002      355.977       65.437        0.034      348.481       28.205      856.500
06/09/2013  18:24:00      -75.223      387.628      -38.022       81.662      108.896       56.651     6668.748    11858.428     3209.348        8.954        1.087      394.859       48.713        0.015      348.775       28.715      856.330
06/09/2013  18:25:00       49.831      379.680      -56.020       62.257      143.235       65.321     3875.980    20516.288     4266.828        8.921        1.433      382.936       67.133        0.031      348.978       29.064      856.124
06/09/2013  18:26:00       68.080      268.250        1.826      123.120      166.764       93.415    15158.525    27810.345     8726.379        6.414        2.585      276.755       94.878        0.118      349.018       29.137      855.885
06/09/2013  18:27:00       78.257      305.478      -30.557      111.789      173.456       87.639    12496.889    30086.880     7680.555        7.531        2.513      315.342       89.175        0.080      348.773       28.710      855.717
06/09/2013  18:28:00       42.743      329.083      -25.699       98.946      181.487      107.725     9790.322    32937.590    11604.689        8.255        2.717      331.847      113.233        0.116      348.834       28.817      855.525
06/09/2013  18:29:00       69.651      258.570       -2.117      119.089      190.575      119.987    14182.239    36318.910    14396.919        6.829        3.245      267.787      123.741        0.214      348.869       28.876      855.293
06/09/2013  18:30:00      123.294      353.107      -20.412      145.810      220.160      124.933    21260.596    48470.233    15608.140       11.280        4.267      374.013      127.128        0.116      348.914       28.955      855.136
06/09/2013  18:31:00      144.847      278.096       13.537      171.896      222.326      140.337    29548.181    49429.049    19694.503        9.857        4.934      313.557      126.613        0.163      348.987       29.081      855.001
06/09/2013  18:32:00      107.381      304.016       -4.042      136.859      183.812      114.644    18730.264    33786.802    13143.155        8.480        3.283      322.423      108.140        0.112      349.019       29.136      854.947
06/09/2013  18:33:00       71.020      239.171       21.477      141.795      180.843      112.413    20105.802    32704.208    12636.726        6.406        3.272      249.492      107.530        0.186      348.970       29.052      854.912
06/09/2013  18:34:00       84.489      290.333       -4.051      115.210      200.530      110.182    13273.435    40212.396    12139.967        7.852        3.281      302.377      108.611        0.129      349.066       29.217      854.902
06/09/2013  18:35:00      174.032      129.377       41.452      126.415       96.440       94.310    15980.645     9300.750     8894.413        4.145        1.709      216.854       54.982        0.064      349.108       29.291      854.945
06/09/2013  18:36:00       58.724       77.233       34.177       72.714      105.784       61.453     5287.318    11190.156     3776.474        1.541        1.013       97.023       69.793        0.517      349.291       29.611      854.900
06/09/2013  18:37:00       67.078       84.943      107.298      104.308       84.001       62.207    10880.189     7056.152     3869.695        2.251        1.090      108.234       51.163        0.223      349.065       29.219      855.015
06/09/2013  18:38:00       75.986       38.287       23.101       90.797       64.732       61.069     8244.074     4190.205     3729.481        1.197        0.808       85.087       54.627        0.412      349.723       30.360      855.153
06/09/2013  18:39:00       53.928     -242.412      -11.360      123.966      107.268       57.499    15367.601    11506.368     3306.175        4.598        1.509      248.338       41.181        0.027      350.644       31.959      855.163
06/09/2013  18:40:00       63.023     -205.664        2.794       93.286      141.806       65.494     8702.283    20108.959     4289.404        3.968        1.655      215.103       71.123        0.109      350.764       32.167      855.151
06/09/2013  18:41:00       18.218       95.531      120.241       85.816       79.242       60.976     7364.458     6279.277     3718.040        2.064        0.868       97.252       64.523        0.440      350.249       31.273      855.248
06/09/2013  18:42:00       31.829       -5.915       50.482       46.640       72.877       41.653     2175.285     5311.069     1734.952        0.641        0.461       32.374       47.700        2.171      349.972       30.793      855.379
06/09/2013  18:43:00       80.455      -28.108       70.122       93.318      136.543       81.993     8708.215    18644.022     6722.881        2.312        1.704       85.223       95.602        1.258      350.002       30.842      855.534
06/09/2013  18:44:00       99.350      -97.258       29.916      119.762      113.637       60.490    14342.902    12913.391     3659.086        2.556        1.546      139.031       61.257        0.194      350.010       30.856      855.659
06/09/2013  18:45:00      -30.170     -193.010      -10.290      134.155       88.409       45.111    17997.483     7816.170     2034.996        3.305        1.392      195.353       36.948        0.036      349.810       30.510      855.766
06/09/2013  18:46:00     -220.806     -162.917        5.242      170.701      107.973       75.403    29138.828    11658.115     5685.676        6.089        2.324      274.404       74.302        0.073      349.602       30.149      855.902
06/09/2013  18:47:00     -231.482     -132.042      -14.263      132.089      136.852       60.817    17447.417    18728.390     3698.717        5.554        1.994      266.494       76.613        0.083      349.353       29.716      855.930
06/09/2013  18:48:00     -174.080     -116.748        3.273      165.852      123.298       59.743    27506.747    15202.343     3569.247        4.510        2.314      209.604       68.369        0.106      349.170       29.399      855.864
06/09/2013  18:49:00     -469.488     -267.706      -18.658      255.391      167.906       93.492    65224.724    28192.303     8740.727       19.728        5.108      540.450       92.278        0.029      349.101       29.278      855.812
06/09/2013  18:50:00     -325.664     -202.795        1.482      299.071      199.043      139.990    89443.166    39618.270    19597.166       14.789        7.433      383.644      172.514        0.202      349.036       29.165      855.752
06/09/2013  18:51:00     -338.226      -74.874        7.424      242.588      176.008       99.428    58849.099    30978.951     9885.886       10.987        4.986      346.414      111.026        0.103      349.021       29.142      855.755
06/09/2013  18:52:00     -244.392     -109.091        0.849      204.862      165.682       91.341    41968.389    27450.487     8343.098        7.468        3.888      267.635      108.653        0.165      349.048       29.187      855.881
06/09/2013  18:53:00     -435.073     -238.495       -8.541      214.139      157.478       90.433    45855.661    24799.351     8178.217       16.252        3.942      496.153      103.368        0.043      349.049       29.187      855.856
06/09/2013  18:54:00     -372.290     -335.787      -11.298      209.084      137.128       98.051    43715.937    18804.124     9614.061       16.179        3.607      501.351       97.167        0.038      349.180       29.415      855.920
06/09/2013  18:55:00     -523.451       27.545      -47.510      197.418      129.618       68.194    38973.857    16800.877     4650.399       16.871        3.021      524.175       81.698        0.024      349.358       29.724      855.861
06/09/2013  18:56:00     -324.000      -45.684      -18.019      153.609      107.317       74.635    23595.792    11517.030     5570.354        7.403        2.034      327.205       74.599        0.052      349.327       29.670      855.811
06/09/2013  18:57:00        5.640      -64.088        3.027      134.341       89.215       55.253    18047.483     7959.386     3052.916        1.660        1.453       64.335       41.493        0.416      349.393       29.786      855.859
06/09/2013  18:58:00        7.044      -90.626       47.628      106.701       76.539       74.144    11385.207     5858.186     5497.378        1.663        1.137       90.899       63.447        0.487      349.420       29.834      855.969
06/09/2013  18:59:00     -170.258      -88.425      -12.131       84.906       68.310       47.644     7208.986     4666.197     2269.958        2.555        0.707      191.851       47.137        0.060      349.416       29.826      856.028
06/09/2013  19:00:00     -183.992      -24.292       -8.169       84.264       61.461       41.840     7100.374     3777.427     1750.602        2.357        0.631      185.589       43.103        0.054      349.406       29.807      856.021
06/09/2013  19:01:00      -96.020      -23.686       -4.723      101.805       68.424       35.512    10364.223     4681.874     1261.092        1.305        0.815       98.898       31.291        0.100      349.438       29.865      856.033
06/09/2013  19:02:00      -84.932      -74.741        5.245       63.169       56.728       33.644     3990.346     3218.120     1131.940        1.058        0.417      113.135       30.777        0.074      349.356       29.723      856.044
06/09/2013  19:03:00     -131.821     -160.882       -9.656       69.835       81.505       38.731     4876.923     6643.006     1500.097        2.818        0.651      207.990       28.900        0.019      349.321       29.662      856.046
06/09/2013  19:04:00     -188.803     -163.269        2.922      130.803       91.667       53.384    17109.458     8402.905     2849.826        4.533        1.418      249.606       56.411        0.051      349.106       29.287      856.065
06/09/2013  19:05:00     -263.140     -157.607        0.749      118.268       80.037       56.563    13987.368     6405.912     3199.362        5.883        1.180      306.729       58.205        0.036      348.977       29.064      856.041
06/09/2013  19:06:00     -220.219     -169.970       -5.735       90.937       81.225       47.436     8269.595     6597.466     2250.139        4.726        0.856      278.184       40.175        0.021      348.977       29.065      856.009
06/09/2013  19:07:00     -241.650     -179.869        6.201      118.599       83.079       55.639    14065.742     6902.102     3095.655        5.742        1.203      301.243       52.262        0.030      348.949       29.016      855.989
06/09/2013  19:08:00     -204.015     -165.979        8.494      125.227       96.957       54.932    15681.810     9400.710     3017.547        4.867        1.405      263.004       61.691        0.055      348.978       29.068      855.994
06/09/2013  19:09:00     -242.549     -119.163      -20.483       97.421       75.667       53.726     9490.840     5725.534     2886.489        4.577        0.905      270.240       42.861        0.025      348.908       28.944      855.988
06/09/2013  19:10:00     -238.097     -126.479       -5.093      100.023      104.536       50.831    10004.540    10927.864     2583.791        4.811        1.176      269.605       48.804        0.033      348.846       28.836      855.987
06/09/2013  19:11:00     -295.843     -105.837       -8.657       89.834       71.789       42.215     8070.074     5153.623     1782.147        5.690        0.750      314.204       42.180        0.018      348.825       28.800      855.977
06/09/2013  19:12:00     -250.567      -32.742       -3.802      108.392       85.160       50.153    11748.843     7252.284     2515.304        4.269        1.076      252.697       53.044        0.044      348.797       28.753      855.975
06/09/2013  19:13:00     -393.163      -93.138      -25.789      113.979      110.469       53.561    12991.252    12203.405     2868.805        9.598        1.403      404.045       49.847        0.015      348.784       28.730      855.981
06/09/2013  19:14:00     -384.032      -92.254      -22.389      133.095      101.138       57.244    17714.306    10228.860     3276.865        9.385        1.561      394.957       61.822        0.025      348.792       28.742      855.979
06/09/2013  19:15:00     -354.164      -85.568      -11.730      111.357       85.594       59.167    12400.445     7326.393     3500.775        7.806        1.161      364.354       62.751        0.030      348.788       28.736      855.959
06/09/2013  19:16:00     -327.577      -90.217       -0.547      142.421       89.744       57.912    20283.618     8054.052     3353.774        7.356        1.585      339.774       67.431        0.039      348.809       28.773      855.933
06/09/2013  19:17:00     -398.875     -100.484       -6.802      133.914      104.108       61.083    17932.887    10838.555     3731.153       10.087        1.625      411.337       69.227        0.028      348.845       28.835      855.904
06/09/2013  19:18:00     -352.923      -66.087       -8.287      132.008       90.452       57.825    17426.207     8181.522     3343.715        7.897        1.448      359.057       61.246        0.029      348.798       28.753      855.867
06/09/2013  19:19:00     -335.506      -66.669      -20.668      108.468       97.136       50.267    11765.258     9435.436     2526.817        7.058        1.186      342.066       42.410        0.015      348.792       28.743      855.832
06/09/2013  19:20:00     -289.087      -45.087      -22.303      117.049      110.126       50.196    13700.486    12127.748     2519.649        5.722        1.417      292.582       52.853        0.033      348.772       28.709      855.789
06/09/2013  19:21:00     -436.378       25.232      -26.012      120.941      115.360       60.530    14626.825    13307.858     3663.867       11.166        1.580      437.107       61.776        0.020      348.646       28.491      855.754
06/09/2013  19:22:00     -384.409      -69.558      -29.090      144.786      107.898       60.195    20962.889    11642.016     3623.417        9.483        1.811      390.652       71.396        0.033      348.495       28.231      855.723
06/09/2013  19:23:00     -357.608     -113.311      -11.696      133.718      104.584       55.907    17880.516    10937.802     3125.609        8.640        1.597      375.131       58.868        0.025      348.423       28.107      855.705
06/09/2013  19:24:00     -284.308     -100.805       -9.902      113.604       94.210       60.795    12905.894     8875.516     3695.971        5.828        1.274      301.650       61.841        0.042      348.387       28.041      855.685
06/09/2013  19:25:00     -251.387      -31.080       -4.332      144.981       85.850       57.472    21019.492     7370.162     3303.085        4.793        1.585      253.301       67.207        0.070      348.367       28.008      855.674
06/09/2013  19:26:00     -334.131      -35.793      -20.405      148.009      128.207       60.697    21906.716    16437.000     3684.094        7.768        2.101      336.042       71.147        0.045      348.341       27.962      855.661
06/09/2013  19:27:00     -251.926      -87.872       -9.504      128.368       90.239       57.272    16478.365     8143.076     3280.067        4.958        1.395      266.811       61.628        0.053      348.281       27.858      855.644
06/09/2013  19:28:00     -271.918     -100.384       -3.971      104.194       79.391       51.833    10856.366     6302.921     2686.699        5.194        0.992      289.856       46.880        0.026      348.271       27.839      855.628
06/09/2013  19:29:00     -304.444      -19.588        4.961      164.155      107.412       73.242    26946.705    11537.308     5364.445        6.846        2.192      305.074       82.860        0.074      348.237       27.783      855.612
06/09/2013  19:30:00     -376.799      -47.681      -14.574      185.791      104.279       73.631    34518.190    10874.199     5421.546        9.763        2.541      379.804       86.786        0.052      348.210       27.738      855.591
06/09/2013  19:31:00     -272.102      -55.023       13.331      167.635      124.453       80.579    28101.437    15488.437     6493.030        6.365        2.504      277.610       88.335        0.101      348.178       27.682      855.558
06/09/2013  19:32:00     -290.571     -106.923       16.881      208.381      117.058       75.025    43422.536    13702.494     5628.691        7.944        3.138      309.619       90.034        0.085      348.163       27.655      855.528
06/09/2013  19:33:00     -315.485      -36.971      -20.886      116.196      110.352       62.506    13501.570    12177.520     3907.040        6.545        1.479      317.644       59.863        0.036      348.138       27.611      855.495
06/09/2013  19:34:00     -334.446      -43.536      -20.581      159.262      104.550       62.632    25364.231    10930.778     3922.727        7.719        2.011      337.268       71.136        0.044      348.106       27.556      855.474
06/09/2013  19:35:00     -270.833      -96.402      -13.573      166.583      120.352       69.318    27750.000    14484.554     4804.943        6.492        2.352      287.478       70.787        0.061      348.120       27.582      855.436
06/09/2013  19:36:00     -220.185      -27.620       -7.070      136.655       86.028       62.721    18674.562     7400.795     3933.963        3.965        1.500      221.911       71.104        0.103      348.093       27.533      855.419
06/09/2013  19:37:00     -215.674      -87.522       -8.324       87.865       72.966       49.197     7720.248     5324.039     2420.310        3.485        0.773      232.756       39.646        0.029      348.080       27.510      855.414
06/09/2013  19:38:00     -115.547      -44.601       28.103      160.475       92.947       72.813    25752.207     8639.095     5301.757        2.790        1.985      123.856       90.232        0.531      348.097       27.542      855.405
06/09/2013  19:39:00     -133.343      -65.970       12.610      123.466       92.347       61.936    15243.966     8528.001     3836.009        2.494        1.380      148.769       56.170        0.143      348.048       27.456      855.407
06/09/2013  19:40:00     -261.839     -103.287       -2.689      130.327       92.134       57.118    16985.173     8488.725     3262.500        5.398        1.437      281.474       63.096        0.050      348.018       27.405      855.427
06/09/2013  19:41:00     -223.257     -126.835        4.909      160.781      105.196       67.712    25850.465    11066.302     4584.908        5.372        2.075      256.770       77.142        0.090      348.001       27.376      855.454
06/09/2013  19:42:00     -263.975     -132.927        7.519      129.430       96.010       56.789    16752.246     9217.970     3225.029        5.830        1.460      295.554       64.628        0.048      347.965       27.314      855.472
06/09/2013  19:43:00     -276.993     -174.638       -6.089      132.542      111.202       60.839    17567.343    12365.906     3701.420        7.044        1.682      327.450       55.424        0.029      347.940       27.269      855.486
06/09/2013  19:44:00     -328.427     -163.765       -2.766      131.443      126.797       71.507    17277.359    16077.505     5113.212        8.657        1.923      366.992       72.089        0.039      347.946       27.281      855.505
06/09/2013  19:45:00     -327.540     -181.815       -3.639      108.311       96.729       61.616    11731.241     9356.550     3796.495        8.261        1.244      374.619       51.721        0.019      347.939       27.267      855.529
06/09/2013  19:46:00     -300.341     -144.364      -20.129      121.600      103.204       71.414    14786.456    10651.061     5099.992        7.099        1.527      333.235       52.806        0.025      347.937       27.264      855.538
06/09/2013  19:47:00     -179.339     -172.903       -6.426      113.378       95.231       47.364    12854.532     9069.019     2243.382        4.313        1.208      249.115       52.905        0.045      347.914       27.225      855.557
06/09/2013  19:48:00     -157.993     -144.719        7.572      130.263      112.280       72.506    16968.500    12606.864     5257.124        4.039        1.742      214.255       86.355        0.162      347.916       27.228      855.549
06/09/2013  19:49:00     -213.464     -152.268       -7.220      102.017       86.239       53.437    10407.399     7437.175     2855.512        4.475        1.035      262.207       46.779        0.032      347.925       27.245      855.555
06/09/2013  19:50:00     -204.904     -120.753        5.915      136.170      109.409       56.498    18542.325    11970.269     3192.061        4.515        1.685      237.838       58.685        0.061      347.897       27.195      855.574
06/09/2013  19:51:00     -230.443      -30.329       -8.247      114.112       68.140       53.424    13021.623     4643.101     2854.080        3.730        1.026      232.431       57.247        0.061      347.876       27.159      855.578
06/09/2013  19:52:00     -157.838      -59.803       14.300      100.407       78.990       45.964    10081.585     6239.348     2112.684        2.356        0.922      168.788       32.170        0.036      347.826       27.075      855.569
06/09/2013  19:53:00     -224.455     -100.370       -0.399      136.124       86.586       51.371    18529.866     7497.162     2638.988        4.455        1.433      245.874       59.783        0.059      347.853       27.120      855.580
06/09/2013  19:54:00     -281.825     -142.076       -8.832      120.198       82.058       62.922    14447.605     6733.511     3959.186        6.241        1.257      315.612       60.900        0.037      347.847       27.108      855.572
06/09/2013  19:55:00     -250.362      -96.249       -2.774      150.752       80.727       52.254    22726.306     6516.881     2730.507        5.196        1.599      268.226       60.016        0.050      347.820       27.064      855.564
06/09/2013  19:56:00     -250.638      -38.404       -5.124      124.822       96.651       66.150    15580.628     9341.334     4375.885        4.680        1.465      253.563       71.353        0.079      347.810       27.045      855.555
06/09/2013  19:57:00     -199.884      -48.170       -3.851      111.457       65.595       44.392    12422.678     4302.756     1970.668        3.049        0.935      205.606       55.088        0.072      347.742       26.931      855.541
06/09/2013  19:58:00     -295.044      -93.709      -21.691      132.717      107.964       58.516    17613.726    11656.317     3424.162        6.449        1.635      309.568       55.921        0.033      347.779       26.991      855.518
06/09/2013  19:59:00     -321.220      -75.299       -6.517      142.865       94.387       52.397    20410.486     8908.944     2745.472        7.047        1.603      329.927       59.450        0.032      347.799       27.026      855.507
06/09/2013  20:00:00     -327.470      -55.943      -11.871      124.195      101.793       58.430    15424.281    10361.903     3414.039        6.985        1.460      332.214       59.025        0.032      347.760       26.959      855.494
06/09/2013  20:01:00     -329.586      -38.000      -20.935       94.513       82.831       55.538     8932.693     6860.915     3084.417        6.469        0.944      331.770       42.070        0.016      347.753       26.947      855.481
06/09/2013  20:02:00     -319.758     -127.970      -12.329      113.984       91.682       62.895    12992.254     8405.594     3955.794        7.206        1.268      344.414       52.969        0.024      347.753       26.946      855.465
06/09/2013  20:03:00     -318.656      -28.037      -12.938      109.375       81.479       58.304    11962.841     6638.780     3399.358        6.224        1.100      319.887       61.625        0.037      347.732       26.910      855.445
06/09/2013  20:04:00     -294.509       -5.258       -8.221      101.000       71.169       56.095    10201.095     5065.028     3146.696        5.262        0.921      294.556       51.610        0.031      347.698       26.851      855.444
06/09/2013  20:05:00     -258.015      -63.856      -10.045       87.571       85.094       48.331     7668.700     7240.935     2335.862        4.399        0.862      265.800       47.405        0.032      347.707       26.867      855.426
06/09/2013  20:06:00     -305.957      -37.711        3.184      121.470       83.012       61.357    14754.990     6890.959     3764.637        6.022        1.271      308.272       64.109        0.043      347.684       26.828      855.400
06/09/2013  20:07:00     -255.712      -73.913        3.659      119.508      113.362       56.144    14282.248    12850.839     3152.121        5.057        1.514      266.180       60.709        0.052      347.702       26.859      855.392
06/09/2013  20:08:00     -243.479     -104.809      -21.679      115.659       77.942       46.307    13377.113     6074.907     2144.364        4.616        1.080      265.079       44.035        0.028      347.725       26.899      855.364
06/09/2013  20:09:00     -184.162      -74.580        1.234      108.716       76.775       45.310    11819.209     5894.447     2053.001        2.962        0.988      198.690       47.252        0.057      347.700       26.858      855.354
06/09/2013  20:10:00     -132.860      -20.295        5.976      126.450       85.584       61.961    15989.523     7324.551     3839.207        2.262        1.358      134.401       64.409        0.230      347.705       26.865      855.336
06/09/2013  20:11:00     -101.746      -49.399       13.253       89.883       60.241       35.673     8078.914     3628.966     1272.556        1.297        0.649      113.104       45.225        0.160      347.674       26.814      855.323
06/09/2013  20:12:00     -138.858      -55.524        5.910      108.845       80.862       50.412    11847.236     6538.684     2541.376        2.166        1.046      149.548       61.113        0.167      347.684       26.829      855.309
06/09/2013  20:13:00     -319.961     -102.064      -11.611      108.521       90.232       54.072    11776.705     8141.839     2923.810        6.788        1.142      335.846       53.797        0.026      347.730       26.908      855.306
06/09/2013  20:14:00     -150.176      -77.528        3.661      116.796       58.939       49.327    13641.290     3473.835     2433.144        2.406        0.977      169.007       61.314        0.132      347.715       26.883      855.309
06/09/2013  20:15:00     -226.751      -44.616       -7.417       85.402       74.015       44.358     7293.492     5478.153     1967.608        3.410        0.737      231.098       45.222        0.038      347.717       26.887      855.320
06/09/2013  20:16:00     -175.971      -70.777      -15.284       78.859       80.950       34.849     6218.709     6552.867     1214.438        2.509        0.699      189.672       35.270        0.035      347.788       27.008      855.324
06/09/2013  20:17:00     -133.767      -96.909       -4.671       75.752       76.428       33.370     5738.304     5841.228     1113.580        2.000        0.635      165.182       32.983        0.040      347.739       26.924      855.334
06/09/2013  20:18:00      -88.760      -79.722       -3.459       76.228       66.206       38.381     5810.676     4383.298     1473.074        1.295        0.583      119.306       30.955        0.067      347.746       26.937      855.351
06/09/2013  20:19:00     -145.987     -110.829       -6.787       69.319       44.830       34.228     4805.178     2009.703     1171.557        2.081        0.399      183.290       20.510        0.013      347.767       26.972      855.386
06/09/2013  20:20:00     -116.708     -117.706       -7.667       78.374       67.738       48.149     6142.541     4588.455     2318.298        2.029        0.652      165.757       45.127        0.074      347.757       26.954      855.416
06/09/2013  20:21:00     -174.493      -71.711       -2.551       83.087       64.551       44.305     6903.476     4166.855     1962.910        2.431        0.652      188.654       44.080        0.055      347.774       26.985      855.423
06/09/2013  20:22:00      -98.276      -74.070        5.744       85.475       69.415       43.692     7305.986     4818.445     1908.965        1.460        0.702      123.063       45.347        0.136      347.764       26.968      855.449
06/09/2013  20:23:00     -136.153     -102.551      -13.916       67.837       46.764       40.840     4601.792     2186.875     1667.936        1.885        0.423      170.453       38.737        0.052      347.750       26.944      855.463
06/09/2013  20:24:00      -79.829      -75.407        6.886       88.520       66.753       48.819     7835.711     4455.916     2383.268        1.339        0.734      109.813       50.061        0.208      347.746       26.938      855.491
06/09/2013  20:25:00      -95.679      -13.851       14.187       86.820       59.984       47.557     7537.695     3598.058     2261.684        1.147        0.670       96.677       40.711        0.177      347.776       26.991      855.489
06/09/2013  20:26:00     -186.728      -29.717      -16.533       77.203       69.010       38.639     5960.341     4762.433     1492.993        2.412        0.611      189.078       35.412        0.035      347.726       26.901      855.511
06/09/2013  20:27:00     -210.648      -61.871      -14.780       98.276       90.374       57.995     9658.201     8167.459     3363.437        3.480        1.059      219.546       51.339        0.055      347.876       27.159      855.508
06/09/2013  20:28:00     -176.982      -67.116        2.828      114.900       87.641       55.329    13202.016     7680.943     3061.276        2.988        1.197      189.281       60.531        0.102      347.905       27.212      855.508
06/09/2013  20:29:00     -318.726       -3.334      -32.954      144.028      108.281       51.564    20744.151    11724.677     2658.889        6.890        1.756      318.743       58.463        0.034      347.960       27.307      855.529
06/09/2013  20:30:00     -206.620      -77.562       -0.221      127.605      105.423       48.026    16283.037    11113.947     2306.495        3.920        1.485      220.698       48.099        0.047      347.957       27.300      855.544
06/09/2013  20:31:00     -185.122      -10.005      -10.222      110.921       83.531       55.731    12303.440     6977.490     3105.972        2.843        1.119      185.392       49.306        0.071      347.988       27.354      855.563
06/09/2013  20:32:00     -395.926      -59.184      -33.628      127.283       87.876       56.991    16200.995     7722.154     3247.950        9.428        1.359      400.325       59.630        0.022      348.109       27.563      855.598
06/09/2013  20:33:00     -302.229      -57.194      -36.432      106.135       86.773       57.978    11264.548     7529.630     3361.504        5.904        1.108      307.593       54.673        0.032      348.114       27.569      855.617
06/09/2013  20:34:00     -292.237     -143.033      -11.758      136.939      108.918       61.571    18752.416    11863.098     3790.967        7.020        1.720      325.363       68.617        0.044      348.137       27.611      855.647
06/09/2013  20:35:00     -236.422      -73.348      -28.028      100.944       77.599       53.562    10189.615     6021.607     2868.854        4.057        0.954      247.538       48.692        0.039      348.198       27.717      855.669
06/09/2013  20:36:00     -284.861     -100.957       -6.034      139.724      105.974       63.803    19522.813    11230.565     4070.771        6.309        1.741      302.222       70.938        0.055      348.207       27.732      855.675
06/09/2013  20:37:00     -339.746      -47.426      -22.490       93.134       78.003       54.427     8673.988     6084.523     2962.318        6.795        0.886      343.040       34.917        0.010      348.244       27.796      855.701
06/09/2013  20:38:00     -375.218      -52.016      -54.490      145.035       72.634       53.261    21035.279     5275.685     2836.754        8.780        1.457      378.807       61.874        0.027      348.283       27.862      855.723
06/09/2013  20:39:00     -226.140      -21.520       -9.384      109.303       80.917       61.367    11947.212     6547.509     3765.949        3.697        1.113      227.162       64.179        0.080      348.176       27.679      855.754
06/09/2013  20:40:00     -213.800      -76.405      -21.654      141.067       96.807       64.179    19899.921     9371.547     4119.000        4.270        1.670      227.042       53.032        0.055      348.321       27.928      855.786
06/09/2013  20:41:00     -105.472       83.321      -18.240       70.534      119.747       53.140     4975.112    14339.262     2823.860        2.026        1.107      134.413       21.204        0.025      348.232       27.775      855.795
06/09/2013  20:42:00     -126.443      179.884       -6.870       58.641       87.890       49.866     3438.734     7724.727     2486.572        3.102        0.683      219.877       48.868        0.049      348.172       27.670      855.834
06/09/2013  20:43:00     -104.552      103.556       -5.202       92.205      116.237       47.650     8501.788    13511.046     2270.535        2.298        1.214      147.156       52.641        0.128      348.141       27.618      855.892
06/09/2013  20:44:00      -93.074       52.716       -1.189       80.117       77.136       39.255     6418.728     5949.954     1540.952        1.267        0.695      106.966       33.542        0.098      348.187       27.700      855.896
06/09/2013  20:45:00     -100.318      129.906      -13.919       45.270       92.711       32.531     2049.401     8595.336     1058.277        1.942        0.585      164.132       30.054        0.034      348.214       27.747      855.908
06/09/2013  20:46:00     -107.259       85.867      -21.957       47.856       59.891       33.672     2290.219     3586.923     1133.777        1.318        0.351      137.396       31.923        0.054      348.411       28.085      855.950
06/09/2013  20:47:00      -85.112      115.507      -18.215       36.953       33.279       22.106     1365.519     1107.485      488.673        1.194        0.148      143.478       18.074        0.016      348.319       27.927      855.985
06/09/2013  20:48:00      -57.926       89.885      -14.487       34.731       41.833       17.894     1206.273     1750.042      320.180        0.746        0.164      106.933       15.352        0.021      348.348       27.977      856.009
06/09/2013  20:49:00      -39.450      114.165      -15.039       37.190       36.964       23.835     1383.127     1366.362      568.098        0.907        0.166      120.788       18.026        0.022      348.394       28.058      856.022
06/09/2013  20:50:00      -69.838       66.500      -20.412       25.443       55.140       17.684      647.325     3040.442      312.706        0.686        0.200       96.434       13.238        0.019      348.416       28.095      856.071
06/09/2013  20:51:00      -23.118       -9.483        2.177       28.199       26.159       15.844      795.183      684.318      251.039        0.118        0.087       24.987       12.419        0.247      348.249       27.807      856.125
06/09/2013  20:52:00      -19.123      109.306       -2.822       77.165      122.514       53.241     5954.401    15009.623     2834.639        1.806        1.190      110.966       39.745        0.128      348.219       27.754      856.190
06/09/2013  20:53:00      -63.890       96.339       -3.009       63.515       44.097       33.495     4034.124     1944.570     1121.924        1.023        0.355      115.598       24.298        0.044      348.084       27.520      856.281
06/09/2013  20:54:00      -29.694      263.736      -32.163       62.801      114.381       41.709     3944.022    13082.905     1739.665        4.512        0.938      265.402       48.995        0.034      347.960       27.304      856.363
06/09/2013  20:55:00      -56.395      461.031      -53.822       77.443      129.397       55.878     5997.402    16743.457     3122.364       12.224        1.293      464.467       57.963        0.016      347.758       26.957      856.462
06/09/2013  20:56:00     -104.702      250.977      -32.766       71.972      105.590       50.301     5179.932    11149.297     2530.150        4.694        0.943      271.942       43.500        0.026      347.732       26.910      856.576
06/09/2013  20:57:00      -98.125      265.490      -27.386       94.639       94.313       58.084     8956.529     8894.862     3373.786        5.104        1.061      283.043       50.629        0.032      347.751       26.942      856.681
06/09/2013  20:58:00     -110.623      393.901      -51.624      122.083      200.219       81.386    14904.188    40087.578     6623.697       11.583        3.081      409.140       93.214        0.052      347.761       26.961      856.825
06/09/2013  20:59:00     -157.234      351.144      -47.011      108.072      167.409       64.185    11679.594    28025.653     4119.728        9.702        2.191      384.739       66.370        0.030      347.844       27.103      856.916
06/09/2013  21:00:00     -265.595      231.096      -46.000       92.999      117.932       63.202     8648.767    13907.933     3994.501        7.630        1.328      352.060       54.782        0.024      347.979       27.337      856.952
06/09/2013  21:01:00     -142.239       49.380      -11.525       82.557       66.661       42.739     6815.682     4443.659     1826.594        1.794        0.654      150.566       40.071        0.071      347.877       27.162      856.919
06/09/2013  21:02:00     -159.626       46.449      -14.621       99.267       62.256       49.508     9853.928     3875.782     2451.055        2.201        0.809      166.247       47.664        0.082      347.813       27.051      856.903
06/09/2013  21:03:00     -235.983      274.949      -57.654      101.146      155.985       57.543    10230.611    24331.260     3311.209        8.623        1.894      362.333       77.006        0.045      347.685       26.828      856.923
06/09/2013  21:04:00     -220.654      180.601      -43.188      110.290      129.812       53.523    12163.992    16851.142     2864.756        5.752        1.594      285.140       42.658        0.022      347.580       26.649      856.909
06/09/2013  21:05:00     -185.877      200.986      -30.259      119.930       88.166       58.397    14383.090     7773.262     3410.157        5.071        1.278      273.762       55.975        0.042      347.545       26.588      856.895
06/09/2013  21:06:00     -185.862       85.277      -35.045       85.527       94.808       45.122     7314.855     8988.635     2036.031        3.069        0.917      204.492       44.411        0.047      347.537       26.576      856.864
06/09/2013  21:07:00     -162.671      271.913      -50.385       85.332      116.425       50.782     7281.572    13554.817     2578.839        6.317        1.171      316.857       56.942        0.032      347.555       26.606      856.854
06/09/2013  21:08:00     -112.213      123.104      -22.628       83.786       72.417       55.193     7020.090     5244.213     3046.295        2.178        0.766      166.572       45.854        0.076      347.519       26.545      856.839
06/09/2013  21:09:00     -178.294      234.190      -44.513       83.503       85.994       45.416     6972.830     7394.984     2062.646        5.252        0.822      294.336       42.197        0.021      347.669       26.802      856.859
06/09/2013  21:10:00     -218.969      237.288      -39.803      126.081      144.419       69.010    15896.296    20856.715     4762.350        7.367        2.076      322.882       72.518        0.050      347.794       27.018      856.877
06/09/2013  21:11:00     -229.914      248.337      -41.905      116.790      148.373       75.094    13639.879    22014.678     5639.101        7.878        2.065      338.425       85.287        0.064      347.840       27.099      856.912
06/09/2013  21:12:00     -184.578      245.344      -35.511      120.350      126.635       72.260    14484.170    16036.508     5221.555        6.563        1.787      307.023       74.236        0.058      347.839       27.095      856.956
06/09/2013  21:13:00     -164.639      223.344      -28.246      120.552      151.375       75.457    14532.826    22914.388     5693.789        6.046        2.157      277.468       85.048        0.094      347.779       26.992      857.011
06/09/2013  21:14:00     -252.816      375.486      -50.848      170.497      172.149       93.369    29069.336    29635.190     8717.746       13.744        3.371      452.665      114.259        0.064      347.715       26.882      857.036
06/09/2013  21:15:00      -94.084      243.950      -17.363       75.306      209.050       57.815     5670.939    43701.845     3342.518        6.068        2.636      261.464       77.271        0.087      347.629       26.735      857.047
06/09/2013  21:16:00     -206.380      298.450      -44.164      117.691      135.742       66.874    13851.134    18425.959     4472.113        8.518        1.837      362.857       58.436        0.026      347.641       26.754      857.051
06/09/2013  21:17:00     -233.744      388.584      -60.511      142.179      162.383       80.779    20214.882    26368.307     6525.322       13.119        2.655      453.468       89.932        0.039      347.647       26.765      857.089
06/09/2013  21:18:00     -216.792      422.228      -71.843      162.368      159.545       89.745    26363.324    25454.727     8054.130       14.514        2.994      474.632       90.536        0.036      347.666       26.796      857.104
06/09/2013  21:19:00     -198.078      312.728      -47.272      122.655      153.542       80.879    15044.194    23574.998     6541.454        9.221        2.258      370.181       71.635        0.037      347.642       26.756      857.129
06/09/2013  21:20:00     -171.869      205.796      -26.453      112.418      100.219       74.083    12637.774    10043.891     5488.272        5.037        1.408      268.125       75.627        0.080      347.577       26.644      857.154
06/09/2013  21:21:00     -230.374      352.235      -57.959      103.927      140.218       76.232    10800.800    19661.022     5811.277       10.838        1.814      420.882       61.475        0.021      347.552       26.601      857.189
06/09/2013  21:22:00     -195.098      371.760      -48.793      106.029      159.373       78.849    11242.203    25399.735     6217.243       11.075        2.143      419.843       82.189        0.038      347.483       26.481      857.233
06/09/2013  21:23:00     -278.096      338.330      -54.515      173.574      187.176       87.557    30127.866    35034.898     7666.194       13.379        3.641      437.955       94.893        0.047      347.438       26.403      857.257
06/09/2013  21:24:00     -249.103      340.566      -69.949      136.888      143.964       74.058    18738.228    20725.691     5484.559       11.393        2.247      421.945       88.156        0.044      347.400       26.336      857.269
06/09/2013  21:25:00     -208.418      168.461      -35.006       96.139       93.212       50.635     9242.762     8688.425     2563.854        4.676        1.025      267.987       38.843        0.021      347.341       26.235      857.268
06/09/2013  21:26:00     -351.752      219.480      -49.510      116.914      116.852       77.439    13668.852    13654.359     5996.874       10.383        1.666      414.609       56.787        0.019      347.312       26.185      857.253
06/09/2013  21:27:00     -257.739      279.162      -64.743      108.598      128.780       65.849    11793.460    16584.384     4336.110        9.063        1.636      379.948       52.541        0.019      347.302       26.169      857.246
06/09/2013  21:28:00     -272.992      284.284      -58.526      142.289      142.703       67.644    20246.269    20364.262     4575.720       10.197        2.259      394.135       70.697        0.032      347.286       26.142      857.263
06/09/2013  21:29:00     -198.264      241.988      -28.218      145.437      159.423       74.593    21151.806    25415.786     5564.105        7.539        2.607      312.837       71.627        0.052      347.250       26.079      857.274
06/09/2013  21:30:00     -167.653      219.940       -9.386      111.157      125.751       76.691    12355.842    15813.248     5881.516        5.530        1.703      276.553       67.208        0.059      347.220       26.027      857.309
06/09/2013  21:31:00     -176.530      218.270      -33.835       96.501      116.617       71.383     9312.467    13599.467     5095.491        5.397        1.400      280.722       70.373        0.063      347.203       25.999      857.358
06/09/2013  21:32:00     -140.834      249.628      -41.906       82.337       85.170       51.478     6779.318     7253.953     2650.008        5.029        0.834      286.615       40.733        0.020      347.191       25.977      857.385
06/09/2013  21:33:00     -201.472      210.727      -42.497       90.855       97.721       58.970     8254.673     9549.332     3477.489        5.404        1.064      291.542       53.120        0.033      347.214       26.017      857.399
06/09/2013  21:34:00     -138.436      229.971      -27.584       90.803       82.172       61.924     8245.100     6752.237     3834.552        4.582        0.942      268.424       54.243        0.041      347.177       25.954      857.413
06/09/2013  21:35:00     -193.732      244.544      -53.053       81.587       99.332       55.022     6656.510     9866.813     3027.405        5.985        0.978      311.984       40.790        0.017      347.174       25.948      857.419
06/09/2013  21:36:00     -231.925      209.665      -45.700      111.985      114.493       55.478    12540.717    13108.534     3077.788        6.428        1.436      312.648       63.665        0.041      347.172       25.945      857.432
06/09/2013  21:37:00     -202.306      182.451      -32.549      118.971      105.727       72.946    14154.110    11178.236     5321.052        5.296        1.533      272.427       70.437        0.067      347.165       25.934      857.433
06/09/2013  21:38:00     -166.052      259.961      -21.228      104.050      109.511       72.464    10826.501    11992.568     5251.004        6.183        1.404      308.469       70.751        0.053      347.117       25.851      857.422
06/09/2013  21:39:00     -201.881      228.520      -35.601       97.780      102.077       59.229     9560.972    10419.638     3508.020        5.886        1.174      304.922       47.433        0.024      347.135       25.882      857.429
06/09/2013  21:40:00     -178.970      240.251      -47.040       92.650       85.838       56.206     8584.054     7368.107     3159.133        5.553        0.956      299.584       63.270        0.045      347.131       25.874      857.434
06/09/2013  21:41:00     -135.409      178.047      -25.600       56.717       89.325       42.275     3216.825     7978.905     1787.146        3.183        0.649      223.687       41.875        0.035      347.066       25.764      857.438
06/09/2013  21:42:00     -196.757      155.528      -38.800       98.119       86.826       51.693     9627.280     7538.694     2672.170        4.212        0.992      250.803       61.301        0.060      347.072       25.774      857.425
06/09/2013  21:43:00     -257.345      194.040      -51.328      107.849      129.213       57.156    11631.362    16695.889     3266.777        6.905        1.580      322.301       60.612        0.035      347.074       25.776      857.417
06/09/2013  21:44:00     -244.572      185.608      -33.760      111.617      113.572       71.349    12458.422    12898.573     5090.662        6.292        1.522      307.028       60.679        0.039      347.088       25.800      857.404
06/09/2013  21:45:00     -238.290      148.382      -32.004       97.214      125.073       56.664     9450.471    15643.229     3210.798        5.406        1.415      280.712       56.511        0.041      347.101       25.822      857.404
06/09/2013  21:46:00     -213.883       40.478      -27.371       98.752       61.933       50.609     9751.962     3835.711     2561.221        3.214        0.807      217.679       46.717        0.046      347.105       25.832      857.395
06/09/2013  21:47:00     -210.632      215.364      -50.580      103.946      114.786       59.944    10804.794    13175.712     3593.232        6.043        1.379      301.243       61.579        0.042      347.102       25.825      857.393
06/09/2013  21:48:00     -161.797       43.988      -13.471      109.929      102.671       65.077    12084.410    10541.432     4235.024        2.757        1.343      167.670       64.333        0.147      347.116       25.850      857.397
06/09/2013  21:49:00     -140.708       97.732       -2.638       94.675       91.887       51.400     8963.439     8443.159     2641.924        2.470        1.002      171.319       46.272        0.073      347.051       25.737      857.392
06/09/2013  21:50:00     -133.926       82.583      -21.788       72.789      107.100       43.132     5298.230    11470.402     1860.408        2.193        0.931      157.341       42.526        0.073      347.130       25.875      857.395
06/09/2013  21:51:00     -138.709       89.327      -24.420      107.828       56.871       40.133    11626.848     3234.355     1610.677        2.214        0.824      164.983       43.536        0.070      347.071       25.774      857.411
06/09/2013  21:52:00      -47.697      143.511       -4.777       40.747       82.234       35.980     1660.322     6762.435     1294.545        1.630        0.486      151.230       38.342        0.064      347.048       25.733      857.417
06/09/2013  21:53:00      -75.815      172.691      -26.340       71.208       79.059       46.229     5070.533     6250.330     2137.111        2.486        0.673      188.600       44.448        0.056      347.130       25.873      857.445
06/09/2013  21:54:00      -75.390      211.983      -22.617       53.522       57.222       37.714     2864.642     3274.348     1422.349        2.935        0.378      224.990       35.028        0.024      347.066       25.763      857.470
06/09/2013  21:55:00       -5.565      168.421      -20.202       43.793       63.623       31.289     1917.834     4047.865      978.992        1.787        0.347      168.513       32.619        0.037      346.958       25.579      857.499
06/09/2013  21:56:00      -12.572      161.823      -14.155       60.240       77.702       42.133     3628.811     6037.546     1775.206        1.899        0.572      162.311       44.031        0.074      346.902       25.482      857.550
06/09/2013  21:57:00      -56.782      209.943      -16.622       76.472      106.952       48.595     5847.971    11438.783     2361.522        3.361        0.982      217.486       54.887        0.064      346.921       25.515      857.584
06/09/2013  21:58:00      -25.405      183.658      -15.840       49.678       57.885       35.711     2467.921     3350.672     1275.250        2.086        0.355      185.407       31.420        0.029      346.917       25.509      857.625
06/09/2013  21:59:00      -98.514      232.323      -30.826      103.367      103.788       49.193    10684.769    10772.015     2419.935        4.425        1.194      252.347       35.573        0.020      346.951       25.564      857.674
06/09/2013  22:00:00      -91.069      141.931      -20.011       99.316       75.816       48.350     9863.665     5748.091     2337.756        2.339        0.897      168.635       53.950        0.102      347.001       25.654      857.710
06/09/2013  22:01:00     -181.675      160.353      -23.387      106.316      106.664       56.279    11303.126    11377.294     3167.317        4.255        1.292      242.320       43.656        0.032      347.001       25.650      857.741
06/09/2013  22:02:00     -150.203       61.789      -22.729       71.222       54.553       34.483     5072.555     2975.980     1189.081        1.806        0.462      162.416       24.424        0.023      347.041       25.721      857.784
06/09/2013  22:03:00     -122.701        9.609      -17.667       36.792       50.678       32.774     1353.634     2568.301     1074.142        1.023        0.250      123.076       30.577        0.062      347.046       25.731      857.832
06/09/2013  22:04:00     -118.650       75.695      -34.084       61.999      102.569       43.349     3843.835    10520.330     1879.101        1.860        0.812      140.739       49.834        0.125      347.027       25.699      857.878
06/09/2013  22:05:00      -73.704       20.685      -20.480       25.317       24.668       15.524      640.928      608.513      240.992        0.388        0.075       76.551       11.554        0.023      346.992       25.642      857.919
06/09/2013  22:06:00     -107.830      -34.611      -10.526       41.260       71.620       28.070     1702.410     5129.414      787.921        1.028        0.381      113.249       17.164        0.023      346.944       25.556      857.958
06/09/2013  22:07:00     -132.526      -51.997       -2.445       56.124       70.071       37.102     3149.852     4909.906     1376.539        1.485        0.472      142.362       34.890        0.060      346.910       25.496      857.981
06/09/2013  22:08:00     -101.344      -83.243       -1.063       91.731       80.705       40.576     8414.543     6513.219     1646.428        1.688        0.829      131.149       54.322        0.172      346.947       25.561      857.978
06/09/2013  22:09:00     -180.359      -53.318      -15.071       69.618       70.379       34.067     4846.609     4953.201     1160.536        2.328        0.548      188.075       36.798        0.038      346.969       25.597      857.978
06/09/2013  22:10:00     -196.631      -54.356      -15.554       62.943       62.937       29.516     3961.878     3961.111      871.186        2.533        0.440      204.006       30.073        0.022      347.319       26.198      857.956
06/09/2013  22:11:00     -125.826       31.202       -5.601       40.145       24.008       18.050     1611.583      576.385      325.809        0.967        0.126      129.636       18.298        0.020      347.206       26.006      857.935
06/09/2013  22:12:00     -156.590       74.925      -12.818       46.992       45.809       29.650     2208.226     2098.485      879.134        1.774        0.259      173.592       26.761        0.024      346.955       25.574      857.912
06/09/2013  22:13:00     -194.573      -28.150      -13.779       75.277       49.455       40.257     5666.687     2445.824     1620.612        2.429        0.487      196.598       42.830        0.047      346.927       25.523      857.881
06/09/2013  22:14:00     -318.186      -54.232      -33.697       73.044       79.410       38.961     5335.495     6305.954     1517.962        5.924        0.658      322.774       34.559        0.011      347.361       26.270      857.843
06/09/2013  22:15:00     -206.960      -18.506      -20.839       82.536       70.848       37.360     6812.197     5019.426     1395.779        2.842        0.661      207.786       37.641        0.033      347.439       26.407      857.807
06/09/2013  22:16:00     -234.168      -55.742      -15.453       77.665       58.603       40.499     6031.866     3434.305     1640.207        3.464        0.555      240.711       42.023        0.030      347.427       26.385      857.795
06/09/2013  22:17:00      -68.291      -32.037        5.619       48.779       39.425       23.210     2379.430     1554.326      538.718        0.510        0.224       75.432       21.308        0.080      347.532       26.568      857.776
06/09/2013  22:18:00      -75.886      -16.722       -2.368       59.265       33.471       21.380     3512.347     1120.307      457.094        0.557        0.254       77.707       21.641        0.078      347.314       26.193      857.796
06/09/2013  22:19:00      -80.947       76.530       -6.307       33.679       49.182       19.192     1134.283     2418.861      368.335        0.818        0.196      111.397       21.736        0.038      347.173       25.951      857.824
06/09/2013  22:20:00      -30.821      109.812      -15.706       24.734       29.643       15.704      611.756      878.714      246.604        0.750        0.087      114.055       13.257        0.014      347.103       25.830      857.853
06/09/2013  22:21:00       -3.223      146.838      -22.951       18.566       28.200       14.609      344.696      795.227      213.424        1.173        0.068      146.873        5.732        0.002      347.118       25.857      857.876
06/09/2013  22:22:00      -23.018      133.560      -19.890       20.805       26.167       16.521      432.835      684.726      272.935        1.008        0.070      135.529       11.632        0.007      347.101       25.826      857.886
06/09/2013  22:23:00      -49.475      149.498      -16.233       33.940       28.639       16.979     1151.905      820.190      288.299        1.366        0.113      157.472       11.253        0.005      347.082       25.795      857.898
06/09/2013  22:24:00      -31.728      107.608      -11.173       19.745       34.641       15.208      389.860     1200.029      231.293        0.727        0.091      112.188       15.254        0.018      346.974       25.609      857.886
06/09/2013  22:25:00      -87.836       47.774      -12.894       24.518       28.527       15.806      601.148      813.788      249.827        0.591        0.083       99.988       13.446        0.018      346.911       25.501      857.875
06/09/2013  22:26:00     -123.736       40.899      -13.367       32.181       31.311       21.682     1035.620      980.370      470.118        0.982        0.124      130.320       17.607        0.018      346.932       25.536      857.862
06/09/2013  22:27:00     -129.739       56.276       -5.265       67.296       35.832       34.899     4528.808     1283.920     1217.942        1.353        0.352      141.418       38.538        0.074      347.102       25.827      857.836
06/09/2013  22:28:00     -215.109       -8.533      -28.256       46.810       69.041       29.032     2191.206     4766.698      842.841        2.747        0.390      215.278       22.407        0.011      347.279       26.130      857.798
06/09/2013  22:29:00     -151.420      -65.861       -9.115       45.562       52.915       28.163     2075.901     2799.959      793.146        1.651        0.283      165.123       21.837        0.017      347.042       25.724      857.767
06/09/2013  22:30:00      -67.680       -4.136       -3.538       42.713       21.034       16.973     1824.403      442.430      288.067        0.358        0.128       67.806       14.021        0.043      347.176       25.956      857.729
06/09/2013  22:31:00     -110.178       39.917      -14.095       26.441       29.374       17.957      699.145      862.807      322.447        0.791        0.094      117.186       12.588        0.012      347.029       25.701      857.709
06/09/2013  22:32:00      -98.971       -5.052      -13.789       29.183       34.712       14.432      851.621     1204.897      208.284        0.614        0.113       99.100        9.611        0.009      347.059       25.753      857.698
06/09/2013  22:33:00      -40.770       15.692        3.478       27.449       27.107       25.952      753.446      734.812      673.495        0.204        0.108       43.686       19.101        0.191      346.976       25.610      857.694
06/09/2013  22:34:00      -91.708      -16.887       -6.177       51.852       37.655       24.895     2688.650     1417.883      619.762        0.673        0.236       93.249       17.054        0.033      346.848       25.390      857.683
06/09/2013  22:35:00     -139.890      -24.502      -14.911       34.565       39.105       21.651     1194.758     1529.226      468.767        1.179        0.160      142.019       14.586        0.011      346.752       25.226      857.678
06/09/2013  22:36:00     -154.920      -38.957      -17.235       50.005       34.527       28.779     2500.467     1192.084      828.242        1.517        0.226      159.743       24.496        0.024      346.794       25.296      857.660
06/09/2013  22:37:00     -120.561       21.794      -13.045       38.669       24.200       19.881     1495.276      585.647      395.272        0.883        0.124      122.515       10.947        0.008      346.978       25.614      857.648
06/09/2013  22:38:00      -52.791       42.854       -4.664       27.257       36.382       20.114      742.921     1323.646      404.560        0.356        0.124       67.995       11.999        0.031      346.994       25.643      857.635
06/09/2013  22:39:00      -82.343       11.901      -13.141       32.270       31.707       12.135     1041.356     1005.342      147.261        0.464        0.110       83.199        7.513        0.008      346.905       25.489      857.627
06/09/2013  22:40:00     -102.657       -8.374      -11.553       27.771       16.996       17.073      771.218      288.871      291.497        0.605        0.068      102.998       14.580        0.020      346.846       25.387      857.631
06/09/2013  22:41:00     -102.679      -33.548      -11.339       33.479       18.320       14.717     1120.855      335.630      216.593        0.673        0.084      108.021       14.155        0.017      346.792       25.294      857.630
06/09/2013  22:42:00     -150.931      -79.226      -20.395       58.291       43.816       26.511     3397.892     1919.877      702.855        1.775        0.301      170.461       15.343        0.008      346.691       25.119      857.627
06/09/2013  22:43:00     -136.482      -75.984       -5.704       58.244       41.741       31.824     3392.335     1742.298     1012.777        1.529        0.307      156.208       27.835        0.032      346.569       24.912      857.624
06/09/2013  22:44:00      -87.316      -49.035        1.547       46.694       31.306       25.356     2180.344      980.048      642.922        0.692        0.190      100.142       26.173        0.068      346.546       24.871      857.602
06/09/2013  22:45:00      -86.293      -69.303        8.218       55.607       47.471       30.799     3092.114     2253.496      948.581        0.930        0.315      110.677       29.494        0.071      346.463       24.729      857.590
06/09/2013  22:46:00     -131.638      -11.446        0.781       45.992       33.542       27.863     2115.256     1125.060      776.341        1.074        0.201      132.135       25.624        0.038      346.448       24.703      857.585
06/09/2013  22:47:00      -74.848      -10.932        9.272       50.782       34.094       26.840     2578.838     1162.413      720.365        0.513        0.223       75.642       25.391        0.113      346.398       24.616      857.576
06/09/2013  22:48:00      -94.765      -14.274       -2.115       33.974       23.561       16.876     1154.216      555.134      284.805        0.559        0.100       95.834       14.460        0.023      346.499       24.791      857.563
06/09/2013  22:49:00     -110.120        8.998      -10.258       28.727       20.286       13.399      825.227      411.523      179.522        0.686        0.071      110.487       13.340        0.015      346.404       24.626      857.553
06/09/2013  22:50:00     -100.337       33.848       -7.697       43.716       30.572       23.855     1911.069      934.624      569.065        0.734        0.171      105.892       20.470        0.037      346.500       24.793      857.558
06/09/2013  22:51:00     -121.321       59.883      -11.904       41.517       22.807       16.693     1723.673      520.178      278.654        1.048        0.126      135.295       14.954        0.012      346.627       25.011      857.553
06/09/2013  22:52:00     -134.828       50.580       -8.248       46.552       46.046       27.075     2167.108     2120.226      733.047        1.291        0.251      144.003       17.988        0.016      346.569       24.911      857.547
06/09/2013  22:53:00     -157.854        0.995      -15.358       58.194       35.325       22.540     3386.517     1247.872      508.058        1.515        0.257      157.857       22.295        0.020      346.475       24.749      857.548
06/09/2013  22:54:00     -165.536      -20.451       -6.458       63.453       50.366       34.768     4026.270     2536.727     1208.808        1.782        0.389      166.794       32.387        0.038      346.450       24.706      857.543
06/09/2013  22:55:00     -231.578       15.321      -24.018       58.791       45.445       31.755     3456.388     2065.267     1008.410        3.048        0.327      232.084       26.849        0.013      346.505       24.797      857.546
06/09/2013  22:56:00     -198.113      -11.214      -14.498       65.389       54.064       36.768     4275.686     2922.963     1351.898        2.407        0.428      198.430       35.400        0.032      346.457       24.716      857.558
06/09/2013  22:57:00     -111.442      -29.535      -10.635       44.257       37.857       28.823     1958.690     1433.140      830.782        0.881        0.211      115.289        4.929        0.002      346.383       24.592      857.575
06/09/2013  22:58:00      -50.966        5.401       -6.455       25.270       29.286       16.348      638.577      857.646      267.272        0.222        0.088       51.252       13.049        0.065      346.336       24.509      857.595
06/09/2013  22:59:00      -97.170       79.030       -8.290       74.300       39.603       28.800     5520.538     1568.380      829.420        1.184        0.396      125.251       24.852        0.039      346.523       24.832      857.601
06/09/2013  23:00:00     -109.471       50.495      -13.373       38.525       52.951       24.086     1484.153     2803.804      580.140        0.979        0.243      120.555       14.538        0.015      346.538       24.857      857.593
06/09/2013  23:01:00      -75.265       37.981      -15.546       25.442       24.883       19.690      647.300      619.150      387.712        0.450        0.083       84.305       12.877        0.023      346.518       24.823      857.598
06/09/2013  23:02:00     -100.886       20.718      -12.785       49.435       37.636       24.572     2443.853     1416.487      603.790        0.762        0.223      102.991       22.807        0.049      346.541       24.862      857.588
06/09/2013  23:03:00     -114.493       44.176       -9.561       46.204       55.277       29.503     2134.791     3055.495      870.418        1.060        0.303      122.719       12.429        0.010      346.518       24.823      857.580
06/09/2013  23:04:00      -72.938       44.168        3.335       70.837       48.678       32.427     5017.940     2369.507     1051.516        0.786        0.422       85.269       36.498        0.183      346.537       24.854      857.560
06/09/2013  23:05:00      -72.109       48.344       -9.764       44.775       41.932       27.493     2004.791     1758.294      755.869        0.607        0.226       86.815       26.326        0.092      346.540       24.861      857.543
06/09/2013  23:06:00     -111.491       63.217       -9.037       38.313       30.906       25.593     1467.889      955.191      654.995        0.979        0.154      128.167       19.492        0.023      346.543       24.866      857.539
06/09/2013  23:07:00     -154.674       10.150      -20.970       36.419       33.473       18.015     1326.345     1120.472      324.557        1.362        0.139      155.007       18.045        0.014      346.551       24.880      857.538
06/09/2013  23:08:00     -158.103      -56.737      -13.917       48.655       70.261       31.956     2367.274     4936.671     1021.185        1.837        0.416      167.975       19.472        0.013      346.496       24.784      857.519
06/09/2013  23:09:00     -185.478      -70.002       -5.707       70.968       40.994       29.962     5036.488     1680.480      897.727        2.347        0.381      198.248       29.307        0.022      346.465       24.728      857.500
06/09/2013  23:10:00     -113.530      -80.320        2.215       60.036       56.190       36.559     3604.280     3157.346     1336.540        1.372        0.405      139.070       29.095        0.044      346.638       25.030      857.474
06/09/2013  23:11:00     -133.341      -62.230        1.924       79.586       54.135       34.418     6333.894     2930.561     1184.576        1.605        0.522      147.147       39.382        0.072      346.529       24.840      857.461
06/09/2013  23:12:00     -115.409      -40.725        2.077       97.947       46.563       28.738     9593.691     2168.159      825.860        1.378        0.629      122.384       31.737        0.067      346.527       24.837      857.448
06/09/2013  23:13:00      -55.593       -8.840        5.465       53.026       50.036       36.606     2811.768     2503.643     1340.031        0.493        0.333       56.291       33.903        0.363      346.596       24.958      857.434
06/09/2013  23:14:00     -103.265      -53.735       -4.467       46.667       35.852       28.873     2177.793     1285.341      833.633        0.893        0.215      116.409       26.550        0.052      346.562       24.899      857.428
06/09/2013  23:15:00      -81.564      -45.529       -2.482       35.686       33.374       21.685     1273.495     1113.854      470.245        0.579        0.143       93.410       13.797        0.022      346.455       24.715      857.424
06/09/2013  23:16:00     -165.565      -16.856        2.937       63.814       42.939       27.181     4072.255     1843.736      738.823        1.718        0.333      166.421       29.949        0.032      346.419       24.652      857.426
06/09/2013  23:17:00     -133.102       -7.606       -8.864       52.056       42.843       25.413     2709.878     1835.482      645.804        1.152        0.260      133.319       26.143        0.038      346.310       24.466      857.413
06/09/2013  23:18:00     -144.205      -26.093      -16.571       33.204       47.225       22.632     1102.516     2230.159      512.189        1.280        0.192      146.546       20.935        0.020      346.232       24.331      857.394
06/09/2013  23:19:00     -153.411      -40.255       -7.166       44.491       43.415       27.726     1979.447     1884.902      768.715        1.492        0.232      158.605       26.710        0.028      346.103       24.109      857.381
06/09/2013  23:20:00     -150.257      -51.878        0.587       51.767       41.426       26.964     2679.848     1716.104      727.082        1.519        0.256      158.961       26.925        0.029      346.009       23.947      857.374
06/09/2013  23:21:00     -103.249      -45.047        3.192       50.344       36.373       21.284     2534.494     1323.016      453.026        0.850        0.216      112.648       18.548        0.027      345.931       23.816      857.361
06/09/2013  23:22:00      -76.636      -39.862        1.938       45.254       41.973       20.676     2047.932     1761.762      427.513        0.585        0.212       86.383       20.946        0.059      345.918       23.792      857.350
06/09/2013  23:23:00     -109.393      -23.791        2.341       48.305       44.657       24.784     2333.376     1994.216      614.266        0.874        0.247      111.950       23.045        0.042      345.937       23.826      857.351
06/09/2013  23:24:00     -151.726      -30.624       -3.499       57.045       36.995       25.074     3254.098     1368.648      628.719        1.461        0.263      154.785       27.819        0.032      345.893       23.749      857.356
06/09/2013  23:25:00     -140.211      -54.204       -3.525       50.693       41.690       24.943     2569.815     1738.045      622.161        1.377        0.247      150.324       26.784        0.032      345.850       23.675      857.359
06/09/2013  23:26:00     -139.233       -7.190       -8.619       64.050       38.382       31.235     4102.388     1473.208      975.648        1.303        0.328      139.419       33.125        0.056      345.777       23.550      857.362
06/09/2013  23:27:00     -144.447      -55.774       -5.379       39.209       35.320       24.301     1537.343     1247.470      590.526        1.369        0.169      154.841       17.232        0.012      345.696       23.411      857.371
06/09/2013  23:28:00     -174.466      -60.209       -7.964       51.624       52.098       32.761     2665.017     2714.238     1073.280        2.029        0.323      184.563       24.799        0.018      345.744       23.491      857.368
06/09/2013  23:29:00     -106.001      -47.040       -1.321       43.651       48.667       28.955     1905.419     2368.446      838.391        0.928        0.256      115.970       21.082        0.033      345.644       23.322      857.361
06/09/2013  23:30:00     -128.142      -28.825        0.651       69.696       35.602       28.010     4857.519     1267.473      784.572        1.208        0.345      131.344       32.547        0.061      345.621       23.283      857.363
06/09/2013  23:31:00      -84.043      -27.210       -1.328       41.140       33.876       18.971     1692.531     1147.550      359.899        0.550        0.160       88.339       17.201        0.038      345.637       23.311      857.348
06/09/2013  23:32:00      -73.370      -19.239        0.427       60.423       23.038       17.820     3650.926      530.756      317.552        0.513        0.225       75.851       25.469        0.113      345.650       23.332      857.317
06/09/2013  23:33:00      -88.357      -50.385        0.022       51.823       36.282       21.542     2685.584     1316.383      464.065        0.740        0.223      101.713       21.310        0.044      345.754       23.511      857.302
06/09/2013  23:34:00     -107.307      -49.853        0.093       38.259       27.549       23.410     1463.754      758.948      548.051        0.838        0.139      118.323       24.337        0.042      345.789       23.571      857.276
06/09/2013  23:35:00     -117.107      -56.354       -1.793       37.605       22.008       14.724     1414.099      484.348      216.794        0.950        0.106      129.960       16.261        0.016      345.800       23.589      857.258
06/09/2013  23:36:00     -107.996      -45.488       -4.435       39.869       24.753       18.738     1589.505      612.691      351.094        0.815        0.128      117.185       21.700        0.034      345.746       23.498      857.251
06/09/2013  23:37:00     -159.986      -61.937       -9.091       30.264       22.522       17.525      915.913      507.223      307.116        1.562        0.087      171.557       10.602        0.004      345.788       23.569      857.250
06/09/2013  23:38:00      -96.055      -36.301        3.354       53.413       36.057       25.355     2852.995     1300.086      642.860        0.767        0.240      102.685       28.943        0.079      345.754       23.510      857.242
06/09/2013  23:39:00     -127.353      -64.697       -3.112       23.495       27.000       15.692      552.016      728.975      246.237        1.097        0.076      142.844        9.312        0.004      345.716       23.445      857.238
06/09/2013  23:40:00      -55.432      -46.693        3.364       40.522       34.738       19.627     1642.071     1206.745      385.220        0.425        0.162       72.477       20.631        0.081      345.745       23.495      857.246
06/09/2013  23:41:00      -68.687      -47.882        8.638       46.672       34.923       22.916     2178.285     1219.615      525.165        0.550        0.196       83.729       24.862        0.088      345.837       23.653      857.245
06/09/2013  23:42:00      -73.207      -56.767        3.896       46.611       38.613       22.966     2172.601     1490.958      527.433        0.639        0.210       92.638       25.920        0.078      345.916       23.790      857.253
06/09/2013  23:43:00      -81.138      -43.433        9.196       38.639       27.912       16.773     1492.957      779.053      281.337        0.555        0.128       92.032       20.393        0.049      345.918       23.794      857.254
06/09/2013  23:44:00      -46.623      -63.857        0.350       40.404       42.732       18.422     1632.516     1826.048      339.356        0.502        0.190       79.066       17.221        0.047      345.990       23.914      857.264
06/09/2013  23:45:00      -42.492      -35.422       14.430       52.039       46.743       23.463     2708.023     2184.874      550.530        0.435        0.272       55.321       25.070        0.205      345.970       23.881      857.253
06/09/2013  23:46:00      -41.210      -38.852       11.135       43.045       26.804       24.980     1852.901      718.457      624.020        0.326        0.160       56.637       27.594        0.237      345.916       23.788      857.248
06/09/2013  23:47:00      -64.245      -52.311        0.729       40.416       33.252       20.679     1633.427     1105.723      427.621        0.501        0.158       82.848       16.615        0.040      345.902       23.766      857.241
06/09/2013  23:48:00      -68.748      -63.501        6.412       35.618       29.326       17.365     1268.656      860.027      301.530        0.561        0.122       93.588       14.063        0.023      345.900       23.760      857.249
06/09/2013  23:49:00      -52.283      -40.428        0.703       29.594       29.358       14.516      875.827      861.909      210.725        0.316        0.097       66.090       11.858        0.032      345.906       23.773      857.249
06/09/2013  23:50:00      -47.726       -4.021       -0.100       32.837       20.745       13.800     1078.287      430.358      190.447        0.200        0.085       47.895       12.911        0.073      345.817       23.620      857.250
06/09/2013  23:51:00      -89.713      -28.368        0.606       18.046       18.699       11.793      325.663      349.649      139.071        0.483        0.041       94.092        8.573        0.008      345.838       23.654      857.252
06/09/2013  23:52:00      -38.819      -26.070       10.440       37.109       27.311       21.242     1377.081      745.864      451.225        0.243        0.129       46.761       21.953        0.220      345.849       23.675      857.248
06/09/2013  23:53:00      -89.318      -29.558       -0.602       44.269       31.884       20.458     1959.756     1016.619      418.535        0.612        0.170       94.081       22.041        0.055      345.790       23.573      857.259
06/09/2013  23:54:00      -63.389      -70.852       -0.445       32.664       30.398       20.677     1066.918      924.050      427.535        0.573        0.121       95.069       17.776        0.035      345.840       23.659      857.253
06/09/2013  23:55:00      -68.184      -87.613       -0.363       37.814       34.345       20.895     1429.894     1179.605      436.588        0.769        0.152      111.018       24.237        0.048      345.926       23.808      857.251
06/09/2013  23:56:00      -14.261      -39.789       12.556       44.142       31.729       24.091     1948.517     1006.761      580.375        0.274        0.177       42.268       24.586        0.338      345.893       23.748      857.256
06/09/2013  23:57:00      -30.009      -19.744        3.803       23.731       19.493       14.551      563.180      379.976      211.735        0.123        0.058       35.921       12.802        0.127      345.866       23.702      857.265
06/09/2013  23:58:00      -40.578        5.354        3.481       16.893       15.503       10.446      285.371      240.330      109.119        0.116        0.032       40.930        9.104        0.049      345.801       23.592      857.278
06/09/2013  23:59:00      -49.707       -2.772       -3.026       25.280       21.783        9.175      639.055      474.479       84.187        0.184        0.060       49.784       12.114        0.059      345.759       23.517      857.278
